[[{"header":{"parameterUnit":"m.s-1","parameterCategory":1,"la1":31.0,"la2":29.5877,"lo1":-88.7671,"lo2":-86.6584,"dy":0.0162,"dx":0.0185,"nx":115,"ny":88,"refTime":"2025-11-04T12:00:00:Z","depth":0,"parameterNumber":2,"parameterNumberName":"U-component_of_WINDS"},"data":[0.0,0.0,0.0,0.0,0.0,0.0,0.0,0.0,0.0,0.0,0.0,0.0,0.0,0.0,0.0,0.0,0.0,0.0,0.0,0.0,0.0,0.0,0.0,0.0,0.0,0.0,0.0,0.0,0.0,0.0,0.0,0.0,0.0,0.0,0.0,0.0,0.0,0.0,0.0,0.0,0.0,0.0,0.0,0.0,0.0,0.0,0.0,0.0,0.0,0.0,0.0,0.0,0.0,0.0,0.0,0.0,0.0,0.0,0.0,0.0,0.0,0.0,0.0,0.0,0.0,0.0,0.0,0.0,0.0,0.0,0.0,0.0,0.0,0.0,0.0,0.0,0.0,0.0,0.0,0.0,0.0,0.0,0.0,0.0,0.0,0.0,0.0,0.0,0.0,0.0,0.0,0.0,0.0,0.0,0.0,0.0,0.0,0.0,0.0,0.0,0.0,0.0,0.0,0.0,0.0,0.0,0.0,0.0,0.0,0.0,0.0,0.0,0.0,0.0,0.0,0.0,0.0,0.0,0.0,0.0,0.0,0.0,0.0,0.0,0.0,0.0,0.0,0.0,0.0,0.0,0.0,0.0,0.0,0.0,0.0,0.0,0.0,0.0,0.0,0.0,0.0,0.0,0.0,0.0,0.0,0.0,0.0,0.0,0.0,0.0,0.0,0.0,0.0,0.0,0.0,0.0,0.0,0.0,0.0,0.0,0.0,0.0,0.0,0.0,0.0,0.0,0.0,0.0,0.0,0.0,0.0,0.0,0.0,0.0,0.0,0.0,0.0,0.0,0.0,0.0,0.0,0.0,0.0,0.0,0.0,0.0,0.0,0.0,0.0,0.0,0.0,0.0,0.0,0.0,0.0,0.0,0.0,0.0,0.0,0.0,0.0,0.0,0.0,0.0,0.0,0.0,0.0,0.0,0.0,0.0,0.0,0.0,0.0,0.0,0.0,0.0,0.0,0.0,0.0,0.0,0.0,0.0,0.0,0.0,0.0,0.0,0.0,0.0,0.0,0.0,0.0,0.0,0.0,0.0,0.0,0.0,0.0,0.0,0.0,0.0,0.0,0.0,0.0,0.0,0.0,0.0,0.0,0.0,0.0,0.0,0.0,0.0,0.0,0.0,0.0,0.0,0.0,0.0,0.0,0.0,0.0,0.0,0.0,0.0,0.0,0.0,0.0,0.0,0.0,0.0,0.0,0.0,0.0,0.0,0.0,0.0,0.0,0.0,0.0,0.0,0.0,0.0,0.0,0.0,0.0,0.0,0.0,0.0,0.0,0.0,0.0,0.0,0.0,0.0,0.0,0.0,0.0,0.0,0.0,0.0,0.0,0.0,0.0,0.0,0.0,0.0,0.0,0.0,0.0,0.0,0.0,0.0,0.0,0.0,0.0,0.0,0.0,0.0,0.0,0.0,0.0,0.0,0.0,0.0,0.0,0.0,0.0,0.0,0.0,0.0,0.0,0.0,0.0,0.0,0.0,0.0,0.0,0.0,0.0,0.0,0.0,0.0,0.0,0.0,0.0,0.0,0.0,0.0,0.0,0.0,0.0,0.0,0.0,0.0,0.0,0.0,0.0,0.0,0.0,0.0,0.0,0.0,0.0,0.0,0.0,0.0,0.0,0.0,0.0,0.0,0.0,0.0,0.0,0.0,0.0,0.0,0.0,0.0,0.0,0.0,0.0,0.0,0.0,0.0,0.0,0.0,0.0,0.0,0.0,0.0,0.0,0.0,0.0,0.0,0.0,0.0,0.0,0.0,0.0,0.0,0.0,0.0,0.0,0.0,0.0,0.0,0.0,0.0,0.0,0.0,0.0,0.0,0.0,0.0,0.0,0.0,0.0,0.0,0.0,0.0,0.0,0.0,0.0,0.0,0.0,0.0,0.0,0.0,0.0,0.0,0.0,0.0,0.0,0.0,0.0,0.0,0.0,0.0,0.0,0.0,0.0,0.0,0.0,0.0,0.0,0.0,0.0,0.0,0.0,0.0,0.0,0.0,0.0,0.0,0.0,0.0,0.0,0.0,0.0,0.0,0.0,0.0,0.0,0.0,0.0,0.0,0.0,0.0,0.0,0.0,0.0,0.0,0.0,0.0,0.0,0.0,0.0,0.0,0.0,0.0,0.0,0.0,0.0,0.0,0.0,0.0,0.0,0.0,0.0,0.0,0.0,0.0,0.0,0.0,0.0,0.0,0.0,0.0,0.0,0.0,0.0,0.0,0.0,0.0,0.0,0.0,0.0,0.0,0.0,0.0,0.0,0.0,0.0,0.0,0.0,0.0,0.0,0.0,0.0,0.0,0.0,0.0,0.0,0.0,0.0,0.0,0.0,0.0,0.0,0.0,0.0,0.0,0.0,0.0,0.0,0.0,0.0,0.0,0.0,0.0,0.0,0.0,0.0,0.0,0.0,0.0,0.0,0.0,0.0,0.0,0.0,0.0,0.0,0.0,0.0,0.0,0.0,0.0,0.0,0.0,0.0,0.0,0.0,0.0,0.0,0.0,0.0,0.0,0.0,0.0,0.0,0.0,0.0,0.0,0.0,0.0,0.0,0.0,0.0,0.0,0.0,0.0,0.0,0.0,0.0,0.0,0.0,0.0,0.0,0.0,0.0,0.0,0.0,0.0,0.0,0.0,0.0,0.0,0.0,0.0,0.0,0.0,0.0,0.0,0.0,0.0,0.0,0.0,0.0,0.0,0.0,0.0,0.0,0.0,0.0,0.0,0.0,0.0,0.0,0.0,0.0,0.0,0.0,0.0,0.0,0.0,0.0,0.0,0.0,0.0,0.0,0.0,0.0,0.0,0.0,0.0,0.0,0.0,0.0,0.0,0.0,0.0,0.0,0.0,0.0,0.0,0.0,0.0,0.0,0.0,0.0,0.0,0.0,0.0,0.0,0.0,0.0,0.0,0.0,0.0,0.0,0.0,0.0,0.0,0.0,0.0,0.0,0.0,0.0,0.0,0.0,0.0,0.0,0.0,0.0,0.0,0.0,0.0,0.0,0.0,0.0,0.0,0.0,0.0,0.0,0.0,0.0,0.0,0.0,0.0,0.0,0.0,0.0,0.0,0.0,0.0,0.0,0.0,0.0,0.0,0.0,0.0,0.0,0.0,0.0,0.0,0.0,0.0,0.0,0.0,0.0,0.0,0.0,0.0,0.0,0.0,0.0,0.0,0.0,0.0,0.0,0.0,0.0,0.0,0.0,0.0,0.0,0.0,0.0,0.0,0.0,0.0,0.0,0.0,0.0,0.0,0.0,0.0,0.0,0.0,0.0,0.0,0.0,0.0,0.0,0.0,0.0,0.0,0.0,0.0,0.0,0.0,0.0,0.0,0.0,0.0,0.0,0.0,0.0,0.0,0.0,0.0,0.0,0.0,0.0,0.0,0.0,0.0,0.0,0.0,0.0,0.0,0.0,0.0,0.0,0.0,0.0,0.0,0.0,0.0,0.0,0.0,0.0,0.0,0.0,0.0,0.0,0.0,0.0,0.0,0.0,0.0,0.0,0.0,0.0,0.0,0.0,0.0,0.0,0.0,0.0,0.0,0.0,0.0,0.0,0.0,0.0,0.0,0.0,0.0,0.0,0.0,0.0,0.0,0.0,0.0,0.0,0.0,0.0,0.0,0.0,0.0,0.0,0.0,0.0,0.0,0.0,0.0,0.0,0.0,0.0,0.0,0.0,0.0,0.0,0.0,0.0,0.0,0.0,0.0,0.0,0.0,0.0,0.0,0.0,0.0,0.0,0.0,0.0,0.0,0.0,0.0,0.0,0.0,0.0,0.0,0.0,0.0,0.0,0.0,0.0,0.0,0.0,0.0,0.0,0.0,0.0,0.0,0.0,0.0,0.0,0.0,0.0,0.0,0.0,0.0,0.0,0.0,0.0,0.0,0.0,0.0,0.0,0.0,0.0,0.0,0.0,0.0,0.0,0.0,0.0,0.0,0.0,0.0,0.0,0.0,0.0,0.0,0.0,0.0,0.0,0.0,0.0,0.0,0.0,0.0,0.0,0.0,0.0,0.0,0.0,0.0,0.0,0.0,0.0,0.0,0.0,0.0,0.0,0.0,0.0,0.0,0.0,0.0,0.0,0.0,0.0,0.0,0.0,0.0,0.0,0.0,0.0,0.0,0.0,0.0,0.0,0.0,0.0,0.0,0.0,0.0,0.0,0.0,0.0,0.0,0.0,0.0,0.0,0.0,0.0,0.0,0.0,0.0,0.0,0.0,0.0,0.0,0.0,0.0,0.0,0.0,0.0,0.0,0.0,0.0,-3.1849,0.0,0.0,0.0,0.0,0.0,0.0,0.0,0.0,0.0,0.0,0.0,0.0,0.0,0.0,0.0,0.0,0.0,0.0,0.0,0.0,0.0,0.0,0.0,0.0,0.0,0.0,0.0,0.0,0.0,0.0,0.0,0.0,0.0,0.0,0.0,0.0,0.0,0.0,0.0,0.0,0.0,0.0,0.0,0.0,0.0,0.0,0.0,0.0,0.0,0.0,0.0,0.0,0.0,0.0,0.0,0.0,0.0,0.0,0.0,0.0,0.0,0.0,0.0,0.0,0.0,0.0,0.0,0.0,0.0,0.0,0.0,0.0,0.0,0.0,0.0,0.0,0.0,0.0,0.0,0.0,0.0,0.0,0.0,0.0,0.0,0.0,0.0,0.0,0.0,0.0,0.0,0.0,0.0,0.0,0.0,0.0,0.0,0.0,0.0,0.0,0.0,0.0,0.0,0.0,0.0,0.0,0.0,0.0,0.0,0.0,-3.2462,-3.2458,-3.3243,-3.2871,-3.1218,0.0,0.0,0.0,0.0,0.0,0.0,0.0,0.0,0.0,0.0,0.0,0.0,0.0,0.0,0.0,0.0,0.0,0.0,0.0,0.0,0.0,0.0,0.0,0.0,0.0,0.0,0.0,0.0,0.0,0.0,0.0,0.0,0.0,0.0,0.0,0.0,0.0,0.0,0.0,0.0,0.0,0.0,0.0,0.0,0.0,0.0,0.0,0.0,0.0,0.0,0.0,0.0,0.0,0.0,0.0,0.0,0.0,0.0,0.0,0.0,0.0,0.0,0.0,0.0,0.0,0.0,0.0,0.0,0.0,0.0,0.0,0.0,0.0,0.0,0.0,0.0,0.0,0.0,0.0,0.0,0.0,0.0,0.0,0.0,0.0,0.0,0.0,0.0,0.0,0.0,0.0,0.0,0.0,0.0,0.0,0.0,0.0,0.0,0.0,0.0,0.0,0.0,0.0,0.0,0.0,0.0,0.0,0.0,0.0,0.0,0.0,0.0,-3.442,-3.3707,-3.1515,0.0,0.0,0.0,0.0,0.0,0.0,0.0,0.0,0.0,0.0,0.0,0.0,0.0,0.0,0.0,0.0,0.0,0.0,0.0,0.0,0.0,0.0,0.0,0.0,0.0,0.0,0.0,0.0,0.0,0.0,0.0,0.0,0.0,0.0,0.0,0.0,0.0,0.0,0.0,0.0,0.0,0.0,0.0,0.0,0.0,0.0,0.0,0.0,0.0,0.0,0.0,0.0,0.0,0.0,0.0,0.0,0.0,0.0,0.0,0.0,0.0,0.0,0.0,0.0,0.0,0.0,0.0,0.0,0.0,0.0,0.0,0.0,0.0,0.0,0.0,0.0,0.0,0.0,0.0,0.0,0.0,0.0,0.0,0.0,0.0,0.0,0.0,0.0,0.0,0.0,0.0,0.0,0.0,0.0,0.0,0.0,0.0,0.0,0.0,0.0,0.0,0.0,0.0,0.0,0.0,0.0,0.0,0.0,0.0,0.0,-3.388,-3.6296,-3.6402,0.0,-3.4023,0.0,0.0,0.0,0.0,0.0,0.0,0.0,0.0,0.0,0.0,0.0,0.0,0.0,0.0,0.0,0.0,0.0,0.0,0.0,0.0,0.0,0.0,0.0,0.0,0.0,0.0,0.0,0.0,0.0,0.0,0.0,0.0,0.0,0.0,0.0,0.0,0.0,0.0,0.0,0.0,0.0,0.0,0.0,0.0,0.0,0.0,0.0,0.0,0.0,0.0,0.0,0.0,0.0,0.0,0.0,0.0,0.0,0.0,0.0,0.0,0.0,0.0,0.0,0.0,0.0,0.0,0.0,0.0,0.0,0.0,0.0,0.0,0.0,0.0,0.0,0.0,0.0,0.0,0.0,0.0,0.0,0.0,0.0,0.0,0.0,0.0,0.0,0.0,0.0,0.0,0.0,0.0,0.0,0.0,0.0,0.0,0.0,0.0,0.0,0.0,0.0,0.0,0.0,0.0,0.0,0.0,0.0,0.0,0.0,0.0,0.0,-3.6668,-3.5287,-3.4414,0.0,0.0,0.0,0.0,0.0,0.0,0.0,0.0,0.0,0.0,0.0,0.0,0.0,0.0,0.0,0.0,0.0,0.0,0.0,0.0,0.0,0.0,0.0,0.0,0.0,0.0,0.0,0.0,0.0,0.0,0.0,0.0,0.0,0.0,0.0,0.0,0.0,0.0,0.0,0.0,0.0,0.0,0.0,0.0,0.0,0.0,0.0,0.0,0.0,0.0,0.0,0.0,0.0,0.0,0.0,0.0,0.0,0.0,0.0,0.0,0.0,0.0,0.0,0.0,0.0,0.0,0.0,0.0,0.0,0.0,0.0,0.0,0.0,0.0,0.0,0.0,0.0,0.0,0.0,0.0,0.0,0.0,0.0,0.0,0.0,0.0,0.0,0.0,0.0,0.0,0.0,0.0,0.0,0.0,0.0,0.0,0.0,0.0,0.0,0.0,0.0,0.0,0.0,0.0,0.0,0.0,0.0,0.0,0.0,0.0,-3.5887,0.0,-3.6959,-3.5497,-3.4432,-3.3893,0.0,0.0,0.0,0.0,0.0,0.0,0.0,0.0,0.0,0.0,0.0,0.0,0.0,0.0,0.0,0.0,0.0,0.0,0.0,0.0,0.0,0.0,0.0,0.0,0.0,0.0,0.0,0.0,0.0,0.0,0.0,0.0,0.0,0.0,0.0,0.0,0.0,0.0,0.0,0.0,0.0,0.0,0.0,0.0,0.0,0.0,0.0,0.0,0.0,0.0,0.0,0.0,0.0,0.0,0.0,0.0,0.0,0.0,0.0,0.0,0.0,0.0,0.0,0.0,0.0,0.0,0.0,0.0,0.0,0.0,0.0,0.0,0.0,0.0,0.0,0.0,0.0,0.0,0.0,0.0,0.0,0.0,0.0,0.0,0.0,0.0,0.0,0.0,0.0,0.0,0.0,0.0,0.0,0.0,0.0,0.0,0.0,0.0,0.0,0.0,0.0,0.0,0.0,0.0,0.0,0.0,0.0,0.0,0.0,-3.6996,-3.7071,-3.7838,-3.8469,-3.7002,0.0,0.0,0.0,0.0,0.0,0.0,0.0,0.0,0.0,0.0,0.0,0.0,0.0,0.0,0.0,0.0,0.0,0.0,0.0,0.0,0.0,0.0,0.0,0.0,0.0,0.0,0.0,0.0,0.0,0.0,0.0,0.0,0.0,0.0,0.0,0.0,0.0,0.0,0.0,0.0,0.0,0.0,0.0,0.0,0.0,0.0,0.0,0.0,0.0,0.0,0.0,0.0,0.0,0.0,0.0,0.0,0.0,0.0,0.0,0.0,0.0,0.0,0.0,0.0,0.0,0.0,0.0,0.0,0.0,0.0,0.0,0.0,0.0,0.0,0.0,0.0,0.0,0.0,0.0,0.0,0.0,0.0,0.0,0.0,0.0,0.0,0.0,0.0,0.0,0.0,0.0,0.0,0.0,0.0,0.0,0.0,0.0,0.0,0.0,0.0,0.0,0.0,0.0,0.0,0.0,0.0,0.0,0.0,0.0,-3.4686,-3.5999,-3.761,-3.9342,-3.7225,-3.5256,0.0,0.0,0.0,0.0,0.0,0.0,0.0,0.0,0.0,0.0,0.0,0.0,0.0,0.0,0.0,0.0,0.0,0.0,0.0,0.0,0.0,0.0,0.0,0.0,0.0,0.0,0.0,0.0,0.0,0.0,0.0,0.0,0.0,0.0,0.0,0.0,0.0,0.0,0.0,0.0,0.0,0.0,0.0,0.0,0.0,0.0,0.0,0.0,0.0,0.0,0.0,0.0,0.0,0.0,0.0,0.0,0.0,0.0,0.0,0.0,0.0,0.0,0.0,0.0,0.0,0.0,0.0,0.0,0.0,0.0,0.0,0.0,0.0,0.0,0.0,0.0,0.0,0.0,0.0,0.0,0.0,0.0,0.0,0.0,0.0,0.0,0.0,0.0,0.0,0.0,0.0,0.0,0.0,0.0,0.0,0.0,0.0,0.0,0.0,0.0,0.0,0.0,0.0,0.0,0.0,0.0,0.0,0.0,0.0,-3.4272,0.0,-3.8077,0.0,-3.6491,-3.4235,0.0,0.0,0.0,0.0,0.0,0.0,0.0,0.0,0.0,0.0,0.0,0.0,0.0,0.0,0.0,0.0,0.0,0.0,0.0,0.0,0.0,0.0,0.0,0.0,0.0,0.0,0.0,0.0,0.0,0.0,0.0,0.0,0.0,0.0,0.0,0.0,0.0,0.0,0.0,0.0,0.0,0.0,0.0,0.0,0.0,0.0,0.0,0.0,0.0,0.0,0.0,0.0,0.0,0.0,0.0,0.0,0.0,0.0,0.0,0.0,0.0,0.0,0.0,0.0,0.0,0.0,0.0,0.0,0.0,0.0,0.0,0.0,0.0,0.0,0.0,0.0,0.0,0.0,0.0,0.0,0.0,0.0,0.0,0.0,0.0,0.0,0.0,0.0,0.0,0.0,0.0,0.0,0.0,0.0,0.0,0.0,0.0,0.0,0.0,0.0,0.0,0.0,0.0,0.0,0.0,0.0,0.0,0.0,-3.3463,-3.6791,-3.8488,-3.8364,-3.6289,-3.6629,-3.4256,0.0,0.0,0.0,0.0,0.0,0.0,0.0,0.0,0.0,0.0,0.0,0.0,0.0,0.0,0.0,0.0,0.0,0.0,0.0,0.0,0.0,0.0,0.0,0.0,0.0,0.0,0.0,0.0,0.0,0.0,0.0,0.0,0.0,0.0,0.0,0.0,0.0,0.0,0.0,0.0,0.0,0.0,0.0,0.0,0.0,0.0,0.0,0.0,0.0,0.0,0.0,0.0,0.0,0.0,0.0,0.0,0.0,0.0,0.0,0.0,0.0,0.0,0.0,0.0,0.0,0.0,0.0,0.0,0.0,0.0,0.0,0.0,0.0,0.0,0.0,0.0,0.0,0.0,0.0,0.0,0.0,0.0,0.0,0.0,0.0,0.0,0.0,0.0,0.0,0.0,0.0,0.0,0.0,0.0,0.0,0.0,0.0,0.0,0.0,0.0,0.0,0.0,0.0,0.0,0.0,0.0,0.0,0.0,0.0,-3.5329,-3.6945,-3.7991,-3.8331,-3.5899,-3.3875,0.0,0.0,0.0,0.0,0.0,0.0,0.0,0.0,0.0,0.0,0.0,0.0,0.0,0.0,0.0,0.0,0.0,0.0,0.0,0.0,0.0,0.0,0.0,0.0,0.0,0.0,0.0,0.0,0.0,0.0,0.0,0.0,0.0,0.0,0.0,0.0,0.0,0.0,0.0,0.0,0.0,0.0,0.0,0.0,0.0,0.0,0.0,0.0,0.0,0.0,0.0,0.0,0.0,0.0,0.0,0.0,0.0,0.0,0.0,0.0,0.0,0.0,0.0,0.0,0.0,0.0,0.0,0.0,0.0,0.0,0.0,0.0,0.0,0.0,0.0,0.0,0.0,0.0,0.0,0.0,0.0,0.0,0.0,0.0,0.0,0.0,0.0,0.0,0.0,0.0,0.0,0.0,0.0,0.0,0.0,0.0,0.0,0.0,0.0,0.0,0.0,0.0,0.0,0.0,0.0,0.0,0.0,0.0,0.0,-3.5987,-3.7554,-3.8611,-3.9114,-3.6276,-3.4025,-3.2482,0.0,0.0,0.0,0.0,0.0,0.0,0.0,0.0,0.0,0.0,0.0,0.0,0.0,0.0,0.0,0.0,0.0,0.0,0.0,0.0,0.0,0.0,0.0,0.0,0.0,0.0,0.0,0.0,0.0,0.0,0.0,0.0,0.0,0.0,0.0,0.0,0.0,0.0,0.0,0.0,0.0,0.0,0.0,0.0,0.0,0.0,0.0,0.0,0.0,0.0,0.0,0.0,0.0,0.0,0.0,0.0,0.0,0.0,0.0,0.0,0.0,0.0,0.0,0.0,0.0,0.0,0.0,0.0,0.0,0.0,0.0,0.0,0.0,0.0,0.0,0.0,0.0,0.0,0.0,0.0,0.0,0.0,0.0,0.0,0.0,0.0,0.0,0.0,0.0,0.0,0.0,0.0,0.0,0.0,0.0,0.0,0.0,0.0,0.0,0.0,0.0,0.0,0.0,0.0,0.0,0.0,0.0,0.0,-3.8263,-3.9927,-4.0146,-3.8761,-3.7589,-3.4781,0.0,0.0,0.0,0.0,0.0,0.0,0.0,0.0,0.0,0.0,0.0,0.0,0.0,0.0,0.0,0.0,0.0,0.0,0.0,0.0,0.0,0.0,0.0,0.0,0.0,0.0,0.0,0.0,0.0,0.0,0.0,0.0,0.0,0.0,0.0,0.0,0.0,0.0,0.0,0.0,0.0,0.0,0.0,0.0,0.0,0.0,0.0,0.0,0.0,0.0,0.0,0.0,0.0,0.0,0.0,0.0,0.0,0.0,0.0,0.0,0.0,0.0,0.0,0.0,0.0,0.0,0.0,0.0,0.0,0.0,0.0,0.0,0.0,0.0,0.0,0.0,0.0,0.0,0.0,0.0,0.0,0.0,0.0,0.0,0.0,0.0,0.0,0.0,0.0,0.0,0.0,0.0,0.0,0.0,0.0,0.0,0.0,0.0,0.0,0.0,0.0,0.0,0.0,0.0,0.0,0.0,0.0,0.0,0.0,-3.8037,-4.0775,-4.1871,-4.0979,-3.8392,-3.6023,0.0,0.0,0.0,0.0,0.0,0.0,0.0,0.0,0.0,0.0,0.0,0.0,0.0,0.0,0.0,0.0,0.0,0.0,0.0,0.0,0.0,0.0,0.0,0.0,0.0,0.0,0.0,0.0,0.0,0.0,0.0,0.0,0.0,0.0,0.0,0.0,0.0,0.0,0.0,0.0,0.0,0.0,0.0,0.0,0.0,0.0,0.0,0.0,0.0,0.0,0.0,0.0,0.0,0.0,0.0,0.0,0.0,0.0,0.0,0.0,0.0,0.0,0.0,0.0,0.0,0.0,0.0,0.0,0.0,0.0,0.0,0.0,0.0,0.0,0.0,0.0,0.0,0.0,0.0,0.0,0.0,0.0,0.0,0.0,0.0,0.0,0.0,0.0,0.0,0.0,0.0,0.0,0.0,0.0,0.0,0.0,0.0,0.0,0.0,0.0,0.0,0.0,0.0,0.0,0.0,0.0,0.0,0.0,-3.7123,-3.8359,-4.126,-4.2478,-4.1777,-3.9922,-3.7796,0.0,0.0,0.0,0.0,0.0,0.0,0.0,0.0,0.0,0.0,0.0,0.0,0.0,0.0,0.0,0.0,0.0,0.0,0.0,0.0,0.0,0.0,0.0,0.0,0.0,0.0,0.0,0.0,0.0,0.0,0.0,0.0,0.0,0.0,0.0,0.0,0.0,0.0,0.0,0.0,0.0,0.0,0.0,0.0,0.0,0.0,0.0,0.0,0.0,0.0,0.0,0.0,0.0,0.0,0.0,0.0,0.0,0.0,0.0,0.0,0.0,0.0,0.0,0.0,0.0,0.0,0.0,0.0,0.0,0.0,0.0,0.0,0.0,0.0,0.0,0.0,0.0,0.0,0.0,0.0,0.0,0.0,0.0,0.0,0.0,0.0,0.0,0.0,0.0,0.0,0.0,0.0,0.0,0.0,0.0,0.0,0.0,0.0,0.0,0.0,0.0,0.0,0.0,0.0,0.0,0.0,0.0,0.0,-3.7364,-3.8738,-4.1308,-4.2299,-4.1612,-4.1423,-3.9519,0.0,0.0,0.0,0.0,0.0,0.0,0.0,0.0,0.0,0.0,0.0,0.0,0.0,0.0,0.0,0.0,0.0,0.0,0.0,0.0,0.0,0.0,0.0,0.0,0.0,0.0,0.0,0.0,0.0,0.0,0.0,0.0,0.0,0.0,0.0,0.0,0.0,0.0,0.0,0.0,0.0,0.0,0.0,0.0,0.0,0.0,0.0,0.0,0.0,0.0,0.0,0.0,0.0,0.0,0.0,0.0,0.0,0.0,0.0,0.0,0.0,0.0,0.0,0.0,0.0,0.0,0.0,0.0,0.0,0.0,0.0,0.0,0.0,0.0,0.0,0.0,0.0,0.0,0.0,0.0,0.0,0.0,0.0,0.0,0.0,0.0,0.0,0.0,0.0,0.0,0.0,0.0,0.0,0.0,0.0,0.0,0.0,0.0,0.0,0.0,0.0,0.0,0.0,0.0,0.0,0.0,0.0,0.0,-3.7275,-3.7096,-4.0082,-4.1644,-4.1504,-4.0298,-3.8563,0.0,0.0,0.0,0.0,0.0,0.0,0.0,0.0,0.0,0.0,0.0,0.0,0.0,0.0,0.0,0.0,0.0,0.0,0.0,0.0,0.0,0.0,0.0,0.0,0.0,0.0,0.0,0.0,0.0,0.0,0.0,0.0,0.0,0.0,0.0,0.0,0.0,0.0,0.0,0.0,0.0,0.0,0.0,0.0,0.0,0.0,0.0,0.0,-3.0282,0.0,0.0,0.0,0.0,0.0,0.0,0.0,0.0,0.0,0.0,0.0,0.0,0.0,0.0,0.0,0.0,0.0,0.0,0.0,0.0,0.0,0.0,0.0,0.0,0.0,0.0,0.0,0.0,0.0,0.0,0.0,0.0,0.0,0.0,0.0,0.0,0.0,0.0,0.0,0.0,0.0,0.0,0.0,0.0,0.0,0.0,0.0,0.0,0.0,0.0,0.0,0.0,0.0,0.0,0.0,0.0,0.0,0.0,0.0,-3.7247,-3.7616,-3.9671,-4.0806,-4.0781,-3.9659,-3.84,0.0,0.0,0.0,0.0,0.0,0.0,0.0,0.0,0.0,0.0,0.0,0.0,0.0,0.0,0.0,0.0,0.0,0.0,0.0,0.0,0.0,0.0,0.0,0.0,0.0,0.0,0.0,0.0,0.0,0.0,0.0,0.0,0.0,0.0,0.0,0.0,0.0,0.0,0.0,0.0,0.0,0.0,0.0,0.0,0.0,0.0,0.0,0.0,0.0,0.0,0.0,0.0,0.0,0.0,0.0,0.0,0.0,0.0,0.0,0.0,0.0,0.0,0.0,0.0,0.0,0.0,0.0,0.0,0.0,0.0,0.0,0.0,0.0,0.0,0.0,0.0,0.0,0.0,0.0,0.0,0.0,0.0,0.0,0.0,0.0,0.0,0.0,0.0,0.0,0.0,0.0,0.0,0.0,0.0,0.0,0.0,0.0,0.0,0.0,0.0,0.0,0.0,0.0,0.0,0.0,0.0,0.0,-3.4607,-3.6901,-3.8552,-3.9441,-3.9877,-3.9892,-3.9246,-3.8323,-3.7133,0.0,0.0,0.0,0.0,0.0,0.0,0.0,0.0,0.0,0.0,0.0,0.0,0.0,0.0,0.0,0.0,0.0,0.0,0.0,0.0,0.0,0.0,0.0,0.0,0.0,0.0,0.0,0.0,0.0,0.0,0.0,0.0,0.0,0.0,0.0,0.0,0.0,0.0,-2.9713,-3.1714,0.0,0.0,0.0,0.0,0.0,0.0,0.0,0.0,-3.2576,0.0,0.0,0.0,0.0,0.0,0.0,0.0,0.0,0.0,0.0,0.0,0.0,0.0,0.0,0.0,0.0,0.0,0.0,0.0,0.0,0.0,0.0,0.0,0.0,0.0,0.0,0.0,0.0,0.0,0.0,0.0,0.0,0.0,0.0,0.0,0.0,0.0,0.0,0.0,0.0,0.0,0.0,0.0,0.0,0.0,0.0,0.0,0.0,0.0,0.0,0.0,0.0,0.0,0.0,0.0,0.0,-3.333,-3.3962,-3.5372,-3.7654,-3.8499,-3.8949,-3.9006,-3.8877,-3.7491,-3.4729,0.0,0.0,0.0,0.0,0.0,0.0,0.0,0.0,0.0,0.0,0.0,0.0,0.0,0.0,0.0,0.0,0.0,0.0,0.0,0.0,0.0,0.0,0.0,0.0,0.0,0.0,0.0,0.0,0.0,0.0,0.0,0.0,0.0,0.0,0.0,0.0,0.0,0.0,0.0,-3.2852,-3.3906,0.0,0.0,0.0,0.0,0.0,0.0,0.0,0.0,-3.3352,0.0,0.0,0.0,0.0,0.0,0.0,0.0,0.0,0.0,0.0,0.0,0.0,0.0,0.0,0.0,0.0,0.0,0.0,0.0,0.0,0.0,0.0,0.0,0.0,0.0,0.0,0.0,0.0,0.0,0.0,0.0,0.0,0.0,0.0,0.0,0.0,0.0,0.0,0.0,0.0,0.0,0.0,0.0,0.0,0.0,0.0,0.0,0.0,0.0,0.0,0.0,0.0,0.0,0.0,0.0,-3.2506,-3.4265,-3.5905,-3.7456,-3.7908,-3.8125,-3.8103,-3.7298,-3.551,0.0,0.0,0.0,0.0,0.0,0.0,0.0,0.0,0.0,0.0,0.0,0.0,0.0,0.0,0.0,0.0,0.0,0.0,0.0,0.0,0.0,0.0,0.0,0.0,0.0,0.0,0.0,0.0,0.0,0.0,0.0,0.0,0.0,0.0,0.0,0.0,0.0,0.0,0.0,0.0,-3.3697,-3.4821,-3.52,0.0,0.0,0.0,0.0,0.0,0.0,-3.3766,-3.3766,0.0,0.0,0.0,0.0,0.0,0.0,0.0,0.0,0.0,0.0,0.0,0.0,0.0,0.0,0.0,0.0,0.0,0.0,0.0,0.0,0.0,0.0,0.0,0.0,0.0,0.0,0.0,0.0,0.0,0.0,0.0,0.0,0.0,0.0,0.0,0.0,0.0,0.0,0.0,0.0,0.0,0.0,0.0,0.0,0.0,0.0,0.0,0.0,0.0,0.0,0.0,0.0,0.0,0.0,0.0,-3.152,-3.411,-3.6122,-3.7459,-3.7429,-3.7356,-3.7279,-3.5803,-3.3894,0.0,0.0,0.0,0.0,0.0,0.0,0.0,0.0,0.0,0.0,0.0,0.0,0.0,0.0,0.0,0.0,0.0,0.0,0.0,0.0,0.0,0.0,0.0,0.0,0.0,0.0,0.0,0.0,0.0,0.0,0.0,0.0,0.0,0.0,0.0,0.0,0.0,0.0,0.0,0.0,0.0,-3.5801,-3.6232,-3.5163,0.0,0.0,0.0,0.0,-3.4628,-3.4803,0.0,0.0,0.0,0.0,0.0,0.0,0.0,0.0,0.0,0.0,0.0,0.0,0.0,0.0,0.0,0.0,0.0,0.0,0.0,0.0,0.0,0.0,0.0,0.0,0.0,0.0,0.0,0.0,0.0,0.0,0.0,0.0,0.0,0.0,0.0,0.0,0.0,0.0,0.0,0.0,0.0,0.0,0.0,0.0,0.0,0.0,0.0,0.0,0.0,0.0,0.0,0.0,0.0,0.0,0.0,0.0,-3.1401,-3.1961,-3.3967,-3.7423,-3.6994,-3.6611,-3.6597,-3.5625,-3.3987,0.0,0.0,0.0,0.0,0.0,0.0,0.0,0.0,0.0,0.0,0.0,0.0,0.0,0.0,0.0,0.0,0.0,0.0,0.0,0.0,0.0,0.0,0.0,0.0,0.0,0.0,0.0,0.0,0.0,0.0,0.0,0.0,0.0,0.0,0.0,0.0,0.0,0.0,0.0,0.0,0.0,-3.7012,-3.6387,-3.5594,-3.5301,0.0,0.0,-3.5439,-3.6891,-3.7116,0.0,0.0,0.0,0.0,0.0,0.0,0.0,0.0,0.0,0.0,0.0,0.0,0.0,0.0,0.0,0.0,0.0,0.0,0.0,0.0,0.0,0.0,0.0,0.0,0.0,0.0,0.0,0.0,0.0,0.0,0.0,0.0,0.0,0.0,0.0,0.0,0.0,0.0,0.0,0.0,0.0,0.0,0.0,0.0,0.0,0.0,0.0,0.0,0.0,0.0,0.0,0.0,0.0,0.0,0.0,-2.7424,-3.0875,-3.231,-3.4079,-3.6219,-3.6033,-3.5866,-3.5813,-3.407,-3.2183,0.0,0.0,0.0,0.0,0.0,0.0,0.0,0.0,0.0,0.0,0.0,0.0,0.0,0.0,0.0,0.0,0.0,0.0,0.0,0.0,0.0,0.0,0.0,0.0,0.0,0.0,0.0,0.0,0.0,0.0,0.0,0.0,0.0,0.0,0.0,0.0,0.0,0.0,0.0,0.0,0.0,0.0,-3.7525,-3.6956,0.0,0.0,0.0,-3.7215,-3.7478,0.0,0.0,0.0,0.0,0.0,0.0,0.0,0.0,0.0,0.0,0.0,0.0,0.0,0.0,0.0,0.0,0.0,0.0,0.0,0.0,0.0,0.0,0.0,0.0,0.0,0.0,0.0,0.0,0.0,0.0,0.0,0.0,0.0,0.0,0.0,0.0,0.0,0.0,0.0,0.0,0.0,0.0,0.0,0.0,0.0,0.0,0.0,0.0,0.0,0.0,0.0,0.0,0.0,0.0,0.0,0.0,0.0,-3.0487,-3.2511,-3.4117,-3.5288,-3.5173,-3.5062,-3.4992,-3.2822,0.0,0.0,0.0,0.0,0.0,0.0,0.0,0.0,0.0,0.0,0.0,0.0,0.0,0.0,0.0,0.0,0.0,0.0,0.0,0.0,0.0,0.0,0.0,0.0,0.0,0.0,0.0,-2.1133,0.0,0.0,0.0,0.0,0.0,0.0,0.0,0.0,0.0,0.0,0.0,0.0,0.0,0.0,-3.7284,-3.8439,-3.8267,-3.8323,0.0,0.0,-3.841,-3.7875,-3.841,-3.8025,0.0,0.0,0.0,0.0,0.0,0.0,0.0,0.0,0.0,0.0,0.0,0.0,0.0,0.0,0.0,0.0,0.0,0.0,0.0,0.0,0.0,0.0,0.0,0.0,0.0,0.0,0.0,0.0,0.0,0.0,0.0,0.0,0.0,0.0,0.0,0.0,0.0,0.0,0.0,0.0,0.0,0.0,0.0,0.0,0.0,0.0,0.0,0.0,0.0,0.0,0.0,0.0,0.0,0.0,0.0,-3.0463,-3.1485,-3.312,-3.5336,-3.4699,-3.4278,-3.4241,-3.2604,-3.1261,0.0,0.0,0.0,0.0,0.0,0.0,0.0,0.0,0.0,0.0,0.0,0.0,0.0,0.0,0.0,0.0,0.0,0.0,0.0,0.0,0.0,0.0,0.0,0.0,0.0,0.0,0.0,0.0,0.0,0.0,0.0,0.0,0.0,0.0,0.0,0.0,0.0,0.0,0.0,0.0,0.0,-3.8479,-3.8577,-3.9129,-3.9819,0.0,0.0,-3.8577,-3.8525,-3.9129,-3.8629,-3.5663,0.0,0.0,0.0,0.0,0.0,0.0,0.0,0.0,0.0,0.0,0.0,0.0,0.0,0.0,0.0,0.0,0.0,0.0,0.0,0.0,0.0,0.0,0.0,0.0,0.0,0.0,0.0,0.0,0.0,0.0,0.0,0.0,0.0,0.0,0.0,0.0,0.0,0.0,0.0,0.0,0.0,0.0,0.0,0.0,0.0,0.0,0.0,0.0,0.0,0.0,0.0,0.0,0.0,-2.6265,-2.9805,-3.1125,-3.273,-3.4599,-3.4376,-3.3956,-3.3454,-3.2365,-3.0884,0.0,0.0,0.0,0.0,0.0,0.0,0.0,0.0,0.0,0.0,0.0,0.0,0.0,0.0,0.0,0.0,0.0,0.0,0.0,0.0,0.0,0.0,0.0,0.0,0.0,0.0,0.0,0.0,-2.5007,-2.6153,-2.7474,0.0,0.0,0.0,0.0,0.0,0.0,0.0,0.0,0.0,0.0,-3.8254,-3.9146,-3.9508,0.0,0.0,-4.0394,-4.0032,-4.0032,-3.9439,-3.8301,-3.6215,-3.3852,0.0,0.0,0.0,0.0,0.0,0.0,0.0,0.0,0.0,0.0,0.0,0.0,0.0,0.0,0.0,0.0,0.0,0.0,0.0,0.0,0.0,0.0,0.0,0.0,0.0,0.0,0.0,0.0,0.0,0.0,0.0,0.0,0.0,0.0,0.0,0.0,0.0,0.0,0.0,0.0,0.0,0.0,0.0,0.0,0.0,0.0,0.0,0.0,0.0,0.0,0.0,0.0,-2.6349,-2.937,-3.0995,-3.2462,-3.3838,-3.3844,-3.3454,-3.2667,-3.1868,-3.0508,0.0,0.0,0.0,0.0,0.0,0.0,0.0,0.0,0.0,0.0,0.0,0.0,0.0,0.0,0.0,0.0,0.0,0.0,0.0,0.0,0.0,0.0,0.0,0.0,0.0,0.0,0.0,0.0,-2.629,-2.7053,-2.7962,0.0,0.0,0.0,0.0,0.0,0.0,0.0,0.0,0.0,0.0,-3.8612,-3.9894,-4.0043,-4.0319,-4.1119,-4.0653,-4.0221,-4.0204,-3.9089,-3.7671,-3.6172,0.0,0.0,0.0,0.0,0.0,0.0,0.0,0.0,0.0,0.0,0.0,0.0,0.0,0.0,0.0,0.0,0.0,0.0,0.0,0.0,0.0,0.0,0.0,0.0,0.0,0.0,0.0,-3.0404,0.0,0.0,-2.7218,0.0,0.0,0.0,0.0,0.0,0.0,0.0,0.0,0.0,0.0,0.0,0.0,0.0,0.0,0.0,0.0,0.0,0.0,0.0,0.0,0.0,0.0,-2.6897,-2.9378,-3.0976,-3.2184,-3.3008,-3.3039,-3.2648,-3.1849,-3.105,-3.0182,-2.9228,0.0,0.0,0.0,0.0,0.0,0.0,0.0,0.0,0.0,0.0,0.0,0.0,0.0,0.0,0.0,0.0,0.0,0.0,0.0,0.0,0.0,0.0,0.0,0.0,0.0,0.0,-2.6024,-2.6504,-2.6571,0.0,0.0,0.0,0.0,0.0,0.0,0.0,0.0,0.0,0.0,-3.7415,-3.9922,-4.0705,-4.0843,-4.1043,-4.1802,-4.0095,-3.8681,-3.8715,-3.792,-3.6805,0.0,0.0,0.0,0.0,0.0,0.0,0.0,0.0,0.0,0.0,0.0,0.0,0.0,0.0,0.0,0.0,0.0,0.0,0.0,0.0,0.0,0.0,0.0,0.0,0.0,0.0,0.0,-3.1227,-3.0567,0.0,0.0,0.0,0.0,0.0,0.0,0.0,0.0,0.0,0.0,0.0,-3.3484,-3.4265,0.0,0.0,0.0,0.0,0.0,0.0,0.0,0.0,0.0,0.0,0.0,0.0,-2.7185,-3.0076,-3.0734,-3.1645,-3.2946,-3.2481,-3.1812,-3.1032,-3.0753,-2.9612,-2.7551,0.0,0.0,0.0,0.0,0.0,0.0,0.0,0.0,0.0,0.0,0.0,0.0,0.0,0.0,0.0,0.0,0.0,0.0,0.0,0.0,0.0,0.0,0.0,0.0,0.0,-2.5179,0.0,0.0,0.0,0.0,0.0,0.0,0.0,0.0,0.0,0.0,0.0,-3.4007,-3.4288,-3.6944,-3.8946,-3.9221,-3.9615,-4.0151,0.0,0.0,0.0,0.0,0.0,0.0,0.0,0.0,0.0,0.0,0.0,0.0,0.0,0.0,-3.5299,-3.2951,-3.2541,-3.2628,-3.2886,0.0,0.0,0.0,0.0,0.0,0.0,0.0,0.0,0.0,0.0,0.0,0.0,0.0,0.0,-3.3701,0.0,-3.1848,0.0,0.0,0.0,0.0,0.0,0.0,0.0,0.0,-3.4259,-3.5398,-3.5937,-3.6742,-3.5863,0.0,-3.3763,-3.1942,0.0,0.0,0.0,0.0,0.0,0.0,0.0,0.0,-2.7743,-3.0065,-3.0456,-3.1106,-3.2091,-3.1645,-3.0995,-3.0214,-3.0177,-2.9196,-2.7185,-2.6351,-2.5201,0.0,0.0,0.0,0.0,0.0,0.0,0.0,0.0,0.0,0.0,0.0,0.0,0.0,0.0,0.0,0.0,0.0,0.0,0.0,0.0,0.0,0.0,0.0,-2.5765,0.0,0.0,0.0,0.0,0.0,0.0,0.0,0.0,0.0,-3.1103,-3.3472,-3.5043,-3.4585,-3.6994,-3.8768,-3.8566,0.0,0.0,0.0,0.0,0.0,0.0,0.0,-3.6893,-3.745,-3.6626,-3.6043,-3.6564,-3.7473,-3.7922,-3.7217,0.0,0.0,-3.5307,-3.4954,-3.5229,-3.5469,-3.6024,-3.6388,-3.6165,-3.704,-3.7399,0.0,0.0,0.0,0.0,0.0,0.0,0.0,0.0,-3.6566,-3.6677,0.0,-3.4325,0.0,0.0,0.0,0.0,0.0,-3.2362,0.0,0.0,-3.7372,-3.8228,-3.6904,-3.7578,-3.7503,-3.6718,-3.59,-3.4618,-3.2841,-2.9805,0.0,0.0,0.0,0.0,0.0,0.0,-2.8542,-2.9463,-3.0177,-3.0567,-3.0623,-3.0586,-3.0206,-2.9444,-2.9407,-2.9006,-2.8169,-2.7636,-2.6352,-2.4133,-2.3435,0.0,0.0,0.0,0.0,0.0,0.0,0.0,0.0,0.0,0.0,0.0,0.0,0.0,0.0,0.0,0.0,0.0,0.0,0.0,0.0,-2.4871,0.0,0.0,0.0,0.0,0.0,0.0,0.0,0.0,0.0,0.0,-3.1583,-3.4471,-3.6272,-3.5182,0.0,0.0,0.0,0.0,-3.7957,-4.0323,-3.871,-3.7695,-3.917,-3.8615,-3.7993,-3.8027,0.0,0.0,-3.6163,-3.7086,-3.7846,-3.7263,-3.9378,-4.0785,-3.848,-3.7615,-3.7462,-3.7963,-3.7581,-3.7439,-3.8019,-3.8508,-3.8632,-4.0157,0.0,0.0,0.0,0.0,-3.8501,-3.9583,-4.0741,-4.0858,-4.0081,-3.8682,-3.7116,0.0,0.0,0.0,0.0,0.0,0.0,-3.5903,-3.5946,-3.7514,-3.8316,-3.8414,-3.8637,-3.8339,-3.7541,-3.6755,-3.551,-3.3826,-3.2332,-3.0307,-2.7798,0.0,0.0,0.0,0.0,-2.882,-3.014,-2.9917,-3.001,-3.0586,-3.0047,-2.9619,-2.9407,-2.9388,-2.9277,-2.9025,-2.815,-2.7372,-2.6698,-2.4751,0.0,0.0,0.0,0.0,0.0,0.0,0.0,0.0,0.0,0.0,0.0,0.0,0.0,0.0,0.0,0.0,0.0,0.0,0.0,-2.4665,-2.5325,-2.5698,0.0,0.0,0.0,0.0,0.0,0.0,0.0,0.0,0.0,-3.2625,-3.4726,-3.6171,0.0,0.0,-3.7263,-3.8224,-3.7715,-3.7973,-3.9983,-3.9236,0.0,-3.918,-3.8506,-3.8129,-3.8751,-3.9197,-3.9157,-3.8241,-3.8427,-3.8485,-3.778,-3.8374,-3.8713,-3.8296,-3.9323,-3.9717,-3.8716,-3.847,-3.8448,-3.8216,-3.8241,-3.818,-4.2925,-4.0863,-3.9699,-3.9075,-3.8929,-3.9658,-4.0446,-4.1288,-4.1754,-4.1249,-4.003,-3.8878,-3.7029,-3.4689,-3.358,0.0,0.0,0.0,-3.7182,-3.7219,-3.7986,-3.8469,-3.8618,-3.8637,-3.8191,-3.7392,-3.6606,-3.5714,-3.4699,-3.3863,-3.2321,-3.0103,0.0,0.0,-2.9099,-2.9099,-2.9415,-3.0076,-2.9657,-2.9649,-3.0103,-2.9667,-2.9388,-2.9388,-2.9388,-2.9388,-2.9378,-2.8695,-2.8132,-2.7783,-2.5903,-2.4422,0.0,0.0,0.0,0.0,0.0,0.0,0.0,0.0,0.0,0.0,0.0,-2.0186,-1.9171,0.0,0.0,0.0,-2.1005,-2.2826,-2.5242,-2.5609,0.0,0.0,0.0,0.0,0.0,0.0,0.0,-3.3236,-3.4057,-3.4056,-3.288,-3.4069,-3.4977,-3.4816,-3.5078,-3.5571,-3.6285,0.0,-3.6754,-3.8505,-3.8538,-3.8529,-3.8957,-3.869,-3.8555,-3.9044,-3.941,-3.9259,-3.8335,-3.8565,-3.8717,-3.8176,-3.8379,-3.8599,-3.8062,-3.9397,-4.0116,-3.8559,-3.8465,-3.8499,-3.8092,-3.8173,-3.8193,-4.4927,-4.3809,-4.1246,-4.0072,-3.995,-4.0416,-4.0579,-4.049,-4.0508,-4.088,-4.1367,-3.9881,-3.8748,-3.7894,-3.6445,0.0,-3.5863,-3.7331,-3.7968,-3.7912,-3.8674,-3.8581,-3.7801,-3.7814,-3.7424,-3.6686,-3.5882,-3.5491,-3.5454,-3.4618,-3.377,-3.3001,-3.2258,-3.1459,-3.066,-3.053,-3.014,-2.9425,-2.9407,-2.9388,-2.9407,-2.9388,-2.9388,-2.9388,-2.9388,-2.9359,-2.9285,-2.9056,-2.8559,-2.775,-2.6742,-2.5391,-2.3701,0.0,0.0,0.0,0.0,0.0,0.0,0.0,0.0,0.0,0.0,0.0,0.0,0.0,0.0,0.0,-2.1999,0.0,-2.4567,-2.5907,0.0,0.0,0.0,-2.9691,-3.0366,-3.1871,-3.282,-3.2773,0.0,0.0,-3.2465,-3.274,-3.3082,-3.2966,-3.3673,-3.4137,-3.3827,-3.4159,-3.4815,-3.6467,-3.7055,-3.7633,-3.8368,-3.8758,-3.8975,-3.8959,-3.8939,-3.8422,-3.7266,-3.7736,-3.8345,-3.7736,-3.8794,-3.9249,-3.7929,-3.8136,-3.8413,-3.755,-3.7669,-3.7787,-3.7652,-3.8058,-3.8058,-4.3566,-4.3269,-4.2267,-4.1742,-4.1587,-4.1512,-4.1465,-4.1394,-4.1394,-4.1142,-4.0643,-4.0285,-3.9602,-3.8785,-3.8414,-3.8247,-3.8265,-3.8637,-3.8488,-3.7912,-3.8098,-3.7758,-3.7002,-3.6983,-3.6904,-3.6662,-3.5882,-3.5491,-3.5454,-3.4637,-3.3788,-3.3039,-3.2816,-3.1998,-3.0641,-2.9991,-2.9601,-2.9388,-2.9388,-2.9388,-2.9388,-2.9388,-2.9388,-2.9388,-2.9388,-2.9081,-2.8449,-2.8343,-2.7941,-2.7136,-2.6281,-2.5476,-2.4661,-2.258,0.0,0.0,0.0,0.0,0.0,0.0,0.0,0.0,0.0,-2.2856,-2.0572,0.0,-2.3757,0.0,-2.3861,-2.4919,-2.6358,-2.7033,0.0,0.0,-3.0283,-3.1135,-3.1039,-3.2294,-3.2784,-3.172,-3.2437,-3.2655,-3.1586,-3.1618,-3.1688,-3.1662,-3.174,-3.2488,-3.417,-3.4152,-3.4334,-3.5459,-3.6241,-3.6737,-3.6938,-3.7778,-3.8467,-3.8591,-3.8354,-3.7879,-3.7078,-3.6632,-3.6326,-3.6174,-3.6394,-3.6299,-3.5543,-3.5475,-3.5301,-3.4776,-3.5825,-3.6857,-3.6315,-3.6309,-3.6163,-4.3415,-4.3063,-4.2689,-4.221,-4.1697,-4.1317,-4.0943,-4.0528,-4.0175,-3.9923,-3.9825,-3.9839,-3.9547,-3.9101,-3.9101,-3.9101,-3.9082,-3.8729,-3.8321,-3.7875,-3.7541,-3.6928,-3.6179,-3.6179,-3.5974,-3.5553,-3.4785,-3.4395,-3.4339,-3.354,-3.2908,-3.2462,-3.2109,-3.1496,-3.0623,-3.0158,-2.9768,-2.9407,-2.9388,-2.9388,-2.9388,-2.9388,-2.9221,-2.8839,-2.9202,-2.882,-2.7631,-2.83,-2.8133,-2.6962,-2.6479,-2.6019,-2.5524,-2.3627,-2.2491,0.0,0.0,0.0,0.0,0.0,0.0,0.0,0.0,0.0,0.0,0.0,-2.5792,-2.6014,-2.6428,-2.7255,-2.8571,-2.9016,-2.94,-2.9879,-3.0879,-3.1325,-3.0821,-3.1997,-3.2408,-3.1349,-3.1864,-3.1912,-3.0907,-3.0765,-3.0622,-3.0314,-3.0139,-3.0695,-3.2249,-3.251,-3.2797,-3.3781,-3.4733,-3.5492,-3.5803,-3.654,-3.7144,-3.7438,-3.7334,-3.6962,-3.6295,-3.5754,-3.5326,-3.497,-3.4638,-3.433,-3.3898,-3.3555,-3.3306,-3.3354,-3.4074,-3.4779,-3.4665,-3.4602,-3.4489,-4.3239,-4.2588,-4.2201,-4.1491,-4.0623,-4.0175,-3.957,-3.8878,-3.8111,-3.8135,-3.8804,-3.8785,-3.8785,-3.8804,-3.8785,-3.8785,-3.8767,-3.8093,-3.7689,-3.7559,-3.6872,-3.6123,-3.5324,-3.5219,-3.4785,-3.403,-3.3231,-3.2853,-3.2823,-3.2147,-3.1756,-3.1626,-3.0939,-3.0549,-3.0456,-3.0448,-3.0103,-2.9407,-2.9388,-2.9388,-2.9388,-2.9388,-2.9025,-2.8337,-2.8876,-2.8505,-2.7046,-2.83,-2.8374,-2.6879,-2.6832,-2.6692,-2.6202,-2.4784,-2.404,0.0,-2.3528,0.0,0.0,0.0,0.0,0.0,0.0,0.0,0.0,-2.72,-2.8152,-2.9063,-2.9119,-2.9496,-3.0551,-3.0879,-3.086,-3.0275,-3.0891,-3.1049,-3.0378,-3.1358,-3.1823,-3.1009,-3.1492,-3.139,-3.0267,-3.0077,-2.9801,-2.9304,-2.9116,-2.9328,-2.9847,-3.0465,-3.1099,-3.1746,-3.2837,-3.3921,-3.477,-3.5233,-3.5543,-3.5814,-3.6042,-3.5847,-3.4988,-3.4855,-3.4653,-3.3996,-3.3389,-3.2901,-3.2748,-3.2252,-3.203,-3.2299,-3.2387,-3.2646,-3.3313,-3.3541,-3.3372,-4.015,-3.9942,-3.8986,-3.844,-3.8233,-3.7815,-3.7829,-3.8061,-3.7275,-3.7015,-3.7151,-3.7145,-3.7164,-3.7164,-3.7164,-3.7151,-3.7151,-3.7002,-3.6588,-3.5956,-3.5807,-3.5256,-3.4439,-3.377,-3.3373,-3.3175,-3.2407,-3.2035,-3.2017,-3.1868,-3.1459,-3.0846,-3.0679,-3.0288,-2.9667,0.0,0.0,0.0,-2.9388,-2.9388,-2.9388,-2.9388,-2.9332,-2.9165,-2.8635,0.0,-2.6962,-2.7204,-2.6925,-2.6015,-2.6535,0.0,0.0,0.0,0.0,0.0,0.0,0.0,0.0,0.0,0.0,0.0,-2.7791,-2.7481,-2.7161,-2.9108,-3.0552,-3.0941,-3.0691,-3.0458,-3.0299,-3.0347,-3.0322,-3.0283,-3.1327,-3.1596,-3.0425,-3.0923,-3.0914,-2.9667,-2.9635,-2.9635,-2.9414,-2.9304,-2.9272,-2.9122,-2.899,-2.9014,-2.9241,-2.9792,-3.0199,-3.045,-3.1431,-3.2315,-3.3092,-3.3904,-3.4119,-3.3786,-3.4542,-3.4736,-3.3798,-3.3437,-3.3404,-3.3137,-3.2643,-3.1945,-3.1403,-3.119,-3.0988,-3.0943,-3.063,-3.0975,-3.2951,-3.3389,-3.322,-3.9304,0.0,-3.8665,-3.8363,0.0,-3.7038,-3.6663,-3.6839,-3.6323,-3.6105,-3.6129,-3.6532,-3.6718,-3.6718,-3.6718,-3.6718,-3.6668,-3.629,-3.5882,-3.5473,-3.4637,-3.4042,-3.3584,-3.2767,-3.2407,-3.237,-3.1589,-3.1199,-3.118,-3.0809,-3.04,-2.9991,-3.001,-2.9805,-2.9396,-2.9388,-2.9388,-2.9388,-2.9388,-2.9388,-2.9388,-2.9388,-2.9192,-2.8783,-2.8765,0.0,0.0,0.0,0.0,0.0,0.0,0.0,0.0,0.0,0.0,-2.713,-2.6745,-2.6793,-2.7454,-2.7478,-2.8078,-2.9453,-2.992,-2.9817,-2.9041,-3.0481,-3.1447,-3.1508,-3.1298,-3.106,-3.0735,-3.0686,-3.0583,-3.0299,-3.0837,-3.0837,-2.9896,-2.9959,-2.9872,-2.9288,-2.9114,-2.9114,-2.9114,-2.9114,-2.9114,-2.9114,-2.9052,-2.9029,-2.9091,-2.9305,-2.954,-2.9859,-3.0559,-3.1197,-3.1542,-3.1953,-3.2273,-3.1818,-3.2248,-3.2462,-3.192,-3.1756,-3.1722,-3.1643,-3.0908,-3.0077,-2.9761,-2.9428,-2.9207,-2.9318,-2.9398,-2.9939,-3.162,-3.1964,-3.1963,-3.8834,-3.8834,-3.8681,-3.8489,-3.8178,-3.6615,-3.5795,-3.5574,0.0,0.0,0.0,-3.5974,-3.6253,-3.624,-3.6272,-3.6272,-3.6203,-3.5584,-3.5194,-3.5008,-3.3652,-3.2927,-3.276,-3.1961,-3.1589,-3.1552,-3.0772,-3.0392,-3.0363,-2.9723,-2.9388,-2.9388,-2.9388,-2.9388,-2.9388,-2.9388,-2.9388,-2.9388,-2.9388,-2.9388,-2.9388,-2.9388,-2.9043,-2.8317,-2.8876,-2.8523,-2.7185,-2.843,-2.8503,-2.7164,-2.7961,-2.8522,-2.8631,-2.876,-2.9211,-3.0013,-3.009,-2.9974,-2.9827,-2.9916,-3.0248,-3.0852,-3.1455,-3.1593,-3.1093,-3.1645,-3.1942,-3.1819,-3.162,-3.1405,-3.1174,-3.0916,-3.0598,-3.0054,-2.999,-2.9753,-2.9209,-2.9114,-2.9161,-2.9114,-2.9114,-2.9114,-2.9114,-2.9114,-2.9114,-2.9114,-2.9114,-2.9114,-2.9091,-2.9021,-2.9187,-2.9715,-3.0058,-3.0165,-3.0115,-3.0258,-3.0125,-2.9904,-3.0197,-3.0371,-3.0248,-3.0217,-3.0171,-3.0089,-2.9027,-2.8367,-2.8066,-2.769,-2.7418,-2.7829,-2.8293,-2.8876,-2.9747,-2.9935,-3.0179,-3.7065,-3.7,-3.6327,-3.6005,-3.5957,-3.5509,-3.5126,-3.476,-3.4503,-3.4364,-3.4401,-3.4494,-3.455,-3.4562,-3.455,-3.4531,-3.455,-3.4439,-3.4011,-3.3373,-3.3113,-3.263,-3.1942,-3.1162,-3.0753,-3.0697,-2.9965,-2.9574,-2.9556,-2.9463,-2.9388,-2.9388,-2.9388,-2.9388,-2.9388,-2.9388,-2.9388,-2.9388,-2.9388,-2.9388,-2.9388,-2.9388,-2.931,-2.9119,-2.8586,-2.8177,-2.7886,-2.8159,-2.8061,-2.7658,-2.9003,-2.9624,-2.9239,-2.9808,-3.0181,-3.0087,-2.9973,-2.9874,-2.9828,-3.0334,-3.0941,-3.1577,-3.1731,-3.2007,-3.2541,-3.2679,-3.2828,-3.2967,-3.2067,-3.1375,-3.0884,-2.9996,-2.9446,-2.9304,-2.9272,-2.9209,-2.9114,-2.9114,-2.9114,-2.9114,-2.9114,-2.9114,-2.9114,-2.9114,-2.9114,-2.9114,-2.9114,-2.9114,-2.9091,-2.899,-2.9171,-2.9543,-2.9259,-2.8905,-2.8759,-2.9196,-2.8996,-2.798,-2.9233,-2.991,-2.9433,-2.9381,-2.9187,-2.8781,-2.7996,-2.7349,-2.6826,-2.6611,-2.6705,-2.707,-2.7051,-2.7212,-2.8142,-2.8068,-2.8463,-3.6058,-3.6,-3.5654,-3.55,-3.5486,-3.5281,-3.4973,-3.4594,-3.4473,-3.4328,-3.4209,-3.4216,-3.4216,-3.4216,-3.4216,-3.3956,-3.3547,-3.3547,-3.3113,-3.234,-3.1886,-3.1496,-3.1106,-3.0326,-2.9935,-2.9917,-2.9564,-2.9388,-2.9388,-2.9388,-2.9388,-2.9388,-2.9388,-2.9388,-2.9388,-2.9388,-2.9388,-2.9388,-2.9388,-2.9388,-2.9388,-2.9388,-2.9396,-2.9355,-2.8946,-2.874,-2.8709,-2.8595,-2.8467,-2.8347,-2.9332,-2.9709,-2.9348,-3.0057,-3.0384,-3.0122,-3.0056,-3.0117,-3.0368,-3.0976,-3.1475,-3.1765,-3.18,-3.1828,-3.1925,-3.1905,-3.1765,-3.1426,-3.0903,-3.0434,-2.9934,-2.9388,-2.9114,-2.9114,-2.9114,-2.9114,-2.9114,-2.9114,-2.9114,-2.9114,-2.9114,-2.9114,-2.9114,-2.9114,-2.9114,-2.9114,-2.9114,-2.9114,-2.9098,-2.8974,-2.8787,-2.8654,-2.8311,-2.7852,-2.7434,-2.7534,-2.7473,-2.6926,-2.7596,-2.8057,-2.7811,-2.7796,-2.7657,-2.7349,-2.6749,-2.6226,-2.5841,-2.581,-2.5926,-2.6044,-2.6333,-2.6642,-2.7211,-2.7405,-2.7956,-3.55,-3.55,-3.55,-3.5385,-3.5198,-3.4936,-3.4565,-3.4122,-3.3998,-3.3844,-3.3719,-3.403,-3.4086,-3.3918,-3.3937,-3.3503,-3.2797,-3.2711,-3.2295,-3.1515,-3.0883,-3.0511,-3.027,-2.9675,-2.9388,-2.9388,-2.9388,-2.9388,-2.9388,-2.9388,-2.9285,-2.9099,-2.8913,-2.8924,-2.9081,-2.9118,-2.9192,-2.9388,-2.9388,-2.9388,-2.9388,-2.9388,-2.9396,-2.9376,-2.9334,-2.9291,-2.9262,-2.9078,-2.8899,-2.881,-2.9331,-2.9493,-2.9225,-3.0067,-3.049,-3.0302,-3.0445,-3.0711,-3.1098,-3.1373,-3.1627,-3.18,-3.169,-3.1447,-3.1024,-3.0848,-3.0584,-3.0054,-2.9935,-2.9671,-2.9389,-2.9183,-2.9114,-2.9114,-2.9114,-2.9114,-2.9114,-2.9114,-2.9114,-2.9114,-2.9114,-2.9114,-2.9114,-2.9114,-2.9114,-2.9114,-2.8988,-2.8877,-2.8877,-2.8682,-2.8175,-2.7561,-2.7307,-2.7055,-2.6355,-2.6202,-2.6195,-2.6149,-2.6364,-2.658,-2.6549,-2.6457,-2.6287,-2.6241,-2.578,-2.5364,-2.5142,-2.5081,-2.5102,-2.5161,-2.5463,-2.5948,-2.6251,-2.6565,-2.7008,-3.55,-3.55,-3.55,-3.5045,-3.4326,-3.3952,-3.3362,-3.2656,-3.2235,-3.2058,-3.224,-3.3547,-3.3751,-3.3187,-3.3113,-3.2667,-3.1942,-3.1905,-3.1478,-3.0772,-3.0641,-3.0214,-2.9593,-2.9444,-2.9388,-2.9388,-2.9388,-2.9388,-2.9388,-2.9359,-2.9016,-2.8207,-2.7501,-2.7557,-2.8152,-2.8226,-2.8616,-2.937,-2.9388,-2.9388,-2.9388,-2.9388,-2.9394,-2.9312,-2.9302,-2.928,-2.9211,-2.9178,-2.8927,-2.8474,-2.9103,-2.9273,-2.894,-3.0067,-3.0818,-3.0801,-3.1464,-3.1881,-3.1756,-3.1182,-3.1127,-3.1678,-3.1428,-3.1024,-3.0584,-3.0182,-3.0097,-3.0204,-3.0011,-2.9744,-2.9705,-2.9335,-2.9114,-2.9114,-2.9114,-2.9114,-2.9114,-2.9114,-2.9114,-2.9114,-2.9114,-2.9114,-2.9114,-2.9067,-2.9051,-2.8988,-2.8521,-2.8205,-2.8158,-2.7788,-2.7176,-2.6471,-2.6361,-2.6271,-2.5725,-2.5469,-2.5426,-2.5472,-2.5949,-2.6134,-2.6118,-2.6149,-2.6195,-2.5487,-2.5342,-2.5056,-2.4656,-2.4389,-2.4435,-2.4527,-2.4604,-2.46,-2.458,-2.4735,-2.502,-3.55,-3.55,-3.55,-3.5007,-3.4243,-3.4016,-3.335,-3.2408,-3.2232,-3.2023,-3.1879,-3.2518,-3.2611,-3.2295,-3.2295,-3.1849,-3.1106,-3.1087,-3.066,-2.9935,-2.9909,-2.9712,-2.9415,-2.9388,-2.9388,-2.9388,-2.9388,-2.9388,-2.9304,-2.8895,-2.8449,-2.804,-2.7297,-2.7297,-2.8003,-2.7631,-2.804,-2.9351,-2.8895,-2.8876,-2.9332,-2.9388,-2.9386,-2.9355,-2.9272,-2.9229,-2.9167,-2.8863,-2.8551,-2.834,-2.8781,-2.8715,-2.8032,-2.9026,-2.9601,-2.9619,-3.0681,-3.1306,-3.1271,-3.1302,-3.1489,-3.1783,-3.1353,-3.0925,-3.0539,-3.0075,-2.9788,-2.9655,-2.9493,-2.9403,-2.938,-2.9213,-2.9114,-2.9114,-2.9114,-2.9114,-2.9114,-2.9114,-2.9114,-2.9114,-2.9114,-2.9114,-2.9051,-2.8751,-2.8537,-2.8442,-2.7921,-2.7525,-2.7494,-2.7273,-2.6809,-2.612,-2.5702,-2.5316,-2.4984,-2.4796,-2.4733,-2.4764,-2.4948,-2.5149,-2.5173,-2.5127,-2.501,-2.4764,-2.4712,-2.4656,-2.441,-2.4297,-2.4281,-2.4235,-2.4266,-2.4281,-2.4281,-2.3994,-2.3933,-3.55,-3.55,-3.55,-3.4853,-3.3853,-3.382,-3.2985,-3.179,-3.1653,-3.1429,-3.1154,-3.1143,-3.1143,-3.118,-3.1348,-3.1032,-3.0326,-3.027,-2.9973,-2.9415,-2.9388,-2.9388,-2.9388,-2.9388,-2.9388,-2.9388,-2.9388,-2.9388,-2.9266,-2.8263,-2.7761,-2.765,-2.6962,-2.6981,-2.7631,-2.7167,-2.7706,-2.9165,-2.8542,-2.8523,-2.9266,-2.9388,-2.9388,-2.9378,-2.9272,-2.9207,-2.9178,-2.8743,-2.8414,-2.8273,-2.8426,-2.8211,-2.7521,-2.8198,-2.8789,-2.9206,-3.0162,-3.0888,-3.1061,-3.1526,-3.18,-3.1763,-3.1276,-3.0808,-3.046,-2.9946,-2.9493,-2.919,-2.9114,-2.9137,-2.9114,-2.9114,-2.9114,-2.9114,-2.9114,-2.9114,-2.9114,-2.9114,-2.9114,-2.9098,-2.8909,-2.8735,-2.853,-2.8104,-2.7826,-2.7762,-2.7241,-2.6799,-2.6767,-2.6609,-2.6261,-2.5787,-2.4963,-2.4521,-2.4477,-2.4215,-2.4123,-2.4266,-2.4389,-2.442,-2.4281,-2.4297,-2.4317,-2.4481,-2.422,-2.3994,-2.384,-2.3902,-2.3779,-2.3763,-2.3763,-2.3763,-2.3563,-2.3271,-2.3102,-3.55,-3.55,-3.55,-3.4538,-3.2981,-3.2879,-3.1749,-3.0186,-2.9922,-2.97,-2.9653,-2.9613,-2.9556,-2.9659,-3.0366,-3.0214,-2.9556,-2.9508,-2.9471,-2.9388,-2.9388,-2.9388,-2.9388,-2.9388,-2.9388,-2.9388,-2.9388,-2.9388,-2.9285,-2.7817,-2.6944,-2.6972,-2.6247,-2.6191,-2.6869,-2.6832,-2.7687,-2.9016,-2.843,-2.8523,-2.9266,-2.9388,-2.9388,-2.9378,-2.9272,-2.9218,-2.9186,-2.9033,-2.8688,-2.8129,-2.8122,-2.7868,-2.7428,-2.8022,-2.9023,-3.0248,-3.0593,-3.099,-3.1577,-3.1661,-3.1728,-3.1671,-3.0985,-3.0502,-3.0377,-2.9677,-2.919,-2.9114,-2.9114,-2.9114,-2.9114,-2.9114,-2.9114,-2.9114,-2.9114,-2.9114,-2.9114,-2.9035,-2.9114,-2.8972,-2.8521,-2.8,-2.7367,-2.7178,-2.713,-2.7004,-2.6514,-2.6072,-2.5993,-2.5571,-2.5254,-2.4977,-2.4418,-2.3865,-2.4356,-2.3993,-2.3799,-2.3912,-2.4066,-2.4204,-2.4266,-2.4281,-2.422,-2.4081,-2.362,-2.3348,-2.3225,-2.3029,-2.2736,-2.2659,-2.2721,-2.269,-2.2886,-2.2517,-2.2332,-3.55,-3.55,-3.55,-3.4481,-3.2942,-3.2858,-3.1778,-3.0087,-2.995,-2.9842,-2.9744,-2.9726,-2.9645,-2.9541,-2.984,-2.9761,-2.9407,-2.9388,-2.9388,-2.9388,-2.9388,-2.9388,-2.9388,-2.9388,-2.9388,-2.9388,-2.9388,-2.9388,-2.9277,-2.8226,-2.7668,-2.7427,-2.634,-2.6098,-2.6591,-2.5866,-2.6414,-2.8263,-2.7743,-2.8003,-2.9277,-2.9388,-2.9388,-2.9378,-2.9304,-2.924,-2.9207,-2.8743,-2.836,-2.8116,-2.7786,-2.7496,-2.7398,-2.7989,-2.861,-2.9179,-2.9661,-3.0265,-3.092,-3.0804,-3.0859,-3.1244,-3.0559,-3.0075,-2.9946,-2.9477,-2.9114,-2.9114,-2.9114,-2.9114,-2.9114,-2.9114,-2.9114,-2.9114,-2.9114,-2.9114,-2.9019,-2.8735,-2.8474,-2.8379,-2.7873,-2.7352,-2.7036,-2.6704,-2.6404,-2.634,-2.5803,-2.546,-2.5349,-2.5112,-2.4954,-2.4776,-2.3954,-2.3324,-2.3979,-2.3681,-2.3409,-2.3517,-2.364,-2.3625,-2.3656,-2.3302,-2.3148,-2.3179,-2.284,-2.2624,-2.2505,-2.2397,-2.2058,-2.2105,-2.212,-2.2012,-2.232,-2.1904,-2.1704,-3.55,-3.5442,-3.5192,-3.4237,-3.2949,-3.2622,-3.1603,-3.0173,-3.0089,-3.0022,-2.9926,-2.9902,-2.9828,-2.9707,-2.9635,-2.9561,-2.9461,-2.9419,-2.9388,-2.9388,-2.9388,-2.9388,-2.9388,-2.9388,-2.9388,-2.9388,-2.9388,-2.9388,-2.9285,-2.8523,-2.7966,-2.7594,-2.6795,-2.6442,-2.6377,-2.5643,-2.6284,-2.765,-2.7315,-2.7706,-2.9136,-2.9128,-2.9118,-2.9283,-2.8981,-2.8846,-2.9012,-2.8471,-2.8088,-2.7922,-2.7612,-2.739,-2.7366,-2.7782,-2.8161,-2.842,-2.8868,-2.9541,-3.0293,-3.017,-3.0268,-3.0801,-3.0251,-2.9793,-2.975,-2.938,-2.916,-2.9114,-2.9114,-2.9114,-2.9114,-2.9114,-2.9114,-2.9114,-2.9114,-2.9114,-2.9098,-2.8704,-2.8268,-2.7778,-2.7162,-2.672,-2.6419,-2.5961,-2.5724,-2.5661,-2.5254,-2.5001,-2.5005,-2.4764,-2.4634,-2.4507,-2.3343,-2.2752,-2.2851,-2.2667,-2.2717,-2.2867,-2.2963,-2.2978,-2.2886,-2.2474,-2.2228,-2.2228,-2.2086,-2.1901,-2.1763,-2.1686,-2.1689,-2.172,-2.1488,-2.1257,-2.1319,-2.126,-2.1119,-3.55,-3.5385,-3.4603,-3.3801,-3.2891,-3.2199,-3.1181,-3.0232,-3.0122,-3.0059,-2.9973,-2.9934,-2.9942,-2.9851,-2.9724,-2.9607,-2.9551,-2.9471,-2.9399,-2.9388,-2.9388,-2.9388,-2.9388,-2.9388,-2.9388,-2.9388,-2.9388,-2.9388,-2.9332,-2.8616,-2.7891,-2.7334,-2.7724,-2.7222,-2.5856,-2.6479,-2.7167,-2.778,-2.7361,-2.7798,-2.9091,-2.868,-2.868,-2.9188,-2.8357,-2.8097,-2.8682,-2.8298,-2.7982,-2.7774,-2.7672,-2.7537,-2.7346,-2.7384,-2.7627,-2.8196,-2.8385,-2.8905,-2.9758,-2.9833,-2.9839,-3.0236,-2.9989,-2.9625,-2.9617,-2.9335,-2.9114,-2.9114,-2.9114,-2.9082,-2.9035,-2.9082,-2.9114,-2.9114,-2.9114,-2.9114,-2.9035,-2.9004,-2.8514,-2.7241,-2.6404,-2.5776,-2.5254,-2.5128,-2.5144,-2.5112,-2.5033,-2.5005,-2.4922,-2.4495,-2.3999,-2.373,-2.2936,-2.2189,-2.1864,-2.1586,-2.1887,-2.2139,-2.225,-2.2305,-2.2243,-2.1935,-2.172,-2.1658,-2.1427,-2.1242,-2.0996,-2.0919,-2.0811,-2.078,-2.058,-2.0626,-2.0657,-2.0705,-2.0564,-3.55,-3.5462,-3.5212,-3.4237,-3.2968,-3.2622,-3.1687,-3.0369,-3.0305,-3.028,-3.0247,-3.0247,-3.0174,-3.0044,-2.9958,-2.9815,-2.9589,-2.9551,-2.9501,-2.9409,-2.9388,-2.9388,-2.9388,-2.9388,-2.9388,-2.9388,-2.9388,-2.9388,-2.9351,-2.9118,-2.8849,-2.8645,-2.8244,-2.7873,-2.726,-2.7111,-2.7278,-2.7956,-2.7805,-2.8221,-2.9212,-2.9024,-2.9013,-2.9144,-2.8445,-2.8147,-2.8319,-2.8065,-2.7829,-2.7719,-2.7526,-2.7374,-2.733,-2.7315,-2.7402,-2.7592,-2.7644,-2.7841,-2.8317,-2.8295,-2.8525,-2.9046,-2.8925,-2.8933,-2.9248,-2.9213,-2.9114,-2.9114,-2.9098,-2.894,-2.86,-2.8846,-2.9098,-2.9114,-2.9114,-2.8861,-2.8372,-2.7598,-2.6641,-2.5855,-2.5444,-2.5207,-2.5065,-2.5005,-2.5005,-2.5005,-2.5005,-2.5005,-2.4875,-2.4302,-2.3935,-2.3778,-2.2684,-2.1705,-2.1542,-2.1268,-2.1227,-2.145,-2.1546,-2.1612,-2.155,-2.1427,-2.1227,-2.1073,-2.0841,-2.0641,-2.0395,-2.0287,-2.0287,-2.0287,-2.0395,-2.0395,-2.0318,-2.0287,-2.0287,-3.55,-3.5462,-3.5135,-3.4218,-3.291,-3.2602,-3.1698,-3.05,-3.0404,-3.0404,-3.0398,-3.0404,-3.0343,-3.0228,-3.0136,-2.9981,-2.9801,-2.9732,-2.9617,-2.9481,-2.9417,-2.9388,-2.9388,-2.9388,-2.9388,-2.9388,-2.9388,-2.9388,-2.9388,-2.9388,-2.9258,-2.8858,-2.8672,-2.8207,-2.7761,-2.7501,-2.765,-2.803,-2.8036,-2.8421,-2.9032,-2.8933,-2.8831,-2.8881,-2.82,-2.7888,-2.8016,-2.7774,-2.7602,-2.7542,-2.7392,-2.7315,-2.7315,-2.7315,-2.7315,-2.7315,-2.7335,-2.7415,-2.7531,-2.7441,-2.7587,-2.827,-2.8255,-2.841,-2.894,-2.9114,-2.9114,-2.9114,-2.9114,-2.894,-2.864,-2.8814,-2.9098,-2.9075,-2.883,-2.8435,-2.7731,-2.672,-2.5977,-2.5539,-2.5227,-2.5033,-2.5005,-2.5005,-2.5005,-2.5005,-2.5005,-2.4796,-2.4574,-2.3954,-2.3623,-2.3099,-2.2088,-2.1504,-2.1345,-2.1024,-2.064,-2.0743,-2.0872,-2.091,-2.0888,-2.0764,-2.0595,-2.0626,-2.0472,-2.0487,-2.0287,-2.0287,-2.0287,-2.0287,-2.0287,-2.0287,-2.0287,-2.0287,-2.0287,-3.5462,-3.5327,-3.4545,-3.3699,-3.2737,-3.2064,-3.1269,-3.0481,-3.0404,-3.0404,-3.0404,-3.0404,-3.0398,-3.0355,-3.0228,-3.0115,-3.0054,-2.9954,-2.9792,-2.9626,-2.9512,-2.9441,-2.9407,-2.9388,-2.9388,-2.9388,-2.9388,-2.9388,-2.9388,-2.9388,-2.8988,-2.8505,-2.8951,-2.8579,-2.7575,-2.7743,-2.7956,-2.789,-2.7886,-2.8262,-2.904,-2.8458,-2.8294,-2.8681,-2.7805,-2.7442,-2.7784,-2.7557,-2.7346,-2.7315,-2.7315,-2.7315,-2.7315,-2.7315,-2.7315,-2.7315,-2.7315,-2.7198,-2.7181,-2.7179,-2.7424,-2.7906,-2.8107,-2.8395,-2.8956,-2.9114,-2.9114,-2.9114,-2.9114,-2.9051,-2.8956,-2.9067,-2.9051,-2.8877,-2.8363,-2.7762,-2.7115,-2.632,-2.5757,-2.5672,-2.5365,-2.4985,-2.4966,-2.5005,-2.5005,-2.4954,-2.4887,-2.4465,-2.403,-2.3412,-2.2641,-2.2043,-2.1537,-2.122,-2.1061,-2.0963,-2.061,-2.0522,-2.061,-2.0591,-2.0537,-2.0399,-2.0304,-2.0304,-2.0287,-2.0287,-2.0287,-2.0287,-2.0287,-2.0287,-2.0287,-2.0287,-2.0287,-2.0287,-2.0287,-3.5115,-3.4526,-3.4302,-3.3353,-3.2083,-3.1775,-3.1192,-3.0462,-3.0404,-3.0404,-3.0404,-3.0404,-3.0404,-3.0398,-3.0349,-3.0248,-3.0122,-3.0054,-2.9969,-2.9845,-2.9805,-2.9617,-2.944,-2.9388,-2.9388,-2.9388,-2.9388,-2.9388,-2.9388,-2.9388,-2.9248,-2.9081,-2.9155,-2.8849,-2.7984,-2.7966,-2.7713,-2.7228,-2.7105,-2.7442,-2.8101,-2.8011,-2.8231,-2.8789,-2.8129,-2.7803,-2.7964,-2.7554,-2.7315,-2.7315,-2.7315,-2.7315,-2.7315,-2.7315,-2.7299,-2.7283,-2.7267,-2.6992,-2.6613,-2.6893,-2.7251,-2.7386,-2.7857,-2.8395,-2.9035,-2.9114,-2.9114,-2.9114,-2.9098,-2.8893,-2.86,-2.883,-2.8672,-2.781,-2.7488,-2.713,-2.633,-2.5487,-2.4972,-2.5143,-2.4876,-2.4798,-2.4906,-2.4985,-2.4985,-2.4887,-2.4457,-2.3936,-2.3538,-2.2682,-2.1862,-2.1785,-2.1409,-2.1029,-2.0775,-2.0742,-2.0627,-2.0474,-2.0469,-2.0486,-2.0467,-2.0421,-2.0356,-2.0321,-2.0304,-2.0287,-2.0287,-2.0287,-2.0287,-2.0287,-2.0287,-2.0287,-2.0287,-2.0287,-2.0287,-3.4449,-3.3667,-3.366,-3.2897,-3.1775,-3.1698,-3.1212,-3.0519,-3.0404,-3.0404,-3.0404,-3.0404,-3.0404,-3.0404,-3.0398,-3.0349,-3.0241,-3.0235,-3.0135,-2.9969,-2.9836,-2.9672,-2.9492,-2.9431,-2.9388,-2.9388,-2.9388,-2.9388,-2.9388,-2.9388,-2.9388,-2.9266,-2.9025,-2.8597,-2.8096,-2.7706,-2.736,-2.6894,-2.6742,-2.695,-2.7369,-2.7342,-2.7323,-2.7622,-2.7282,-2.7072,-2.6838,-2.7068,-2.7315,-2.7315,-2.7315,-2.7315,-2.7315,-2.7315,-2.7218,-2.7088,-2.7056,-2.6691,-2.6183,-2.6541,-2.698,-2.7201,-2.7715,-2.8395,-2.894,-2.9114,-2.9114,-2.9114,-2.9114,-2.8909,-2.8711,-2.8893,-2.8194,-2.6879,-2.6808,-2.6635,-2.5693,-2.4987,-2.4651,-2.4681,-2.4641,-2.4559,-2.4766,-2.4871,-2.497,-2.4839,-2.4268,-2.3735,-2.3177,-2.2079,-2.1297,-2.1205,-2.1133,-2.0751,-2.0644,-2.0644,-2.061,-2.0458,-2.0423,-2.0441,-2.0407,-2.0407,-2.0356,-2.0304,-2.0304,-2.0287,-2.0287,-2.0287,-2.0287,-2.0287,-2.0287,-2.0287,-2.0287,-2.0287,-2.0287,-3.3571,-3.2776,-3.2776,-3.2314,-3.1596,-3.1545,-3.1058,-3.05,-3.0404,-3.0404,-3.0404,-3.0404,-3.0404,-3.0404,-3.0404,-3.0398,-3.0392,-3.0367,-3.0292,-3.008,-2.9883,-2.9698,-2.9626,-2.9461,-2.9399,-2.9388,-2.9388,-2.9388,-2.9388,-2.9388,-2.9388,-2.9295,-2.869,-2.8152,-2.7817,-2.726,-2.6841,-2.6403,-2.6206,-2.6304,-2.6483,-2.6463,-2.6365,-2.6303,-2.6099,-2.5755,-2.5689,-2.6195,-2.6919,-2.7023,-2.7126,-2.7109,-2.7142,-2.7144,-2.7053,-2.6825,-2.6725,-2.6419,-2.5852,-2.6335,-2.6844,-2.7169,-2.781,-2.841,-2.8956,-2.9114,-2.9114,-2.9114,-2.9114,-2.9067,-2.9019,-2.9035,-2.803,-2.6563,-2.6602,-2.6199,-2.528,-2.4681,-2.4498,-2.4498,-2.4477,-2.4457,-2.4523,-2.4643,-2.4764,-2.4131,-2.3581,-2.2848,-2.2251,-2.1409,-2.0828,-2.0646,-2.0553,-2.0438,-2.046,-2.056,-2.0527,-2.046,-2.0441,-2.0424,-2.0356,-2.0339,-2.0306,-2.0289,-2.0304,-2.0287,-2.0287,-2.0287,-2.0287,-2.0287,-2.0287,-2.0287,-2.0287,-2.0287,-2.0287,-3.2699,-3.1962,-3.1948,-3.1462,-3.075,-3.0692,-3.0577,-3.0404,-3.0404,-3.0404,-3.0404,-3.0404,-3.0404,-3.0404,-3.0404,-3.0404,-3.0404,-3.0404,-3.0367,-3.033,-3.0102,-2.992,-2.9775,-2.956,-2.9417,-2.9388,-2.9388,-2.9388,-2.9388,-2.9388,-2.9388,-2.9285,-2.8979,-2.8412,-2.7241,-2.6916,-2.6173,-2.5199,-2.4903,-2.5243,-2.5597,-2.5505,-2.5549,-2.5799,-2.5593,-2.5295,-2.5089,-2.5316,-2.5488,-2.5626,-2.604,-2.6385,-2.6437,-2.6456,-2.6526,-2.664,-2.6641,-2.6315,-2.5901,-2.6541,-2.7254,-2.7195,-2.8142,-2.894,-2.9051,-2.9114,-2.9114,-2.9114,-2.9114,-2.9098,-2.8909,-2.8546,-2.7728,-2.6743,-2.6098,-2.5591,-2.4818,-2.4534,-2.4436,-2.4416,-2.4271,-2.4109,-2.4114,-2.3937,-2.3801,-2.3379,-2.2717,-2.1846,-2.124,-2.071,-2.0452,-2.0224,-2.0152,-2.0083,-2.022,-2.0254,-2.0185,-2.0202,-2.022,-2.0272,-2.0235,-2.0321,-2.0321,-2.0304,-2.0287,-2.0287,-2.0287,-2.0287,-2.0287,-2.0287,-2.0287,-2.0287,-2.0287,-2.0287,-2.0287,-3.1577,-3.0544,-3.0873,-3.0559,-2.9944,-3.0206,-3.0379,-3.0367,-3.0398,-3.0404,-3.0404,-3.0404,-3.0404,-3.0404,-3.0404,-3.0404,-3.0404,-3.0404,-3.0404,-3.0355,-3.0189,-3.003,-2.9859,-2.9645,-2.9471,-2.939,-2.9388,-2.9388,-2.9388,-2.9304,-2.9155,-2.8802,-2.8802,-2.7798,-2.6563,-2.6358,-2.5597,-2.4663,-2.4275,-2.444,-2.4612,-2.4543,-2.4413,-2.4748,-2.4628,-2.4452,-2.395,-2.4678,-2.4522,-2.4402,-2.4974,-2.5766,-2.6098,-2.6282,-2.6417,-2.6387,-2.6193,-2.589,-2.5744,-2.6478,-2.7248,-2.7136,-2.834,-2.8909,-2.9114,-2.9114,-2.9114,-2.9114,-2.9051,-2.8909,-2.8261,-2.8284,-2.7513,-2.6193,-2.57,-2.5122,-2.4466,-2.4114,-2.3973,-2.3994,-2.3988,-2.3882,-2.3743,-2.358,-2.3391,-2.3188,-2.2537,-2.1683,-2.0857,-2.0366,-2.0128,-1.9942,-1.9836,-1.98,-1.9925,-1.9907,-1.9762,-1.978,-1.9833,-1.9904,-1.994,-2.0131,-2.0321,-2.0304,-2.0287,-2.0287,-2.0287,-2.0287,-2.0287,-2.0287,-2.0287,-2.0287,-2.0287,-2.0287,-2.0287,-3.0495,-2.9148,-2.9817,-2.9703,-2.9267,-2.9867,-3.0232,-3.0342,-3.0373,-3.0404,-3.0404,-3.0404,-3.0404,-3.0404,-3.0404,-3.0404,-3.0379,-3.0373,-3.0373,-3.0343,-3.0176,-3.0007,-2.9804,-2.9483,-2.9194,-2.9194,-2.9109,-2.9091,-2.8905,-2.8969,-2.843,-2.8021,-2.8114,-2.7343,-2.608,-2.5783,-2.5374,-2.4404,-2.4172,-2.4027,-2.3868,-2.3761,-2.3577,-2.3395,-2.3502,-2.3459,-2.3264,-2.375,-2.3994,-2.2848,-2.4149,-2.5136,-2.5704,-2.6228,-2.6437,-2.609,-2.5817,-2.5462,-2.5357,-2.6149,-2.6931,-2.7099,-2.8167,-2.8925,-2.9051,-2.9114,-2.9114,-2.9051,-2.8925,-2.8381,-2.7271,-2.7196,-2.6504,-2.5278,-2.5018,-2.4587,-2.3946,-2.3394,-2.305,-2.3508,-2.3659,-2.3653,-2.3578,-2.3423,-2.3232,-2.291,-2.2212,-2.1484,-2.0613,-2.0054,-1.9803,-1.9747,-1.9657,-1.9869,-2.001,-1.9566,-1.9402,-1.9603,-1.9584,-1.9672,-1.978,-2.0078,-2.0287,-2.0304,-2.0287,-2.0287,-2.0287,-2.0287,-2.0287,-2.0287,-2.0287,-2.0287,-2.0287,-2.0287,-2.0287,-2.9921,-2.9032,-2.916,-2.9166,-2.9108,-2.9254,-2.9707,-3.0321,-3.0321,-3.0404,-3.0404,-3.0385,-3.0321,-3.0379,-3.0385,-3.0373,-3.0297,-3.0329,-3.0311,-3.0267,-3.0102,-2.995,-2.9662,-2.8996,-2.854,-2.8358,-2.8234,-2.7919,-2.7575,-2.7306,-2.7417,-2.7315,-2.7714,-2.7156,-2.6116,-2.6087,-2.5518,-2.4238,-2.3968,-2.3788,-2.3562,-2.333,-2.3121,-2.2825,-2.2962,-2.2884,-2.2798,-2.2905,-2.2829,-2.2518,-2.4033,-2.4575,-2.4737,-2.5293,-2.5798,-2.5919,-2.5687,-2.5307,-2.5207,-2.5745,-2.6483,-2.7083,-2.7889,-2.86,-2.894,-2.9098,-2.9067,-2.8893,-2.853,-2.7825,-2.6738,-2.6424,-2.5741,-2.4814,-2.3852,-2.314,-2.2724,-2.2247,-2.2115,-2.2853,-2.3177,-2.3294,-2.3013,-2.2776,-2.2509,-2.2013,-2.1347,-2.0701,-1.9987,-1.9605,-1.9435,-1.9457,-1.9533,-1.9851,-2.0166,-1.9493,-1.9105,-1.953,-1.9621,-1.9621,-1.9797,-2.0096,-2.0235,-2.0183,-2.0235,-2.0287,-2.0287,-2.0287,-2.0287,-2.0287,-2.0287,-2.0287,-2.0287,-2.0287,-2.0287,-2.9768,-2.9008,-2.8982,-2.8752,-2.8419,-2.8466,-2.8933,-2.9619,-2.9719,-2.9975,-3.0136,-2.9957,-2.999,-3.0131,-2.9824,-2.9876,-3.0228,-3.0299,-3.0235,-3.0128,-3.0018,-2.9837,-2.9511,-2.8633,-2.7913,-2.7406,-2.6986,-2.6876,-2.6859,-2.6896,-2.6571,-2.644,-2.6996,-2.652,-2.5332,-2.5438,-2.5077,-2.4005,-2.3671,-2.3529,-2.3295,-2.304,-2.2812,-2.2751,-2.2712,-2.2712,-2.2712,-2.2712,-2.2646,-2.2781,-2.3869,-2.4337,-2.4526,-2.4928,-2.5584,-2.568,-2.5462,-2.5188,-2.5136,-2.565,-2.6325,-2.7051,-2.7715,-2.8395,-2.8893,-2.9098,-2.8956,-2.86,-2.834,-2.7504,-2.6165,-2.5635,-2.5037,-2.4046,-2.3029,-2.2393,-2.1934,-2.1348,-2.1582,-2.2157,-2.2499,-2.2448,-2.2036,-2.1823,-2.1645,-2.1125,-2.0519,-1.9947,-1.9398,-1.9269,-1.9195,-1.9365,-1.9475,-1.9566,-1.9851,-1.942,-1.8921,-1.9262,-1.9533,-1.9566,-1.9693,-1.994,-2.0008,-1.9973,-2.0061,-2.0218,-2.0287,-2.027,-2.0287,-2.0287,-2.0287,-2.0287,-2.0287,-2.0287,-2.0252,-2.9723,-2.8977,-2.8804,-2.8338,-2.7764,-2.7637,-2.8063,-2.8693,-2.901,-2.9433,-2.9914,-2.9658,-2.9761,-2.9992,-2.9749,-2.9653,-3.0279,-3.026,-3.0099,-2.9977,-2.9856,-2.9641,-2.9027,-2.8276,-2.737,-2.6447,-2.5734,-2.5633,-2.5976,-2.6097,-2.5809,-2.5689,-2.6104,-2.5767,-2.4618,-2.4949,-2.4317,-2.3777,-2.3375,-2.3248,-2.3015,-2.2829,-2.2712,-2.2712,-2.2712,-2.2712,-2.2712,-2.2712,-2.2716,-2.2988,-2.3693,-2.4353,-2.4464,-2.5059,-2.5433,-2.5368,-2.513,-2.5029,-2.5128,-2.5412,-2.6072,-2.7004,-2.7573,-2.8252,-2.8893,-2.9035,-2.8783,-2.8126,-2.7826,-2.703,-2.5515,-2.5018,-2.4239,-2.3169,-2.2355,-2.1789,-2.1235,-2.0757,-2.0433,-2.0977,-2.1604,-2.171,-2.1347,-2.1355,-2.1278,-2.0848,-2.0245,-1.9846,-1.9355,-1.9205,-1.9176,-1.938,-1.9439,-1.9332,-1.9384,-1.9328,-1.8997,-1.9024,-1.9225,-1.931,-1.9479,-1.9711,-1.9764,-1.9869,-1.9922,-2.0045,-2.0166,-2.0183,-2.0096,-2.0078,-2.0218,-2.0235,-2.0113,-2.0063,-2.0045,-2.9714,-2.8867,-2.8147,-2.7816,-2.7667,-2.6991,-2.7154,-2.7975,-2.8648,-2.9026,-2.9308,-2.98,-3.0062,-3.0126,-3.01,-3.0087,-3.0148,-3.0085,-2.9981,-2.9861,-2.9644,-2.9148,-2.8304,-2.7317,-2.6594,-2.576,-2.4912,-2.4515,-2.482,-2.4829,-2.4681,-2.4709,-2.5161,-2.515,-2.4316,-2.4574,-2.4487,-2.3586,-2.3224,-2.3015,-2.2799,-2.2742,-2.2712,-2.2712,-2.2712,-2.2712,-2.2733,-2.2745,-2.2794,-2.2938,-2.3816,-2.4183,-2.4193,-2.4957,-2.5208,-2.5166,-2.5025,-2.5005,-2.5017,-2.5159,-2.5724,-2.6704,-2.7209,-2.7921,-2.8688,-2.891,-2.8453,-2.732,-2.7166,-2.6326,-2.47,-2.3743,-2.2966,-2.2132,-2.1295,-2.0746,-2.0269,-2.0153,-1.9832,-1.9846,-2.0479,-2.0825,-2.0791,-2.0878,-2.0913,-2.0456,-2.0016,-1.9638,-1.9348,-1.9188,-1.912,-1.9306,-1.9347,-1.9254,-1.9203,-1.9091,-1.9035,-1.8912,-1.902,-1.9109,-1.9203,-1.9424,-1.9782,-1.9887,-1.9869,-1.9797,-1.9764,-1.978,-1.978,-1.994,-2.0168,-2.0045,-1.9815,-1.9815,-1.9851,-2.9975,-2.9535,-2.823,-2.7708,-2.7573,-2.6347,-2.6255,-2.711,-2.794,-2.8599,-2.8983,-2.9366,-2.9551,-2.9666,-2.9926,-3.0206,-3.0192,-3.009,-2.9926,-2.9741,-2.9486,-2.8938,-2.7993,-2.7074,-2.6223,-2.536,-2.4698,-2.4339,-2.4238,-2.4238,-2.4238,-2.4311,-2.4541,-2.4556,-2.4036,-2.41,-2.3781,-2.3289,-2.2998,-2.2829,-2.2738,-2.2712,-2.2712,-2.2712,-2.2712,-2.2716,-2.2762,-2.2962,-2.3045,-2.3244,-2.3948,-2.4306,-2.4347,-2.4798,-2.5111,-2.5029,-2.5005,-2.5005,-2.4985,-2.4985,-2.5618,-2.6293,-2.6925,-2.7725,-2.8633,-2.8535,-2.8016,-2.7188,-2.6339,-2.5312,-2.4177,-2.323,-2.2337,-2.1474,-2.0698,-2.0132,-1.9725,-1.9406,-1.9261,-1.9275,-1.9348,-1.9798,-2.019,-2.0306,-2.0268,-1.987,-1.9609,-1.9406,-1.9232,-1.9159,-1.9139,-1.9213,-1.9195,-1.9124,-1.9105,-1.9053,-1.9035,-1.8964,-1.9039,-1.9072,-1.8936,-1.9091,-1.9457,-1.9548,-1.942,-1.9365,-1.9384,-1.953,-1.969,-1.9922,-2.0168,-1.9922,-1.969,-1.9675,-1.9621,-2.9879,-2.9746,-2.8504,-2.7893,-2.758,-2.6106,-2.5759,-2.6246,-2.7362,-2.8128,-2.8683,-2.9117,-2.9333,-2.9358,-2.9905,-3.0211,-3.0185,-3.015,-2.9921,-2.9671,-2.9223,-2.8496,-2.7503,-2.6631,-2.5833,-2.5099,-2.4521,-2.4246,-2.4209,-2.42,-2.4209,-2.4199,-2.4282,-2.411,-2.3806,-2.3609,-2.3359,-2.302,-2.2812,-2.2725,-2.2712,-2.2712,-2.2712,-2.2712,-2.2716,-2.2745,-2.2894,-2.3087,-2.3283,-2.3735,-2.4062,-2.4412,-2.4593,-2.4837,-2.5013,-2.5005,-2.5005,-2.5005,-2.51,-2.5207,-2.5523,-2.6024,-2.6704,-2.7567,-2.8397,-2.7934,-2.7245,-2.6889,-2.5852,-2.4844,-2.3878,-2.3005,-2.2321,-2.1474,-2.0625,-1.9986,-1.9464,-1.9362,-1.9203,-1.9159,-1.9203,-1.9174,-1.9508,-1.9682,-1.958,-1.9246,-1.9116,-1.9116,-1.9116,-1.9116,-1.912,-1.9157,-1.9139,-1.9101,-1.9068,-1.9035,-1.9016,-1.8907,-1.8978,-1.894,-1.8731,-1.8765,-1.9016,-1.903,-1.9011,-1.9217,-1.9384,-1.9512,-1.9617,-1.9654,-1.9675,-1.9708,-1.9617,-1.9548,-1.9258,-2.8987,-2.8975,-2.886,-2.8338,-2.7637,-2.6726,-2.5929,-2.566,-2.7071,-2.781,-2.8338,-2.9294,-3.0001,-3.0077,-3.0077,-3.0211,-3.0204,-3.0003,-2.9708,-2.926,-2.8632,-2.7682,-2.6759,-2.5925,-2.5191,-2.4511,-2.4236,-2.4218,-2.4199,-2.4199,-2.4199,-2.419,-2.4141,-2.3996,-2.3785,-2.3488,-2.3158,-2.2876,-2.2725,-2.2712,-2.2733,-2.2767,-2.2802,-2.2815,-2.2806,-2.2874,-2.3255,-2.3422,-2.3663,-2.4172,-2.4382,-2.4583,-2.4824,-2.4934,-2.5005,-2.5005,-2.5005,-2.5005,-2.5084,-2.5397,-2.5835,-2.6182,-2.6625,-2.7288,-2.7993,-2.7148,-2.661,-2.6348,-2.5284,-2.4445,-2.3603,-2.288,-2.2224,-2.1695,-2.0959,-2.0422,-1.9943,-1.9624,-1.9449,-1.9203,-1.9174,-1.9261,-1.9116,-1.9377,-1.9435,-1.9145,-1.9116,-1.9116,-1.9116,-1.9116,-1.9116,-1.912,-1.9134,-1.9082,-1.9049,-1.8993,-1.8846,-1.8649,-1.8572,-1.8572,-1.8475,-1.8572,-1.8611,-1.8803,-1.8879,-1.9128,-1.9291,-1.9236,-1.918,-1.9143,-1.9199,-1.9439,-1.9254,-1.9011,-1.8669,-2.8153,-2.8211,-2.8681,-2.8446,-2.7638,-2.6771,-2.6223,-2.6172,-2.7192,-2.8351,-2.923,-2.9898,-3.0204,-3.0211,-3.0206,-3.0206,-3.0102,-2.941,-2.9128,-2.8602,-2.7821,-2.6828,-2.6025,-2.5503,-2.5026,-2.4365,-2.4199,-2.4199,-2.4199,-2.4199,-2.4074,-2.4024,-2.3976,-2.3907,-2.3703,-2.3382,-2.3017,-2.2812,-2.2716,-2.2699,-2.2802,-2.3198,-2.3371,-2.3371,-2.3988,-2.3993,-2.4054,-2.4226,-2.4346,-2.4454,-2.4647,-2.4824,-2.4965,-2.4989,-2.5005,-2.5005,-2.5005,-2.5005,-2.5005,-2.5302,-2.5539,-2.5993,-2.6309,-2.6735,-2.733,-2.6324,-2.5867,-2.5378,-2.4633,-2.3696,-2.3473,-2.2693,-2.2039,-2.1785,-2.1394,-2.0857,-2.0509,-2.0204,-1.9928,-1.9783,-1.9653,-1.9609,-1.9362,-1.913,-1.9145,-1.9116,-1.9116,-1.9116,-1.9116,-1.9116,-1.9116,-1.9116,-1.9116,-1.9045,-1.8993,-1.8841,-1.8688,-1.847,-1.8268,-1.8234,-1.8254,-1.8149,-1.8228,-1.8436,-1.8635,-1.8769,-1.8827,-1.8769,-1.8846,-1.9049,-1.9236,-1.942,-1.9068,-1.8567,-1.8248,-2.7319,-2.7415,-2.8192,-2.8077,-2.73,-2.6918,-2.6632,-2.6574,-2.7319,-2.8637,-3.0192,-3.0218,-3.0211,-3.0218,-3.0213,-2.9911,-2.9613,-2.903,-2.8442,-2.7786,-2.6972,-2.6143,-2.5564,-2.5081,-2.4667,-2.4273,-2.4199,-2.4199,-2.4199,-2.4199,-2.4064,-2.3876,-2.3721,-2.3649,-2.3468,-2.3206,-2.2881,-2.2768,-2.2957,-2.3009,-2.3147,-2.375,-2.4146,-2.4181,-2.4626,-2.4724,-2.4637,-2.4713,-2.4751,-2.4761,-2.4828,-2.4946,-2.5005,-2.5005,-2.5005,-2.5005,-2.5005,-2.5005,-2.4985,-2.5033,-2.5302,-2.5882,-2.5724,-2.6135,-2.6241,-2.5623,-2.5139,-2.521,-2.4051,-2.3105,-2.3282,-2.271,-2.2425,-2.2258,-2.1786,-2.1293,-2.1177,-2.093,-2.064,-2.0407,-2.019,-1.987,-1.9624,-1.9333,-1.9116,-1.9116,-1.9116,-1.9116,-1.9116,-1.9116,-1.9116,-1.9116,-1.9116,-1.9026,-1.8917,-1.8822,-1.8741,-1.8503,-1.8301,-1.8109,-1.8049,-1.7942,-1.7922,-1.8135,-1.8313,-1.8358,-1.8417,-1.8456,-1.875,-1.9109,-1.9147,-1.9072,-1.8688,-1.8208,-1.8109,-2.6421,-2.6536,-2.7377,-2.7224,-2.6555,-2.73,-2.7166,-2.6727,-2.7529,-2.8771,-3.0135,-3.0213,-3.0213,-3.0199,-3.0187,-2.9715,-2.8992,-2.8639,-2.7999,-2.6952,-2.6098,-2.5578,-2.5159,-2.4695,-2.4392,-2.4254,-2.419,-2.419,-2.417,-2.4141,-2.3996,-2.3721,-2.3461,-2.3289,-2.3114,-2.285,-2.2712,-2.2819,-2.344,-2.3598,-2.3957,-2.456,-2.4905,-2.5005,-2.5264,-2.5405,-2.518,-2.5161,-2.5121,-2.4949,-2.4937,-2.5005,-2.5005,-2.5005,-2.5005,-2.5005,-2.5005,-2.4985,-2.4966,-2.4985,-2.5257,-2.5631,-2.5363,-2.5487,-2.5674,-2.5165,-2.4599,-2.4771,-2.3895,-2.3216,-2.3024,-2.2867,-2.2794,-2.2635,-2.2127,-2.1946,-2.1815,-2.1728,-2.1431,-2.1104,-2.0553,-2.0088,-1.9841,-1.9566,-1.9232,-1.9116,-1.9116,-1.9116,-1.9116,-1.9116,-1.9116,-1.9116,-1.9116,-1.9064,-1.8988,-1.8912,-1.876,-1.8523,-1.8341,-1.8202,-1.8043,-1.7942,-1.7942,-1.7969,-1.8029,-1.8135,-1.8175,-1.8195,-1.8456,-1.8635,-1.8597,-1.8475,-1.8135,-1.7969,-1.7922,-2.5612,-2.5682,-2.6504,-2.637,-2.5778,-2.6504,-2.6956,-2.7491,-2.8695,-2.9688,-3.0115,-3.0218,-3.0213,-3.0173,-2.9949,-2.9478,-2.867,-2.7641,-2.6915,-2.6096,-2.519,-2.4773,-2.4513,-2.4411,-2.419,-2.4208,-2.418,-2.4056,-2.3909,-2.3927,-2.3685,-2.3383,-2.3152,-2.291,-2.2838,-2.2777,-2.2871,-2.3353,-2.3733,-2.4043,-2.4629,-2.5301,-2.5732,-2.5747,-2.6161,-2.6127,-2.5692,-2.5623,-2.5407,-2.5075,-2.5005,-2.5005,-2.5005,-2.5005,-2.5005,-2.5005,-2.4985,-2.4866,-2.4746,-2.4661,-2.4739,-2.4925,-2.5026,-2.4952,-2.4947,-2.4528,-2.4313,-2.4191,-2.3651,-2.312,-2.2896,-2.2896,-2.2844,-2.2844,-2.2606,-2.2606,-2.2533,-2.2439,-2.225,-2.1873,-2.138,-2.0625,-2.0175,-1.974,-1.9377,-1.913,-1.9116,-1.9116,-1.9116,-1.9116,-1.9116,-1.9116,-1.9116,-1.9116,-1.9064,-1.8988,-1.8874,-1.8683,-1.8503,-1.8341,-1.8183,-1.8003,-1.7942,-1.7942,-1.7929,-1.7929,-1.7989,-1.8049,-1.8029,-1.8089,-1.8175,-1.8313,-1.8234,-1.8049,-1.7922,-2.521,-2.5268,-2.5759,-2.5682,-2.5363,-2.6058,-2.688,-2.7854,-2.9153,-2.9898,-3.0154,-3.0232,-3.0178,-3.004,-2.9665,-2.8941,-2.8072,-2.7037,-2.6014,-2.5234,-2.458,-2.433,-2.4256,-2.4181,-2.4113,-2.4122,-2.4044,-2.3917,-2.3682,-2.3671,-2.3479,-2.3175,-2.2877,-2.2985,-2.3022,-2.3216,-2.3491,-2.4095,-2.456,-2.4956,-2.5491,-2.604,-2.6523,-2.6613,-2.6727,-2.6708,-2.6229,-2.589,-2.5615,-2.5169,-2.5005,-2.5005,-2.5005,-2.5005,-2.5005,-2.5005,-2.4966,-2.4886,-2.4766,-2.4539,-2.4549,-2.4384,-2.4564,-2.4523,-2.4359,-2.4166,-2.3961,-2.3719,-2.3297,-2.3075,-2.291,-2.291,-2.2888,-2.2888,-2.2873,-2.2859,-2.2844,-2.2743,-2.27,-2.2345,-2.1917,-2.1177,-2.0465,-1.9957,-1.9493,-1.929,-1.9116,-1.913,-1.9145,-1.9116,-1.9116,-1.9116,-1.9116,-1.9116,-1.9116,-1.9097,-1.8969,-1.8822,-1.8664,-1.8503,-1.8282,-1.8103,-1.8003,-1.7902,-1.7922,-1.7922,-1.7922,-1.7922,-1.7942,-1.7942,-1.7983,-1.8109,-1.8274,-1.8149,-1.7922,-2.521,-2.5205,-2.521,-2.5229,-2.5338,-2.5969,-2.6784,-2.7676,-2.8497,-2.9299,-3.0013,-2.9946,-2.973,-2.9554,-2.9064,-2.8123,-2.7098,-2.6178,-2.5346,-2.4653,-2.4284,-2.4219,-2.4173,-2.4143,-2.4026,-2.3886,-2.3774,-2.366,-2.3432,-2.3329,-2.3194,-2.3187,-2.3046,-2.3415,-2.377,-2.4146,-2.4439,-2.4991,-2.5387,-2.5766,-2.6247,-2.6764,-2.6976,-2.7,-2.6856,-2.6522,-2.607,-2.5707,-2.5387,-2.5111,-2.5005,-2.5005,-2.5005,-2.5005,-2.5005,-2.5005,-2.5005,-2.4946,-2.4826,-2.458,-2.4354,-2.4151,-2.403,-2.4003,-2.3982,-2.3888,-2.3739,-2.3551,-2.3268,-2.312,-2.2978,-2.2933,-2.2888,-2.2888,-2.2888,-2.2888,-2.2888,-2.2859,-2.2859,-2.2606,-2.2207,-2.1569,-2.0814,-2.0248,-1.9972,-1.9769,-1.9609,-1.942,-1.9377,-1.913,-1.913,-1.9116,-1.9116,-1.9116,-1.9116,-1.9116,-1.9045,-1.8917,-1.8803,-1.8644,-1.8406,-1.8183,-1.8063,-1.7963,-1.7922,-1.7902,-1.7902,-1.7902,-1.7922,-1.7902,-1.7916,-1.7942,-1.8109,-1.8049,-1.7902,-2.5119,-2.5,-2.515,-2.521,-2.5249,-2.5453,-2.6001,-2.6842,-2.7676,-2.8177,-2.822,-2.8241,-2.832,-2.7943,-2.7604,-2.6919,-2.6282,-2.5625,-2.5014,-2.4505,-2.421,-2.421,-2.4125,-2.4027,-2.3878,-2.3753,-2.3606,-2.3387,-2.3176,-2.303,-2.3271,-2.3517,-2.3411,-2.4129,-2.4887,-2.5404,-2.5574,-2.5764,-2.6092,-2.6419,-2.6747,-2.7159,-2.717,-2.6924,-2.6758,-2.6333,-2.5817,-2.5577,-2.5272,-2.5084,-2.5005,-2.5005,-2.5005,-2.5005,-2.5005,-2.5005,-2.4966,-2.4906,-2.4681,-2.4559,-2.4374,-2.4046,-2.3782,-2.3595,-2.3573,-2.3573,-2.3508,-2.3355,-2.3179,-2.3008,-2.2933,-2.291,-2.2888,-2.2888,-2.2888,-2.2888,-2.2888,-2.2888,-2.2888,-2.2772,-2.2374,-2.2004,-2.1249,-2.0901,-2.064,-2.0393,-2.0117,-1.9856,-1.9566,-1.9304,-1.913,-1.9116,-1.9116,-1.9116,-1.9116,-1.9116,-1.9082,-1.9011,-1.8912,-1.8779,-1.8542,-1.8327,-1.8129,-1.8009,-1.7983,-1.7942,-1.7902,-1.7902,-1.7916,-1.7916,-1.7916,-1.7916,-1.7902,-1.7902,-1.7902,-2.494,-2.4832,-2.4946,-2.5012,-2.5012,-2.5005,-2.5316,-2.5873,-2.6719,-2.7174,-2.7402,-2.7415,-2.7231,-2.7083,-2.6698,-2.618,-2.569,-2.5143,-2.4634,-2.4413,-2.4191,-2.4134,-2.4037,-2.3878,-2.3671,-2.354,-2.3365,-2.3164,-2.2965,-2.2881,-2.3057,-2.3712,-2.3802,-2.4767,-2.5592,-2.5971,-2.6214,-2.6437,-2.6678,-2.6902,-2.7109,-2.7299,-2.7056,-2.6725,-2.6573,-2.607,-2.5594,-2.5408,-2.5188,-2.5025,-2.5005,-2.5005,-2.5005,-2.5005,-2.5005,-2.5005,-2.4985,-2.4906,-2.4766,-2.458,-2.438,-2.4114,-2.3724,-2.3471,-2.3355,-2.3312,-2.3238,-2.3127,-2.3008,-2.2888,-2.2888,-2.2888,-2.2888,-2.2888,-2.2888,-2.2888,-2.2888,-2.2888,-2.2859,-2.283,-2.2606,-2.2301,-2.1931,-2.1598,-2.1206,-2.077,-2.0378,-2.0059,-1.9725,-1.9391,-1.9203,-1.9116,-1.9116,-1.9116,-1.9116,-1.9116,-1.9082,-1.9064,-1.9026,-1.8874,-1.8659,-1.8545,-1.845,-1.8244,-1.8063,-1.8126,-1.8276,-1.8018,-1.7929,-1.8024,-1.8119,-1.8011,-1.7984,-1.7902,-1.7902,-2.47,-2.4684,-2.4681,-2.4712,-2.4689,-2.4636,-2.4599,-2.4704,-2.5524,-2.637,-2.6904,-2.6967,-2.6683,-2.6246,-2.5819,-2.5523,-2.5125,-2.469,-2.4459,-2.4257,-2.4135,-2.4047,-2.3927,-2.3782,-2.3479,-2.3223,-2.3057,-2.2947,-2.2786,-2.2767,-2.306,-2.3767,-2.3991,-2.4784,-2.5887,-2.6316,-2.6626,-2.6988,-2.7092,-2.7228,-2.7214,-2.7218,-2.7072,-2.6641,-2.6263,-2.5819,-2.5481,-2.5208,-2.5005,-2.5005,-2.5005,-2.5005,-2.5005,-2.4906,-2.4926,-2.4866,-2.4806,-2.4806,-2.4686,-2.4539,-2.4539,-2.4276,-2.3873,-2.3638,-2.3501,-2.3172,-2.3053,-2.3008,-2.291,-2.2888,-2.2888,-2.2888,-2.2888,-2.2888,-2.2888,-2.2888,-2.2888,-2.2888,-2.2873,-2.2859,-2.2786,-2.2519,-2.2396,-2.2048,-2.1989,-2.1351,-2.0901,-2.0567,-2.0074,-1.9696,-1.9391,-1.9232,-1.9116,-1.9116,-1.9116,-1.9116,-1.9116,-1.9082,-1.9121,-1.9171,-1.9102,-1.8961,-1.8784,-1.8704,-1.8686,-1.8699,-1.8739,-1.8561,-1.8527,-1.8676,-1.8615,-1.8255,-1.8133,-1.8201,-1.8174,-2.461,-2.4493,-2.4653,-2.4681,-2.4606,-2.4028,-2.381,-2.3783,-2.3843,-2.4436,-2.5026,-2.5115,-2.5076,-2.5014,-2.4875,-2.4671,-2.4485,-2.4373,-2.4265,-2.4123,-2.3998,-2.3858,-2.375,-2.3486,-2.3247,-2.3077,-2.2914,-2.2773,-2.2725,-2.2785,-2.3064,-2.3802,-2.425,-2.5178,-2.6059,-2.6523,-2.7075,-2.7234,-2.7234,-2.7202,-2.717,-2.6891,-2.6657,-2.6263,-2.5854,-2.5519,-2.5246,-2.5068,-2.5005,-2.5005,-2.5005,-2.5005,-2.4985,-2.4782,-2.4661,-2.4564,-2.4446,-2.4503,-2.4482,-2.44,-2.4395,-2.4482,-2.4261,-2.4024,-2.3683,-2.3201,-2.291,-2.291,-2.2888,-2.2888,-2.2888,-2.2888,-2.2888,-2.2888,-2.2888,-2.2888,-2.2888,-2.2888,-2.2888,-2.2888,-2.2888,-2.2809,-2.2678,-2.262,-2.2591,-2.2301,-2.1902,-2.1452,-2.0799,-2.0306,-1.9783,-1.9537,-1.9174,-1.9116,-1.9159,-1.929,-1.9391,-1.9372,-1.9397,-1.944,-1.9523,-1.948,-1.9411,-1.943,-1.9418,-1.9358,-1.9353,-1.9396,-1.9388,-1.9402,-1.9225,-1.8907,-1.8989,-1.9097,-1.8907,-2.4419,-2.433,-2.4428,-2.4471,-2.4331,-2.3613,-2.3287,-2.327,-2.3152,-2.336,-2.3803,-2.4109,-2.4257,-2.419,-2.4199,-2.4103,-2.4064,-2.4016,-2.3907,-2.3806,-2.3732,-2.358,-2.3388,-2.3235,-2.3065,-2.2902,-2.2816,-2.2712,-2.2712,-2.275,-2.306,-2.3784,-2.4574,-2.5333,-2.6092,-2.68,-2.7152,-2.7023,-2.7056,-2.6941,-2.6875,-2.6641,-2.6333,-2.5944,-2.5596,-2.5288,-2.5127,-2.5005,-2.5005,-2.5005,-2.5005,-2.5005,-2.4966,-2.4882,-2.4681,-2.4518,-2.438,-2.4234,-2.4193,-2.4151,-2.4151,-2.4281,-2.412,-2.3674,-2.3566,-2.3127,-2.291,-2.2888,-2.2888,-2.2888,-2.2888,-2.2888,-2.2888,-2.2888,-2.2888,-2.2888,-2.2888,-2.2888,-2.2888,-2.2888,-2.2888,-2.2859,-2.2794,-2.278,-2.2751,-2.2649,-2.2316,-2.2004,-2.1423,-2.0915,-2.0378,-1.9914,-1.9595,-1.9493,-1.9653,-1.9754,-1.9841,-1.9773,-1.9739,-1.9867,-2.0004,-2.0056,-2.0057,-1.9976,-1.9912,-1.9884,-1.9912,-1.9967,-2.0012,-1.9962,-1.9809,-1.96,-1.9763,-1.9863,-1.9686,-2.4209,-2.4199,-2.4199,-2.4199,-2.4052,-2.3208,-2.2822,-2.2822,-2.2832,-2.2813,-2.3006,-2.3785,-2.4124,-2.4208,-2.4151,-2.3986,-2.3865,-2.3767,-2.361,-2.35,-2.341,-2.3342,-2.3218,-2.304,-2.2906,-2.2803,-2.2725,-2.2712,-2.2712,-2.275,-2.3043,-2.375,-2.4456,-2.5195,-2.5973,-2.655,-2.6834,-2.6774,-2.6674,-2.6385,-2.635,-2.6333,-2.6016,-2.5691,-2.5427,-2.5288,-2.5088,-2.5005,-2.5005,-2.5005,-2.4985,-2.4926,-2.4826,-2.4706,-2.4467,-2.4261,-2.4046,-2.3946,-2.3903,-2.3797,-2.3882,-2.3903,-2.3573,-2.3384,-2.3319,-2.3201,-2.3008,-2.2888,-2.2888,-2.2888,-2.2888,-2.2888,-2.2888,-2.2888,-2.2888,-2.2888,-2.2888,-2.2888,-2.2888,-2.2888,-2.2888,-2.2888,-2.2888,-2.2888,-2.283,-2.2743,-2.2577,-2.2265,-2.1888,-2.1467,-2.1003,-2.0538,-2.0161,-2.0132,-2.0204,-2.0262,-2.0349,-2.0362,-2.0373,-2.0443,-2.0526,-2.0645,-2.0637,-2.04,-2.0343,-2.0439,-2.0434,-2.0446,-2.0477,-2.0518,-2.0501,-2.0365,-2.0311,-2.0406,-2.0392,-2.4199,-2.4199,-2.4199,-2.4199,-2.3961,-2.2648,-2.2033,-2.2033,-2.2042,-2.2014,-2.2383,-2.333,-2.3976,-2.4189,-2.3947,-2.3785,-2.3689,-2.3555,-2.35,-2.3421,-2.3194,-2.3151,-2.307,-2.2906,-2.2777,-2.2725,-2.2712,-2.2712,-2.2712,-2.2699,-2.2737,-2.2999,-2.3688,-2.4445,-2.5158,-2.5725,-2.6166,-2.6286,-2.628,-2.6016,-2.5744,-2.5707,-2.5654,-2.5427,-2.523,-2.5107,-2.5005,-2.5005,-2.5005,-2.5005,-2.4966,-2.4826,-2.4645,-2.4421,-2.4135,-2.3867,-2.3646,-2.3538,-2.3458,-2.3363,-2.3429,-2.3754,-2.3523,-2.3341,-2.3312,-2.3312,-2.312,-2.291,-2.2888,-2.2888,-2.2888,-2.2888,-2.2888,-2.2888,-2.2888,-2.2888,-2.2888,-2.2888,-2.2888,-2.2888,-2.2888,-2.2888,-2.2888,-2.2888,-2.2888,-2.2815,-2.2815,-2.2519,-2.2207,-2.1888,-2.1598,-2.1249,-2.0843,-2.0756,-2.0828,-2.0843,-2.0895,-2.0955,-2.0946,-2.0917,-2.1016,-2.1347,-2.1263,-2.089,-2.0943,-2.1067,-2.1033,-2.0843,-2.0979,-2.1033,-2.1169,-2.1141,-2.1006,-2.0897,-2.0843]},{"header":{"parameterUnit":"m.s-1","parameterCategory":1,"la1":31.0,"la2":29.5877,"lo1":-88.7671,"lo2":-86.6584,"dy":0.0162,"dx":0.0185,"nx":115,"ny":88,"refTime":"2025-11-04T12:00:00:Z","depth":0,"parameterNumber":3,"parameterNumberName":"V-component_of_WINDS"},"data":[0.0,0.0,0.0,0.0,0.0,0.0,0.0,0.0,0.0,0.0,0.0,0.0,0.0,0.0,0.0,0.0,0.0,0.0,0.0,0.0,0.0,0.0,0.0,0.0,0.0,0.0,0.0,0.0,0.0,0.0,0.0,0.0,0.0,0.0,0.0,0.0,0.0,0.0,0.0,0.0,0.0,0.0,0.0,0.0,0.0,0.0,0.0,0.0,0.0,0.0,0.0,0.0,0.0,0.0,0.0,0.0,0.0,0.0,0.0,0.0,0.0,0.0,0.0,0.0,0.0,0.0,0.0,0.0,0.0,0.0,0.0,0.0,0.0,0.0,0.0,0.0,0.0,0.0,0.0,0.0,0.0,0.0,0.0,0.0,0.0,0.0,0.0,0.0,0.0,0.0,0.0,0.0,0.0,0.0,0.0,0.0,0.0,0.0,0.0,0.0,0.0,0.0,0.0,0.0,0.0,0.0,0.0,0.0,0.0,0.0,0.0,0.0,0.0,0.0,0.0,0.0,0.0,0.0,0.0,0.0,0.0,0.0,0.0,0.0,0.0,0.0,0.0,0.0,0.0,0.0,0.0,0.0,0.0,0.0,0.0,0.0,0.0,0.0,0.0,0.0,0.0,0.0,0.0,0.0,0.0,0.0,0.0,0.0,0.0,0.0,0.0,0.0,0.0,0.0,0.0,0.0,0.0,0.0,0.0,0.0,0.0,0.0,0.0,0.0,0.0,0.0,0.0,0.0,0.0,0.0,0.0,0.0,0.0,0.0,0.0,0.0,0.0,0.0,0.0,0.0,0.0,0.0,0.0,0.0,0.0,0.0,0.0,0.0,0.0,0.0,0.0,0.0,0.0,0.0,0.0,0.0,0.0,0.0,0.0,0.0,0.0,0.0,0.0,0.0,0.0,0.0,0.0,0.0,0.0,0.0,0.0,0.0,0.0,0.0,0.0,0.0,0.0,0.0,0.0,0.0,0.0,0.0,0.0,0.0,0.0,0.0,0.0,0.0,0.0,0.0,0.0,0.0,0.0,0.0,0.0,0.0,0.0,0.0,0.0,0.0,0.0,0.0,0.0,0.0,0.0,0.0,0.0,0.0,0.0,0.0,0.0,0.0,0.0,0.0,0.0,0.0,0.0,0.0,0.0,0.0,0.0,0.0,0.0,0.0,0.0,0.0,0.0,0.0,0.0,0.0,0.0,0.0,0.0,0.0,0.0,0.0,0.0,0.0,0.0,0.0,0.0,0.0,0.0,0.0,0.0,0.0,0.0,0.0,0.0,0.0,0.0,0.0,0.0,0.0,0.0,0.0,0.0,0.0,0.0,0.0,0.0,0.0,0.0,0.0,0.0,0.0,0.0,0.0,0.0,0.0,0.0,0.0,0.0,0.0,0.0,0.0,0.0,0.0,0.0,0.0,0.0,0.0,0.0,0.0,0.0,0.0,0.0,0.0,0.0,0.0,0.0,0.0,0.0,0.0,0.0,0.0,0.0,0.0,0.0,0.0,0.0,0.0,0.0,0.0,0.0,0.0,0.0,0.0,0.0,0.0,0.0,0.0,0.0,0.0,0.0,0.0,0.0,0.0,0.0,0.0,0.0,0.0,0.0,0.0,0.0,0.0,0.0,0.0,0.0,0.0,0.0,0.0,0.0,0.0,0.0,0.0,0.0,0.0,0.0,0.0,0.0,0.0,0.0,0.0,0.0,0.0,0.0,0.0,0.0,0.0,0.0,0.0,0.0,0.0,0.0,0.0,0.0,0.0,0.0,0.0,0.0,0.0,0.0,0.0,0.0,0.0,0.0,0.0,0.0,0.0,0.0,0.0,0.0,0.0,0.0,0.0,0.0,0.0,0.0,0.0,0.0,0.0,0.0,0.0,0.0,0.0,0.0,0.0,0.0,0.0,0.0,0.0,0.0,0.0,0.0,0.0,0.0,0.0,0.0,0.0,0.0,0.0,0.0,0.0,0.0,0.0,0.0,0.0,0.0,0.0,0.0,0.0,0.0,0.0,0.0,0.0,0.0,0.0,0.0,0.0,0.0,0.0,0.0,0.0,0.0,0.0,0.0,0.0,0.0,0.0,0.0,0.0,0.0,0.0,0.0,0.0,0.0,0.0,0.0,0.0,0.0,0.0,0.0,0.0,0.0,0.0,0.0,0.0,0.0,0.0,0.0,0.0,0.0,0.0,0.0,0.0,0.0,0.0,0.0,0.0,0.0,0.0,0.0,0.0,0.0,0.0,0.0,0.0,0.0,0.0,0.0,0.0,0.0,0.0,0.0,0.0,0.0,0.0,0.0,0.0,0.0,0.0,0.0,0.0,0.0,0.0,0.0,0.0,0.0,0.0,0.0,0.0,0.0,0.0,0.0,0.0,0.0,0.0,0.0,0.0,0.0,0.0,0.0,0.0,0.0,0.0,0.0,0.0,0.0,0.0,0.0,0.0,0.0,0.0,0.0,0.0,0.0,0.0,0.0,0.0,0.0,0.0,0.0,0.0,0.0,0.0,0.0,0.0,0.0,0.0,0.0,0.0,0.0,0.0,0.0,0.0,0.0,0.0,0.0,0.0,0.0,0.0,0.0,0.0,0.0,0.0,0.0,0.0,0.0,0.0,0.0,0.0,0.0,0.0,0.0,0.0,0.0,0.0,0.0,0.0,0.0,0.0,0.0,0.0,0.0,0.0,0.0,0.0,0.0,0.0,0.0,0.0,0.0,0.0,0.0,0.0,0.0,0.0,0.0,0.0,0.0,0.0,0.0,0.0,0.0,0.0,0.0,0.0,0.0,0.0,0.0,0.0,0.0,0.0,0.0,0.0,0.0,0.0,0.0,0.0,0.0,0.0,0.0,0.0,0.0,0.0,0.0,0.0,0.0,0.0,0.0,0.0,0.0,0.0,0.0,0.0,0.0,0.0,0.0,0.0,0.0,0.0,0.0,0.0,0.0,0.0,0.0,0.0,0.0,0.0,0.0,0.0,0.0,0.0,0.0,0.0,0.0,0.0,0.0,0.0,0.0,0.0,0.0,0.0,0.0,0.0,0.0,0.0,0.0,0.0,0.0,0.0,0.0,0.0,0.0,0.0,0.0,0.0,0.0,0.0,0.0,0.0,0.0,0.0,0.0,0.0,0.0,0.0,0.0,0.0,0.0,0.0,0.0,0.0,0.0,0.0,0.0,0.0,0.0,0.0,0.0,0.0,0.0,0.0,0.0,0.0,0.0,0.0,0.0,0.0,0.0,0.0,0.0,0.0,0.0,0.0,0.0,0.0,0.0,0.0,0.0,0.0,0.0,0.0,0.0,0.0,0.0,0.0,0.0,0.0,0.0,0.0,0.0,0.0,0.0,0.0,0.0,0.0,0.0,0.0,0.0,0.0,0.0,0.0,0.0,0.0,0.0,0.0,0.0,0.0,0.0,0.0,0.0,0.0,0.0,0.0,0.0,0.0,0.0,0.0,0.0,0.0,0.0,0.0,0.0,0.0,0.0,0.0,0.0,0.0,0.0,0.0,0.0,0.0,0.0,0.0,0.0,0.0,0.0,0.0,0.0,0.0,0.0,0.0,0.0,0.0,0.0,0.0,0.0,0.0,0.0,0.0,0.0,0.0,0.0,0.0,0.0,0.0,0.0,0.0,0.0,0.0,0.0,0.0,0.0,0.0,0.0,0.0,0.0,0.0,0.0,0.0,0.0,0.0,0.0,0.0,0.0,0.0,0.0,0.0,0.0,0.0,0.0,0.0,0.0,0.0,0.0,0.0,0.0,0.0,0.0,0.0,0.0,0.0,0.0,0.0,0.0,0.0,0.0,0.0,0.0,0.0,0.0,0.0,0.0,0.0,0.0,0.0,0.0,0.0,0.0,0.0,0.0,0.0,0.0,0.0,0.0,0.0,0.0,0.0,0.0,0.0,0.0,0.0,0.0,0.0,0.0,0.0,0.0,0.0,0.0,0.0,0.0,0.0,0.0,0.0,0.0,0.0,0.0,0.0,0.0,0.0,0.0,0.0,0.0,0.0,0.0,0.0,0.0,0.0,0.0,0.0,0.0,0.0,0.0,0.0,0.0,0.0,0.0,0.0,0.0,0.0,0.0,0.0,0.0,0.0,0.0,0.0,0.0,0.0,0.0,0.0,0.0,0.0,0.0,0.0,0.0,0.0,0.0,0.0,0.0,0.0,0.0,0.0,0.0,0.0,0.0,0.0,0.0,0.0,0.0,0.0,0.0,0.0,0.0,0.0,0.0,0.0,0.0,0.0,0.0,0.0,0.0,0.0,0.0,0.0,-1.031,0.0,0.0,0.0,0.0,0.0,0.0,0.0,0.0,0.0,0.0,0.0,0.0,0.0,0.0,0.0,0.0,0.0,0.0,0.0,0.0,0.0,0.0,0.0,0.0,0.0,0.0,0.0,0.0,0.0,0.0,0.0,0.0,0.0,0.0,0.0,0.0,0.0,0.0,0.0,0.0,0.0,0.0,0.0,0.0,0.0,0.0,0.0,0.0,0.0,0.0,0.0,0.0,0.0,0.0,0.0,0.0,0.0,0.0,0.0,0.0,0.0,0.0,0.0,0.0,0.0,0.0,0.0,0.0,0.0,0.0,0.0,0.0,0.0,0.0,0.0,0.0,0.0,0.0,0.0,0.0,0.0,0.0,0.0,0.0,0.0,0.0,0.0,0.0,0.0,0.0,0.0,0.0,0.0,0.0,0.0,0.0,0.0,0.0,0.0,0.0,0.0,0.0,0.0,0.0,0.0,0.0,0.0,0.0,0.0,0.0,-1.1775,-1.0585,-1.0761,-1.0641,-1.0106,0.0,0.0,0.0,0.0,0.0,0.0,0.0,0.0,0.0,0.0,0.0,0.0,0.0,0.0,0.0,0.0,0.0,0.0,0.0,0.0,0.0,0.0,0.0,0.0,0.0,0.0,0.0,0.0,0.0,0.0,0.0,0.0,0.0,0.0,0.0,0.0,0.0,0.0,0.0,0.0,0.0,0.0,0.0,0.0,0.0,0.0,0.0,0.0,0.0,0.0,0.0,0.0,0.0,0.0,0.0,0.0,0.0,0.0,0.0,0.0,0.0,0.0,0.0,0.0,0.0,0.0,0.0,0.0,0.0,0.0,0.0,0.0,0.0,0.0,0.0,0.0,0.0,0.0,0.0,0.0,0.0,0.0,0.0,0.0,0.0,0.0,0.0,0.0,0.0,0.0,0.0,0.0,0.0,0.0,0.0,0.0,0.0,0.0,0.0,0.0,0.0,0.0,0.0,0.0,0.0,0.0,0.0,0.0,0.0,0.0,0.0,0.0,-1.1184,-1.0912,-1.0202,0.0,0.0,0.0,0.0,0.0,0.0,0.0,0.0,0.0,0.0,0.0,0.0,0.0,0.0,0.0,0.0,0.0,0.0,0.0,0.0,0.0,0.0,0.0,0.0,0.0,0.0,0.0,0.0,0.0,0.0,0.0,0.0,0.0,0.0,0.0,0.0,0.0,0.0,0.0,0.0,0.0,0.0,0.0,0.0,0.0,0.0,0.0,0.0,0.0,0.0,0.0,0.0,0.0,0.0,0.0,0.0,0.0,0.0,0.0,0.0,0.0,0.0,0.0,0.0,0.0,0.0,0.0,0.0,0.0,0.0,0.0,0.0,0.0,0.0,0.0,0.0,0.0,0.0,0.0,0.0,0.0,0.0,0.0,0.0,0.0,0.0,0.0,0.0,0.0,0.0,0.0,0.0,0.0,0.0,0.0,0.0,0.0,0.0,0.0,0.0,0.0,0.0,0.0,0.0,0.0,0.0,0.0,0.0,0.0,0.0,-1.1749,-1.1793,-1.1784,0.0,-1.1014,0.0,0.0,0.0,0.0,0.0,0.0,0.0,0.0,0.0,0.0,0.0,0.0,0.0,0.0,0.0,0.0,0.0,0.0,0.0,0.0,0.0,0.0,0.0,0.0,0.0,0.0,0.0,0.0,0.0,0.0,0.0,0.0,0.0,0.0,0.0,0.0,0.0,0.0,0.0,0.0,0.0,0.0,0.0,0.0,0.0,0.0,0.0,0.0,0.0,0.0,0.0,0.0,0.0,0.0,0.0,0.0,0.0,0.0,0.0,0.0,0.0,0.0,0.0,0.0,0.0,0.0,0.0,0.0,0.0,0.0,0.0,0.0,0.0,0.0,0.0,0.0,0.0,0.0,0.0,0.0,0.0,0.0,0.0,0.0,0.0,0.0,0.0,0.0,0.0,0.0,0.0,0.0,0.0,0.0,0.0,0.0,0.0,0.0,0.0,0.0,0.0,0.0,0.0,0.0,0.0,0.0,0.0,0.0,0.0,0.0,0.0,-1.1914,-1.1423,-1.114,0.0,0.0,0.0,0.0,0.0,0.0,0.0,0.0,0.0,0.0,0.0,0.0,0.0,0.0,0.0,0.0,0.0,0.0,0.0,0.0,0.0,0.0,0.0,0.0,0.0,0.0,0.0,0.0,0.0,0.0,0.0,0.0,0.0,0.0,0.0,0.0,0.0,0.0,0.0,0.0,0.0,0.0,0.0,0.0,0.0,0.0,0.0,0.0,0.0,0.0,0.0,0.0,0.0,0.0,0.0,0.0,0.0,0.0,0.0,0.0,0.0,0.0,0.0,0.0,0.0,0.0,0.0,0.0,0.0,0.0,0.0,0.0,0.0,0.0,0.0,0.0,0.0,0.0,0.0,0.0,0.0,0.0,0.0,0.0,0.0,0.0,0.0,0.0,0.0,0.0,0.0,0.0,0.0,0.0,0.0,0.0,0.0,0.0,0.0,0.0,0.0,0.0,0.0,0.0,0.0,0.0,0.0,0.0,0.0,0.0,-1.1661,0.0,-1.1964,-1.1534,-1.1146,-1.0972,0.0,0.0,0.0,0.0,0.0,0.0,0.0,0.0,0.0,0.0,0.0,0.0,0.0,0.0,0.0,0.0,0.0,0.0,0.0,0.0,0.0,0.0,0.0,0.0,0.0,0.0,0.0,0.0,0.0,0.0,0.0,0.0,0.0,0.0,0.0,0.0,0.0,0.0,0.0,0.0,0.0,0.0,0.0,0.0,0.0,0.0,0.0,0.0,0.0,0.0,0.0,0.0,0.0,0.0,0.0,0.0,0.0,0.0,0.0,0.0,0.0,0.0,0.0,0.0,0.0,0.0,0.0,0.0,0.0,0.0,0.0,0.0,0.0,0.0,0.0,0.0,0.0,0.0,0.0,0.0,0.0,0.0,0.0,0.0,0.0,0.0,0.0,0.0,0.0,0.0,0.0,0.0,0.0,0.0,0.0,0.0,0.0,0.0,0.0,0.0,0.0,0.0,0.0,0.0,0.0,0.0,0.0,0.0,0.0,-1.1976,-1.2,-1.2294,-1.2499,-1.2023,0.0,0.0,0.0,0.0,0.0,0.0,0.0,0.0,0.0,0.0,0.0,0.0,0.0,0.0,0.0,0.0,0.0,0.0,0.0,0.0,0.0,0.0,0.0,0.0,0.0,0.0,0.0,0.0,0.0,0.0,0.0,0.0,0.0,0.0,0.0,0.0,0.0,0.0,0.0,0.0,0.0,0.0,0.0,0.0,0.0,0.0,0.0,0.0,0.0,0.0,0.0,0.0,0.0,0.0,0.0,0.0,0.0,0.0,0.0,0.0,0.0,0.0,0.0,0.0,0.0,0.0,0.0,0.0,0.0,0.0,0.0,0.0,0.0,0.0,0.0,0.0,0.0,0.0,0.0,0.0,0.0,0.0,0.0,0.0,0.0,0.0,0.0,0.0,0.0,0.0,0.0,0.0,0.0,0.0,0.0,0.0,0.0,0.0,0.0,0.0,0.0,0.0,0.0,0.0,0.0,0.0,0.0,0.0,0.0,-1.1312,-1.1697,-1.2175,-1.2783,-1.2095,-1.1455,0.0,0.0,0.0,0.0,0.0,0.0,0.0,0.0,0.0,0.0,0.0,0.0,0.0,0.0,0.0,0.0,0.0,0.0,0.0,0.0,0.0,0.0,0.0,0.0,0.0,0.0,0.0,0.0,0.0,0.0,0.0,0.0,0.0,0.0,0.0,0.0,0.0,0.0,0.0,0.0,0.0,0.0,0.0,0.0,0.0,0.0,0.0,0.0,0.0,0.0,0.0,0.0,0.0,0.0,0.0,0.0,0.0,0.0,0.0,0.0,0.0,0.0,0.0,0.0,0.0,0.0,0.0,0.0,0.0,0.0,0.0,0.0,0.0,0.0,0.0,0.0,0.0,0.0,0.0,0.0,0.0,0.0,0.0,0.0,0.0,0.0,0.0,0.0,0.0,0.0,0.0,0.0,0.0,0.0,0.0,0.0,0.0,0.0,0.0,0.0,0.0,0.0,0.0,0.0,0.0,0.0,0.0,0.0,0.0,-1.0683,0.0,-1.1732,0.0,-1.1243,-1.0671,0.0,0.0,0.0,0.0,0.0,0.0,0.0,0.0,0.0,0.0,0.0,0.0,0.0,0.0,0.0,0.0,0.0,0.0,0.0,0.0,0.0,0.0,0.0,0.0,0.0,0.0,0.0,0.0,0.0,0.0,0.0,0.0,0.0,0.0,0.0,0.0,0.0,0.0,0.0,0.0,0.0,0.0,0.0,0.0,0.0,0.0,0.0,0.0,0.0,0.0,0.0,0.0,0.0,0.0,0.0,0.0,0.0,0.0,0.0,0.0,0.0,0.0,0.0,0.0,0.0,0.0,0.0,0.0,0.0,0.0,0.0,0.0,0.0,0.0,0.0,0.0,0.0,0.0,0.0,0.0,0.0,0.0,0.0,0.0,0.0,0.0,0.0,0.0,0.0,0.0,0.0,0.0,0.0,0.0,0.0,0.0,0.0,0.0,0.0,0.0,0.0,0.0,0.0,0.0,0.0,0.0,0.0,0.0,-1.0391,-1.0506,-1.1036,-1.0684,-0.9216,-1.0072,-0.9782,0.0,0.0,0.0,0.0,0.0,0.0,0.0,0.0,0.0,0.0,0.0,0.0,0.0,0.0,0.0,0.0,0.0,0.0,0.0,0.0,0.0,0.0,0.0,0.0,0.0,0.0,0.0,0.0,0.0,0.0,0.0,0.0,0.0,0.0,0.0,0.0,0.0,0.0,0.0,0.0,0.0,0.0,0.0,0.0,0.0,0.0,0.0,0.0,0.0,0.0,0.0,0.0,0.0,0.0,0.0,0.0,0.0,0.0,0.0,0.0,0.0,0.0,0.0,0.0,0.0,0.0,0.0,0.0,0.0,0.0,0.0,0.0,0.0,0.0,0.0,0.0,0.0,0.0,0.0,0.0,0.0,0.0,0.0,0.0,0.0,0.0,0.0,0.0,0.0,0.0,0.0,0.0,0.0,0.0,0.0,0.0,0.0,0.0,0.0,0.0,0.0,0.0,0.0,0.0,0.0,0.0,0.0,0.0,0.0,-1.0005,-1.0463,-1.0714,-1.0585,-0.9998,-0.9834,0.0,0.0,0.0,0.0,0.0,0.0,0.0,0.0,0.0,0.0,0.0,0.0,0.0,0.0,0.0,0.0,0.0,0.0,0.0,0.0,0.0,0.0,0.0,0.0,0.0,0.0,0.0,0.0,0.0,0.0,0.0,0.0,0.0,0.0,0.0,0.0,0.0,0.0,0.0,0.0,0.0,0.0,0.0,0.0,0.0,0.0,0.0,0.0,0.0,0.0,0.0,0.0,0.0,0.0,0.0,0.0,0.0,0.0,0.0,0.0,0.0,0.0,0.0,0.0,0.0,0.0,0.0,0.0,0.0,0.0,0.0,0.0,0.0,0.0,0.0,0.0,0.0,0.0,0.0,0.0,0.0,0.0,0.0,0.0,0.0,0.0,0.0,0.0,0.0,0.0,0.0,0.0,0.0,0.0,0.0,0.0,0.0,0.0,0.0,0.0,0.0,0.0,0.0,0.0,0.0,0.0,0.0,0.0,0.0,-1.0192,-1.068,-1.0889,-1.0756,-1.0103,-0.9877,-1.0125,0.0,0.0,0.0,0.0,0.0,0.0,0.0,0.0,0.0,0.0,0.0,0.0,0.0,0.0,0.0,0.0,0.0,0.0,0.0,0.0,0.0,0.0,0.0,0.0,0.0,0.0,0.0,0.0,0.0,0.0,0.0,0.0,0.0,0.0,0.0,0.0,0.0,0.0,0.0,0.0,0.0,0.0,0.0,0.0,0.0,0.0,0.0,0.0,0.0,0.0,0.0,0.0,0.0,0.0,0.0,0.0,0.0,0.0,0.0,0.0,0.0,0.0,0.0,0.0,0.0,0.0,0.0,0.0,0.0,0.0,0.0,0.0,0.0,0.0,0.0,0.0,0.0,0.0,0.0,0.0,0.0,0.0,0.0,0.0,0.0,0.0,0.0,0.0,0.0,0.0,0.0,0.0,0.0,0.0,0.0,0.0,0.0,0.0,0.0,0.0,0.0,0.0,0.0,0.0,0.0,0.0,0.0,0.0,-1.0972,-1.1543,-1.1275,-1.0114,-1.0336,-0.9932,0.0,0.0,0.0,0.0,0.0,0.0,0.0,0.0,0.0,0.0,0.0,0.0,0.0,0.0,0.0,0.0,0.0,0.0,0.0,0.0,0.0,0.0,0.0,0.0,0.0,0.0,0.0,0.0,0.0,0.0,0.0,0.0,0.0,0.0,0.0,0.0,0.0,0.0,0.0,0.0,0.0,0.0,0.0,0.0,0.0,0.0,0.0,0.0,0.0,0.0,0.0,0.0,0.0,0.0,0.0,0.0,0.0,0.0,0.0,0.0,0.0,0.0,0.0,0.0,0.0,0.0,0.0,0.0,0.0,0.0,0.0,0.0,0.0,0.0,0.0,0.0,0.0,0.0,0.0,0.0,0.0,0.0,0.0,0.0,0.0,0.0,0.0,0.0,0.0,0.0,0.0,0.0,0.0,0.0,0.0,0.0,0.0,0.0,0.0,0.0,0.0,0.0,0.0,0.0,0.0,0.0,0.0,0.0,0.0,-1.1993,-1.2856,-1.2751,-1.1557,-1.0873,-1.0628,0.0,0.0,0.0,0.0,0.0,0.0,0.0,0.0,0.0,0.0,0.0,0.0,0.0,0.0,0.0,0.0,0.0,0.0,0.0,0.0,0.0,0.0,0.0,0.0,0.0,0.0,0.0,0.0,0.0,0.0,0.0,0.0,0.0,0.0,0.0,0.0,0.0,0.0,0.0,0.0,0.0,0.0,0.0,0.0,0.0,0.0,0.0,0.0,0.0,0.0,0.0,0.0,0.0,0.0,0.0,0.0,0.0,0.0,0.0,0.0,0.0,0.0,0.0,0.0,0.0,0.0,0.0,0.0,0.0,0.0,0.0,0.0,0.0,0.0,0.0,0.0,0.0,0.0,0.0,0.0,0.0,0.0,0.0,0.0,0.0,0.0,0.0,0.0,0.0,0.0,0.0,0.0,0.0,0.0,0.0,0.0,0.0,0.0,0.0,0.0,0.0,0.0,0.0,0.0,0.0,0.0,0.0,0.0,-1.2466,-1.2649,-1.3456,-1.3495,-1.2723,-1.211,-1.1781,0.0,0.0,0.0,0.0,0.0,0.0,0.0,0.0,0.0,0.0,0.0,0.0,0.0,0.0,0.0,0.0,0.0,0.0,0.0,0.0,0.0,0.0,0.0,0.0,0.0,0.0,0.0,0.0,0.0,0.0,0.0,0.0,0.0,0.0,0.0,0.0,0.0,0.0,0.0,0.0,0.0,0.0,0.0,0.0,0.0,0.0,0.0,0.0,0.0,0.0,0.0,0.0,0.0,0.0,0.0,0.0,0.0,0.0,0.0,0.0,0.0,0.0,0.0,0.0,0.0,0.0,0.0,0.0,0.0,0.0,0.0,0.0,0.0,0.0,0.0,0.0,0.0,0.0,0.0,0.0,0.0,0.0,0.0,0.0,0.0,0.0,0.0,0.0,0.0,0.0,0.0,0.0,0.0,0.0,0.0,0.0,0.0,0.0,0.0,0.0,0.0,0.0,0.0,0.0,0.0,0.0,0.0,0.0,-1.2547,-1.3056,-1.3621,-1.3795,-1.3571,-1.3459,-1.2936,0.0,0.0,0.0,0.0,0.0,0.0,0.0,0.0,0.0,0.0,0.0,0.0,0.0,0.0,0.0,0.0,0.0,0.0,0.0,0.0,0.0,0.0,0.0,0.0,0.0,0.0,0.0,0.0,0.0,0.0,0.0,0.0,0.0,0.0,0.0,0.0,0.0,0.0,0.0,0.0,0.0,0.0,0.0,0.0,0.0,0.0,0.0,0.0,0.0,0.0,0.0,0.0,0.0,0.0,0.0,0.0,0.0,0.0,0.0,0.0,0.0,0.0,0.0,0.0,0.0,0.0,0.0,0.0,0.0,0.0,0.0,0.0,0.0,0.0,0.0,0.0,0.0,0.0,0.0,0.0,0.0,0.0,0.0,0.0,0.0,0.0,0.0,0.0,0.0,0.0,0.0,0.0,0.0,0.0,0.0,0.0,0.0,0.0,0.0,0.0,0.0,0.0,0.0,0.0,0.0,0.0,0.0,0.0,-1.2926,-1.2728,-1.3655,-1.4035,-1.3837,-1.3191,-1.2716,0.0,0.0,0.0,0.0,0.0,0.0,0.0,0.0,0.0,0.0,0.0,0.0,0.0,0.0,0.0,0.0,0.0,0.0,0.0,0.0,0.0,0.0,0.0,0.0,0.0,0.0,0.0,0.0,0.0,0.0,0.0,0.0,0.0,0.0,0.0,0.0,0.0,0.0,0.0,0.0,0.0,0.0,0.0,0.0,0.0,0.0,0.0,0.0,-1.6101,0.0,0.0,0.0,0.0,0.0,0.0,0.0,0.0,0.0,0.0,0.0,0.0,0.0,0.0,0.0,0.0,0.0,0.0,0.0,0.0,0.0,0.0,0.0,0.0,0.0,0.0,0.0,0.0,0.0,0.0,0.0,0.0,0.0,0.0,0.0,0.0,0.0,0.0,0.0,0.0,0.0,0.0,0.0,0.0,0.0,0.0,0.0,0.0,0.0,0.0,0.0,0.0,0.0,0.0,0.0,0.0,0.0,0.0,0.0,-1.3007,-1.3136,-1.3708,-1.3951,-1.3843,-1.3318,-1.2895,0.0,0.0,0.0,0.0,0.0,0.0,0.0,0.0,0.0,0.0,0.0,0.0,0.0,0.0,0.0,0.0,0.0,0.0,0.0,0.0,0.0,0.0,0.0,0.0,0.0,0.0,0.0,0.0,0.0,0.0,0.0,0.0,0.0,0.0,0.0,0.0,0.0,0.0,0.0,0.0,0.0,0.0,0.0,0.0,0.0,0.0,0.0,0.0,0.0,0.0,0.0,0.0,0.0,0.0,0.0,0.0,0.0,0.0,0.0,0.0,0.0,0.0,0.0,0.0,0.0,0.0,0.0,0.0,0.0,0.0,0.0,0.0,0.0,0.0,0.0,0.0,0.0,0.0,0.0,0.0,0.0,0.0,0.0,0.0,0.0,0.0,0.0,0.0,0.0,0.0,0.0,0.0,0.0,0.0,0.0,0.0,0.0,0.0,0.0,0.0,0.0,0.0,0.0,0.0,0.0,0.0,0.0,-1.2213,-1.2932,-1.3652,-1.3774,-1.3828,-1.3785,-1.3561,-1.3243,-1.2741,0.0,0.0,0.0,0.0,0.0,0.0,0.0,0.0,0.0,0.0,0.0,0.0,0.0,0.0,0.0,0.0,0.0,0.0,0.0,0.0,0.0,0.0,0.0,0.0,0.0,0.0,0.0,0.0,0.0,0.0,0.0,0.0,0.0,0.0,0.0,0.0,0.0,0.0,-1.5799,-1.6862,0.0,0.0,0.0,0.0,0.0,0.0,0.0,0.0,-1.7321,0.0,0.0,0.0,0.0,0.0,0.0,0.0,0.0,0.0,0.0,0.0,0.0,0.0,0.0,0.0,0.0,0.0,0.0,0.0,0.0,0.0,0.0,0.0,0.0,0.0,0.0,0.0,0.0,0.0,0.0,0.0,0.0,0.0,0.0,0.0,0.0,0.0,0.0,0.0,0.0,0.0,0.0,0.0,0.0,0.0,0.0,0.0,0.0,0.0,0.0,0.0,0.0,0.0,0.0,0.0,0.0,-1.2131,-1.2277,-1.2743,-1.3612,-1.3917,-1.3936,-1.3717,-1.3672,-1.3138,-1.2043,0.0,0.0,0.0,0.0,0.0,0.0,0.0,0.0,0.0,0.0,0.0,0.0,0.0,0.0,0.0,0.0,0.0,0.0,0.0,0.0,0.0,0.0,0.0,0.0,0.0,0.0,0.0,0.0,0.0,0.0,0.0,0.0,0.0,0.0,0.0,0.0,0.0,0.0,0.0,-1.7468,-1.7981,0.0,0.0,0.0,0.0,0.0,0.0,0.0,0.0,-1.7734,0.0,0.0,0.0,0.0,0.0,0.0,0.0,0.0,0.0,0.0,0.0,0.0,0.0,0.0,0.0,0.0,0.0,0.0,0.0,0.0,0.0,0.0,0.0,0.0,0.0,0.0,0.0,0.0,0.0,0.0,0.0,0.0,0.0,0.0,0.0,0.0,0.0,0.0,0.0,0.0,0.0,0.0,0.0,0.0,0.0,0.0,0.0,0.0,0.0,0.0,0.0,0.0,0.0,0.0,0.0,-1.1711,-1.2302,-1.2935,-1.3586,-1.3657,-1.3688,-1.3633,-1.3391,-1.2706,0.0,0.0,0.0,0.0,0.0,0.0,0.0,0.0,0.0,0.0,0.0,0.0,0.0,0.0,0.0,0.0,0.0,0.0,0.0,0.0,0.0,0.0,0.0,0.0,0.0,0.0,0.0,0.0,0.0,0.0,0.0,0.0,0.0,0.0,0.0,0.0,0.0,0.0,0.0,0.0,-1.7917,-1.8466,-1.8667,0.0,0.0,0.0,0.0,0.0,0.0,-1.7954,-1.7954,0.0,0.0,0.0,0.0,0.0,0.0,0.0,0.0,0.0,0.0,0.0,0.0,0.0,0.0,0.0,0.0,0.0,0.0,0.0,0.0,0.0,0.0,0.0,0.0,0.0,0.0,0.0,0.0,0.0,0.0,0.0,0.0,0.0,0.0,0.0,0.0,0.0,0.0,0.0,0.0,0.0,0.0,0.0,0.0,0.0,0.0,0.0,0.0,0.0,0.0,0.0,0.0,0.0,0.0,0.0,-1.1162,-1.2037,-1.2792,-1.3403,-1.3254,-1.3228,-1.3385,-1.2987,-1.2294,0.0,0.0,0.0,0.0,0.0,0.0,0.0,0.0,0.0,0.0,0.0,0.0,0.0,0.0,0.0,0.0,0.0,0.0,0.0,0.0,0.0,0.0,0.0,0.0,0.0,0.0,0.0,0.0,0.0,0.0,0.0,0.0,0.0,0.0,0.0,0.0,0.0,0.0,0.0,0.0,0.0,-1.9036,-1.9265,-1.8696,0.0,0.0,0.0,0.0,-1.8412,-1.8457,0.0,0.0,0.0,0.0,0.0,0.0,0.0,0.0,0.0,0.0,0.0,0.0,0.0,0.0,0.0,0.0,0.0,0.0,0.0,0.0,0.0,0.0,0.0,0.0,0.0,0.0,0.0,0.0,0.0,0.0,0.0,0.0,0.0,0.0,0.0,0.0,0.0,0.0,0.0,0.0,0.0,0.0,0.0,0.0,0.0,0.0,0.0,0.0,0.0,0.0,0.0,0.0,0.0,0.0,0.0,0.0,-1.085,-1.1083,-1.1737,-1.2977,-1.2783,-1.2696,-1.2736,-1.2616,-1.2035,0.0,0.0,0.0,0.0,0.0,0.0,0.0,0.0,0.0,0.0,0.0,0.0,0.0,0.0,0.0,0.0,0.0,0.0,0.0,0.0,0.0,0.0,0.0,0.0,0.0,0.0,0.0,0.0,0.0,0.0,0.0,0.0,0.0,0.0,0.0,0.0,0.0,0.0,0.0,0.0,0.0,-1.9628,-1.9347,-1.8926,-1.877,0.0,0.0,-1.8843,-1.9564,-1.9683,0.0,0.0,0.0,0.0,0.0,0.0,0.0,0.0,0.0,0.0,0.0,0.0,0.0,0.0,0.0,0.0,0.0,0.0,0.0,0.0,0.0,0.0,0.0,0.0,0.0,0.0,0.0,0.0,0.0,0.0,0.0,0.0,0.0,0.0,0.0,0.0,0.0,0.0,0.0,0.0,0.0,0.0,0.0,0.0,0.0,0.0,0.0,0.0,0.0,0.0,0.0,0.0,0.0,0.0,0.0,-0.9443,-1.0518,-1.0968,-1.1651,-1.2515,-1.2275,-1.2219,-1.2375,-1.1856,-1.1278,0.0,0.0,0.0,0.0,0.0,0.0,0.0,0.0,0.0,0.0,0.0,0.0,0.0,0.0,0.0,0.0,0.0,0.0,0.0,0.0,0.0,0.0,0.0,0.0,0.0,0.0,0.0,0.0,0.0,0.0,0.0,0.0,0.0,0.0,0.0,0.0,0.0,0.0,0.0,0.0,0.0,0.0,-1.9952,-1.965,0.0,0.0,0.0,-1.9787,-1.9875,0.0,0.0,0.0,0.0,0.0,0.0,0.0,0.0,0.0,0.0,0.0,0.0,0.0,0.0,0.0,0.0,0.0,0.0,0.0,0.0,0.0,0.0,0.0,0.0,0.0,0.0,0.0,0.0,0.0,0.0,0.0,0.0,0.0,0.0,0.0,0.0,0.0,0.0,0.0,0.0,0.0,0.0,0.0,0.0,0.0,0.0,0.0,0.0,0.0,0.0,0.0,0.0,0.0,0.0,0.0,0.0,0.0,-1.0201,-1.0799,-1.1416,-1.1979,-1.1769,-1.1732,-1.1878,-1.1222,0.0,0.0,0.0,0.0,0.0,0.0,0.0,0.0,0.0,0.0,0.0,0.0,0.0,0.0,0.0,0.0,0.0,0.0,0.0,0.0,0.0,0.0,0.0,0.0,0.0,0.0,0.0,-1.4389,0.0,0.0,0.0,0.0,0.0,0.0,0.0,0.0,0.0,0.0,0.0,0.0,0.0,0.0,-1.9824,-2.0438,-2.0347,-2.0323,0.0,0.0,-2.0369,-2.0085,-2.0369,-2.0218,0.0,0.0,0.0,0.0,0.0,0.0,0.0,0.0,0.0,0.0,0.0,0.0,0.0,0.0,0.0,0.0,0.0,0.0,0.0,0.0,0.0,0.0,0.0,0.0,0.0,0.0,0.0,0.0,0.0,0.0,0.0,0.0,0.0,0.0,0.0,0.0,0.0,0.0,0.0,0.0,0.0,0.0,0.0,0.0,0.0,0.0,0.0,0.0,0.0,0.0,0.0,0.0,0.0,0.0,0.0,-0.9898,-1.023,-1.0761,-1.1524,-1.1274,-1.1179,-1.1167,-1.083,-1.0536,0.0,0.0,0.0,0.0,0.0,0.0,0.0,0.0,0.0,0.0,0.0,0.0,0.0,0.0,0.0,0.0,0.0,0.0,0.0,0.0,0.0,0.0,0.0,0.0,0.0,0.0,0.0,0.0,0.0,0.0,0.0,0.0,0.0,0.0,0.0,0.0,0.0,0.0,0.0,0.0,0.0,-2.0406,-2.0512,-2.0805,-2.1172,0.0,0.0,-2.0512,-2.0484,-2.0805,-2.0539,-1.8962,0.0,0.0,0.0,0.0,0.0,0.0,0.0,0.0,0.0,0.0,0.0,0.0,0.0,0.0,0.0,0.0,0.0,0.0,0.0,0.0,0.0,0.0,0.0,0.0,0.0,0.0,0.0,0.0,0.0,0.0,0.0,0.0,0.0,0.0,0.0,0.0,0.0,0.0,0.0,0.0,0.0,0.0,0.0,0.0,0.0,0.0,0.0,0.0,0.0,0.0,0.0,0.0,0.0,-0.8471,-0.9648,-1.0075,-1.0635,-1.12,-1.1128,-1.1033,-1.087,-1.0555,-1.0184,0.0,0.0,0.0,0.0,0.0,0.0,0.0,0.0,0.0,0.0,0.0,0.0,0.0,0.0,0.0,0.0,0.0,0.0,0.0,0.0,0.0,0.0,0.0,0.0,0.0,0.0,0.0,0.0,-1.6749,-1.6782,-1.6919,0.0,0.0,0.0,0.0,0.0,0.0,0.0,0.0,0.0,0.0,-2.0287,-2.0814,-2.1007,0.0,0.0,-2.1421,-2.1229,-2.1229,-2.097,-2.0365,-1.9256,-1.7999,0.0,0.0,0.0,0.0,0.0,0.0,0.0,0.0,0.0,0.0,0.0,0.0,0.0,0.0,0.0,0.0,0.0,0.0,0.0,0.0,0.0,0.0,0.0,0.0,0.0,0.0,0.0,0.0,0.0,0.0,0.0,0.0,0.0,0.0,0.0,0.0,0.0,0.0,0.0,0.0,0.0,0.0,0.0,0.0,0.0,0.0,0.0,0.0,0.0,0.0,0.0,0.0,-0.853,-0.9472,-1.0033,-1.0509,-1.0954,-1.0997,-1.087,-1.0575,-1.0316,-0.995,0.0,0.0,0.0,0.0,0.0,0.0,0.0,0.0,0.0,0.0,0.0,0.0,0.0,0.0,0.0,0.0,0.0,0.0,0.0,0.0,0.0,0.0,0.0,0.0,0.0,0.0,0.0,0.0,-1.7073,-1.6782,-1.6022,0.0,0.0,0.0,0.0,0.0,0.0,0.0,0.0,0.0,0.0,-2.053,-2.1156,-2.1291,-2.1438,-2.1806,-2.1559,-2.133,-2.1321,-2.0839,-2.0136,-1.9335,0.0,0.0,0.0,0.0,0.0,0.0,0.0,0.0,0.0,0.0,0.0,0.0,0.0,0.0,0.0,0.0,0.0,0.0,0.0,0.0,0.0,0.0,0.0,0.0,0.0,0.0,0.0,-0.9441,0.0,0.0,-1.11,0.0,0.0,0.0,0.0,0.0,0.0,0.0,0.0,0.0,0.0,0.0,0.0,0.0,0.0,0.0,0.0,0.0,0.0,0.0,0.0,0.0,0.0,-0.8675,-0.951,-1.0027,-1.0418,-1.0725,-1.0695,-1.0569,-1.031,-1.0051,-0.988,-0.9779,0.0,0.0,0.0,0.0,0.0,0.0,0.0,0.0,0.0,0.0,0.0,0.0,0.0,0.0,0.0,0.0,0.0,0.0,0.0,0.0,0.0,0.0,0.0,0.0,0.0,0.0,-1.6144,-1.5768,-1.511,0.0,0.0,0.0,0.0,0.0,0.0,0.0,0.0,0.0,0.0,-2.0527,-2.1227,-2.1586,-2.1659,-2.1823,-2.2226,-2.1319,-2.0567,-2.0585,-2.0375,-1.9932,0.0,0.0,0.0,0.0,0.0,0.0,0.0,0.0,0.0,0.0,0.0,0.0,0.0,0.0,0.0,0.0,0.0,0.0,0.0,0.0,0.0,0.0,0.0,0.0,0.0,0.0,0.0,-0.9622,-0.9638,0.0,0.0,0.0,0.0,0.0,0.0,0.0,0.0,0.0,0.0,0.0,-1.0839,-1.1092,0.0,0.0,0.0,0.0,0.0,0.0,0.0,0.0,0.0,0.0,0.0,0.0,-0.88,-0.97,-0.9949,-1.0244,-1.0665,-1.0515,-1.0298,-1.0045,-0.9955,-0.98,-0.9554,0.0,0.0,0.0,0.0,0.0,0.0,0.0,0.0,0.0,0.0,0.0,0.0,0.0,0.0,0.0,0.0,0.0,0.0,0.0,0.0,0.0,0.0,0.0,0.0,0.0,-1.5468,0.0,0.0,0.0,0.0,0.0,0.0,0.0,0.0,0.0,0.0,0.0,-1.9338,-1.9946,-2.0531,-2.0981,-2.113,-2.1509,-2.1914,0.0,0.0,0.0,0.0,0.0,0.0,0.0,0.0,0.0,0.0,0.0,0.0,0.0,0.0,-1.9266,-1.7613,-1.7303,-1.7348,-1.7486,0.0,0.0,0.0,0.0,0.0,0.0,0.0,0.0,0.0,0.0,0.0,0.0,0.0,0.0,-1.0545,0.0,-1.0502,0.0,0.0,0.0,0.0,0.0,0.0,0.0,0.0,-1.1422,-1.1459,-1.1633,-1.1938,-1.1609,0.0,-1.093,-1.034,0.0,0.0,0.0,0.0,0.0,0.0,0.0,0.0,-0.8981,-0.9733,-0.9859,-1.0069,-1.0388,-1.0244,-1.0033,-0.9781,-0.9769,-0.9627,-0.9294,-0.9885,-1.015,0.0,0.0,0.0,0.0,0.0,0.0,0.0,0.0,0.0,0.0,0.0,0.0,0.0,0.0,0.0,0.0,0.0,0.0,0.0,0.0,0.0,0.0,0.0,-1.5329,0.0,0.0,0.0,0.0,0.0,0.0,0.0,0.0,0.0,-1.892,-1.9717,-2.059,-2.135,-2.1197,-2.1104,-2.1432,0.0,0.0,0.0,0.0,0.0,0.0,0.0,-2.0503,-2.0706,-2.0459,-2.034,-2.0529,-2.0986,-2.1183,-2.0683,0.0,0.0,-1.917,-1.888,-1.9028,-1.9158,-1.961,-1.9963,-1.9841,-2.0479,-2.0838,0.0,0.0,0.0,0.0,0.0,0.0,0.0,0.0,-1.1398,-1.1564,0.0,-1.1777,0.0,0.0,0.0,0.0,0.0,-1.1819,0.0,0.0,-1.2459,-1.2421,-1.1946,-1.221,-1.2186,-1.1886,-1.1621,-1.1206,-1.0671,-0.9648,0.0,0.0,0.0,0.0,0.0,0.0,-0.9239,-0.9502,-0.9769,-0.9895,-0.9913,-0.9901,-0.9742,-0.9496,-0.9484,-0.939,-0.9187,-1.0298,-1.048,-0.9506,-1.0557,0.0,0.0,0.0,0.0,0.0,0.0,0.0,0.0,0.0,0.0,0.0,0.0,0.0,0.0,0.0,0.0,0.0,0.0,0.0,0.0,-1.4577,0.0,0.0,0.0,0.0,0.0,0.0,0.0,0.0,0.0,0.0,-2.0218,-2.0712,-2.1848,-2.3563,0.0,0.0,0.0,0.0,-2.104,-2.2007,-2.1292,-2.0948,-2.1712,-2.1625,-2.1495,-2.1515,0.0,0.0,-2.0564,-2.1036,-2.1358,-2.0761,-2.194,-2.2666,-2.1385,-2.0851,-2.0765,-2.0989,-2.0832,-2.0806,-2.1129,-2.1455,-2.1635,-0.7216,0.0,0.0,0.0,0.0,-1.1131,-1.1678,-1.2504,-1.2589,-1.2589,-1.2475,-1.2239,0.0,0.0,0.0,0.0,0.0,0.0,-1.1926,-1.1984,-1.228,-1.2403,-1.2481,-1.2554,-1.2457,-1.2198,-1.1898,-1.1495,-1.0991,-1.0466,-0.9811,-0.8999,0.0,0.0,0.0,0.0,-0.933,-0.9757,-0.9684,-0.9715,-0.9901,-0.9727,-0.9588,-0.9484,-0.9478,-0.9442,-0.9396,-0.9969,-1.0166,-0.9849,-0.9906,0.0,0.0,0.0,0.0,0.0,0.0,0.0,0.0,0.0,0.0,0.0,0.0,0.0,0.0,0.0,0.0,0.0,0.0,0.0,-1.3637,-1.4806,-1.5403,0.0,0.0,0.0,0.0,0.0,0.0,0.0,0.0,0.0,-2.18,-2.2659,-2.3266,0.0,0.0,-2.2169,-2.1681,-2.194,-2.2312,-2.2737,-2.2312,0.0,-2.2054,-2.1897,-2.1848,-2.198,-2.246,-2.2607,-2.1967,-2.2074,-2.2052,-2.1593,-2.1932,-2.2126,-2.1832,-2.2079,-2.2015,-2.124,-2.1324,-2.1642,-2.1457,-2.1691,-2.1877,-0.7376,-0.8407,-0.8983,-0.9833,-1.0842,-1.1559,-1.2269,-1.2919,-1.3065,-1.3105,-1.3006,-1.2632,-1.2255,-1.186,-1.1481,0.0,0.0,0.0,-1.2036,-1.2048,-1.2343,-1.2499,-1.2548,-1.2554,-1.2409,-1.2149,-1.185,-1.1561,-1.1274,-1.1003,-1.0502,-0.9745,0.0,0.0,-0.942,-0.942,-0.9522,-0.97,-0.96,-0.9562,-0.9745,-0.9568,-0.9478,-0.9478,-0.9478,-0.9478,-0.951,-0.995,-1.0135,-1.0009,-0.9911,-0.9991,0.0,0.0,0.0,0.0,0.0,0.0,0.0,0.0,0.0,0.0,0.0,-1.1161,-1.0247,0.0,0.0,0.0,-1.2404,-1.3546,-1.4832,-1.5886,0.0,0.0,0.0,0.0,0.0,0.0,0.0,-2.1583,-2.3135,-2.3791,-2.2916,-2.3635,-2.4039,-2.3373,-2.2834,-2.239,-2.2127,0.0,-2.2855,-2.3251,-2.3385,-2.3437,-2.3408,-2.3133,-2.2824,-2.2372,-2.2639,-2.2666,-2.2077,-2.2266,-2.2353,-2.2041,-2.2158,-2.2285,-2.1809,-2.2346,-2.2581,-2.1484,-2.1652,-2.1948,-2.1716,-2.1928,-2.2051,-0.772,-0.8516,-0.8861,-0.962,-1.0658,-1.2164,-1.2892,-1.3107,-1.3113,-1.3233,-1.3441,-1.2958,-1.259,-1.2312,-1.1842,0.0,-1.1609,-1.2085,-1.2337,-1.2318,-1.2566,-1.2536,-1.2282,-1.2241,-1.2115,-1.192,-1.1615,-1.1489,-1.1477,-1.1206,-1.0972,-1.0683,-1.0442,-1.0184,-0.9925,-0.9883,-0.9757,-0.949,-0.9484,-0.9478,-0.9484,-0.9478,-0.9478,-0.9478,-0.9478,-0.9504,-0.948,-1.004,-1.0219,-0.9929,-1.0232,-1.0356,-1.0244,0.0,0.0,0.0,0.0,0.0,0.0,0.0,0.0,0.0,0.0,0.0,0.0,0.0,0.0,0.0,-1.4321,0.0,-1.6493,-1.7475,0.0,0.0,0.0,-1.9007,-1.9438,-2.1346,-2.2557,-2.2419,0.0,0.0,-2.3533,-2.3787,-2.4146,-2.4338,-2.3143,-2.2488,-2.3195,-2.2879,-2.288,-2.3456,-2.4237,-2.485,-2.4797,-2.4513,-2.3943,-2.3063,-2.2595,-2.2239,-2.1624,-2.1787,-2.2139,-2.1787,-2.2454,-2.2604,-2.1569,-2.1797,-2.2178,-2.168,-2.1748,-2.1816,-2.1738,-2.1973,-2.1973,-0.7339,-0.7678,-0.9225,-1.0359,-1.1192,-1.2247,-1.2875,-1.3101,-1.3101,-1.312,-1.3206,-1.3041,-1.2868,-1.2602,-1.2481,-1.2427,-1.2433,-1.2554,-1.2506,-1.2318,-1.2379,-1.2223,-1.2023,-1.2017,-1.1946,-1.1868,-1.1615,-1.1489,-1.1477,-1.1212,-1.0979,-1.0695,-1.0623,-1.0358,-0.9919,-0.9709,-0.9582,-0.9478,-0.9478,-0.9478,-0.9478,-0.9478,-0.9478,-0.9478,-0.9478,-0.9414,-0.9209,-0.9346,-0.9315,-0.9014,-0.8921,-0.921,-1.0026,-0.918,0.0,0.0,0.0,0.0,0.0,0.0,0.0,0.0,0.0,-1.2669,-1.1025,0.0,-1.389,0.0,-1.6247,-1.7327,-1.7076,-1.7935,0.0,0.0,-2.0522,-2.1249,-2.1834,-2.3035,-2.3492,-2.273,-2.3405,-2.3671,-2.2949,-2.2972,-2.3075,-2.311,-2.2902,-2.259,-2.2296,-2.282,-2.3213,-2.3358,-2.3874,-2.4258,-2.4449,-2.4125,-2.4095,-2.4703,-2.3274,-2.2201,-2.2666,-2.174,-2.1026,-2.0938,-2.1065,-2.0957,-2.0469,-2.043,-2.0381,-2.0078,-2.0684,-2.1279,-2.0967,-2.1016,-2.0879,-0.7411,-0.7496,-0.9025,-1.0085,-1.0929,-1.2288,-1.2909,-1.2924,-1.2812,-1.2828,-1.294,-1.2897,-1.285,-1.2705,-1.2705,-1.2705,-1.2699,-1.2584,-1.2451,-1.2306,-1.2198,-1.1999,-1.1712,-1.1712,-1.1645,-1.1552,-1.126,-1.1134,-1.1116,-1.0857,-1.0653,-1.0509,-1.0394,-1.0196,-0.9913,-0.9763,-0.9636,-0.9484,-0.9478,-0.9478,-0.9478,-0.9478,-0.9424,-0.9336,-0.9418,-0.933,-0.8945,-0.9161,-0.9107,-0.8728,-0.8572,-0.9023,-1.0183,-0.9456,-0.9547,0.0,0.0,0.0,0.0,0.0,0.0,0.0,0.0,0.0,0.0,0.0,-1.4779,-1.5825,-1.7575,-1.8688,-1.8866,-1.9849,-2.0634,-2.097,-2.1722,-2.2241,-2.2341,-2.3247,-2.3546,-2.2777,-2.3098,-2.3132,-2.2455,-2.2352,-2.2249,-2.2075,-2.2149,-2.2148,-2.2112,-2.2764,-2.334,-2.3434,-2.4151,-2.4736,-2.4837,-2.4589,-2.4527,-2.4721,-2.3841,-2.304,-2.329,-2.2613,-2.186,-2.1693,-2.1487,-2.1244,-2.0977,-2.0714,-2.041,-1.9992,-2.0272,-2.0538,-2.0115,-2.0028,-1.9912,-0.7624,-0.7605,-0.849,-0.9293,-1.0081,-1.1948,-1.2714,-1.2632,-1.2337,-1.2391,-1.2608,-1.2602,-1.2602,-1.2608,-1.2602,-1.2602,-1.2596,-1.2331,-1.2246,-1.2204,-1.198,-1.1694,-1.1435,-1.1443,-1.126,-1.1057,-1.0797,-1.0635,-1.0665,-1.0406,-1.028,-1.0238,-1.0015,-0.9889,-0.9859,-0.982,-0.9745,-0.9484,-0.9478,-0.9478,-0.9478,-0.9478,-0.9396,-0.9173,-0.9348,-0.9227,-0.8723,-0.9161,-0.9185,-0.8669,-0.8686,-0.9288,-1.0487,-0.9982,-1.0297,0.0,-1.1507,0.0,0.0,0.0,0.0,0.0,0.0,0.0,0.0,-1.4577,-1.5605,-1.7119,-1.8596,-1.9942,-2.0997,-2.2026,-2.2421,-2.1996,-2.2444,-2.2559,-2.202,-2.2731,-2.3121,-2.2581,-2.288,-2.2754,-2.194,-2.1802,-2.1652,-2.1339,-2.1397,-2.1603,-2.1985,-2.2595,-2.3117,-2.3491,-2.4576,-2.5215,-2.5378,-2.5306,-2.5003,-2.4442,-2.4139,-2.4009,-2.3711,-2.3455,-2.3264,-2.2877,-2.231,-2.1984,-2.2037,-2.155,-2.1,-2.0182,-2.0189,-2.0104,-1.9525,-1.9365,-1.9268,-0.7034,-0.7088,-0.7932,-0.8346,-0.8651,-1.0398,-1.161,-1.2367,-1.2067,-1.1982,-1.2071,-1.2024,-1.203,-1.203,-1.203,-1.2071,-1.2071,-1.2023,-1.1844,-1.1639,-1.1591,-1.1455,-1.119,-1.0972,-1.0803,-1.0779,-1.0491,-1.037,-1.0364,-1.0316,-1.0184,-0.9985,-0.9931,-0.9805,-0.9568,0.0,0.0,0.0,-0.9478,-0.9478,-0.9478,-0.9478,-0.946,-0.9406,-0.9269,0.0,-0.8728,-0.8806,-0.8716,-0.8421,-0.859,0.0,0.0,0.0,0.0,0.0,0.0,0.0,0.0,0.0,0.0,0.0,-1.4544,-1.442,-1.4442,-1.6176,-1.7862,-1.9147,-1.9979,-2.0787,-2.1662,-2.1897,-2.203,-2.1951,-2.2708,-2.2903,-2.2055,-2.2467,-2.2512,-2.1604,-2.1581,-2.1581,-2.142,-2.1339,-2.1316,-2.1256,-2.1305,-2.1371,-2.1391,-2.1994,-2.2397,-2.2583,-2.3685,-2.4684,-2.505,-2.4974,-2.4846,-2.4773,-2.4186,-2.3873,-2.3886,-2.3142,-2.2531,-2.2404,-2.1914,-2.1446,-2.1132,-2.089,-2.0559,-1.9476,-1.9749,-1.9972,-1.9409,-1.9277,-1.918,-0.6886,0.0,-0.7341,-0.7762,0.0,-0.9363,-1.0383,-1.1307,-1.1583,-1.1688,-1.1739,-1.1826,-1.1886,-1.1886,-1.1886,-1.1886,-1.1914,-1.1748,-1.1615,-1.1483,-1.1212,-1.102,-1.0912,-1.0647,-1.0491,-1.0478,-1.0226,-1.01,-1.0094,-0.9973,-0.9841,-0.9709,-0.9715,-0.9648,-0.9516,-0.9478,-0.9478,-0.9478,-0.9478,-0.9478,-0.9478,-0.9478,-0.945,-0.9318,-0.9312,0.0,0.0,0.0,0.0,0.0,0.0,0.0,0.0,0.0,0.0,-1.3122,-1.3153,-1.3322,-1.3876,-1.4001,-1.45,-1.5496,-1.5783,-1.5729,-1.5441,-1.6679,-1.811,-1.9641,-2.0083,-2.0803,-2.2126,-2.2294,-2.2169,-2.1963,-2.2353,-2.2353,-2.172,-2.1766,-2.1753,-2.1328,-2.1201,-2.1201,-2.1201,-2.1201,-2.1201,-2.1201,-2.1253,-2.1285,-2.1233,-2.1536,-2.1908,-2.2297,-2.3185,-2.3992,-2.4312,-2.4353,-2.4319,-2.4305,-2.4026,-2.3802,-2.3944,-2.3445,-2.2995,-2.2937,-2.2353,-2.1703,-2.1474,-2.1234,-2.0737,-1.9962,-2.0157,-2.0194,-1.9424,-1.9158,-1.8969,-0.6848,-0.6848,-0.682,-0.722,-0.7984,-0.8453,-0.9257,-1.0285,0.0,0.0,0.0,-1.1645,-1.1736,-1.1775,-1.1742,-1.1742,-1.1763,-1.1519,-1.1393,-1.1333,-1.0894,-1.0659,-1.0605,-1.0346,-1.0226,-1.0214,-0.9961,-0.9802,-0.9829,-0.9586,-0.9478,-0.9478,-0.9478,-0.9478,-0.9478,-0.9478,-0.9478,-0.9478,-0.9478,-0.9478,-0.9478,-0.9478,-0.9402,-0.9235,-0.9348,-0.9233,-0.8866,-0.9203,-0.9296,-0.899,-0.9254,-1.0205,-1.1823,-1.2023,-1.2853,-1.4517,-1.4717,-1.4863,-1.5157,-1.5284,-1.5662,-1.6361,-1.6725,-1.6798,-1.6532,-1.6826,-1.7751,-1.9547,-1.9758,-2.0492,-2.2185,-2.241,-2.2282,-2.1835,-2.1789,-2.1617,-2.127,-2.1201,-2.1236,-2.1201,-2.1201,-2.1201,-2.1201,-2.1201,-2.1201,-2.1201,-2.1201,-2.1201,-2.1233,-2.1328,-2.1696,-2.2392,-2.2909,-2.3251,-2.3475,-2.364,-2.3589,-2.3364,-2.3592,-2.3782,-2.3685,-2.3661,-2.3625,-2.335,-2.2678,-2.2063,-2.1878,-2.144,-2.0991,-2.0312,-2.0603,-2.0597,-1.9318,-1.9025,-1.8858,-0.6536,-0.6566,-0.6446,-0.647,-0.6624,-0.7386,-0.8555,-1.0008,-1.0796,-1.1166,-1.1178,-1.1208,-1.1226,-1.1188,-1.1226,-1.122,-1.1226,-1.119,-1.1051,-1.0803,-1.0719,-1.0563,-1.034,-1.0088,-0.9955,-0.9937,-0.9664,-0.9538,-0.9532,-0.9502,-0.9478,-0.9478,-0.9478,-0.9478,-0.9478,-0.9478,-0.9478,-0.9478,-0.9478,-0.9478,-0.9478,-0.9478,-0.9594,-0.9673,-0.9357,-0.9223,-0.9297,-0.9217,-0.9389,-0.9896,-1.0485,-1.1446,-1.2789,-1.3194,-1.3794,-1.4634,-1.4822,-1.4976,-1.5198,-1.5623,-1.615,-1.6745,-1.6872,-1.7018,-1.7303,-1.7376,-1.7964,-1.9226,-1.9554,-2.0036,-2.1028,-2.1347,-2.1443,-2.1339,-2.1316,-2.127,-2.1201,-2.1201,-2.1201,-2.1201,-2.1201,-2.1201,-2.1201,-2.1201,-2.1201,-2.1201,-2.1201,-2.1201,-2.1233,-2.1305,-2.1684,-2.2262,-2.2249,-2.223,-2.2419,-2.2811,-2.2654,-2.1861,-2.2891,-2.3421,-2.3047,-2.2955,-2.2855,-2.2486,-2.1873,-2.1368,-2.0959,-2.0791,-2.0445,-1.9894,-2.0246,-2.0228,-1.8982,-1.9021,-1.9064,-0.6399,-0.6388,-0.6327,-0.63,-0.6377,-0.7138,-0.8437,-0.9879,-1.0293,-1.07,-1.1074,-1.1117,-1.1117,-1.1117,-1.1117,-1.1033,-1.09,-1.09,-1.0719,-1.0508,-1.0322,-1.0196,-1.0069,-0.9817,-0.969,-0.9684,-0.957,-0.9478,-0.9478,-0.9478,-0.9478,-0.9478,-0.9478,-0.9478,-0.9478,-0.9478,-0.9478,-0.9478,-0.9478,-0.9478,-0.9478,-0.9478,-0.9516,-0.9644,-0.951,-0.9512,-0.9606,-0.9881,-1.0186,-1.0458,-1.1223,-1.2079,-1.3028,-1.35,-1.4007,-1.4651,-1.4741,-1.5016,-1.5515,-1.6125,-1.6604,-1.689,-1.6908,-1.7146,-1.7742,-1.7777,-1.834,-1.9589,-1.983,-2.0192,-2.096,-2.1156,-2.1201,-2.1201,-2.1201,-2.1201,-2.1201,-2.1201,-2.1201,-2.1201,-2.1201,-2.1201,-2.1201,-2.1201,-2.1201,-2.1201,-2.1201,-2.1201,-2.119,-2.1293,-2.1447,-2.1592,-2.1528,-2.142,-2.1386,-2.1512,-2.1464,-2.099,-2.156,-2.1921,-2.1728,-2.1716,-2.1608,-2.1368,-2.0899,-2.049,-2.0189,-2.0165,-1.9984,-1.9894,-2.016,-2.0076,-1.9365,-1.9056,-1.8768,-0.63,-0.63,-0.63,-0.6279,-0.6325,-0.7267,-0.8378,-0.9463,-0.9829,-1.0347,-1.0875,-1.1057,-1.1075,-1.1021,-1.1027,-1.0845,-1.0617,-1.0628,-1.0454,-1.0202,-0.9997,-0.9877,-0.9799,-0.9606,-0.9478,-0.9478,-0.9478,-0.9478,-0.9478,-0.9478,-0.948,-0.942,-0.936,-0.9328,-0.9414,-0.9426,-0.945,-0.9478,-0.9478,-0.9478,-0.9478,-0.9478,-0.9516,-0.958,-0.9708,-0.9836,-0.9862,-1.0333,-1.0769,-1.1059,-1.1813,-1.2595,-1.3395,-1.3901,-1.438,-1.4861,-1.5014,-1.5312,-1.5931,-1.6462,-1.6817,-1.6908,-1.7072,-1.7476,-1.8138,-1.8398,-1.8834,-1.9704,-1.9955,-2.0345,-2.0818,-2.1106,-2.1201,-2.1201,-2.1201,-2.1201,-2.1201,-2.1201,-2.1201,-2.1201,-2.1201,-2.1201,-2.1201,-2.1201,-2.1201,-2.1201,-2.1109,-2.1029,-2.1029,-2.1031,-2.0896,-2.0674,-2.0718,-2.076,-2.0452,-2.0425,-2.0466,-2.043,-2.0598,-2.0767,-2.0742,-2.067,-2.0538,-2.0502,-2.0141,-1.9817,-1.9688,-1.964,-1.9612,-1.9569,-1.9849,-1.9956,-1.9425,-1.8993,-1.8736,-0.63,-0.63,-0.63,-0.6179,-0.6207,-0.7566,-0.8202,-0.8445,-0.9663,-1.03,-1.0436,-1.09,-1.0966,-1.0743,-1.0719,-1.0575,-1.034,-1.0328,-1.019,-0.9961,-0.9919,-0.9781,-0.9544,-0.9496,-0.9478,-0.9478,-0.9478,-0.9478,-0.9478,-0.9504,-0.9358,-0.9131,-0.8903,-0.8921,-0.9113,-0.9137,-0.9263,-0.9472,-0.9478,-0.9478,-0.9478,-0.9478,-0.9586,-0.9772,-0.9804,-0.9868,-0.9951,-1.0047,-1.0636,-1.1794,-1.2316,-1.3148,-1.4311,-1.5114,-1.5534,-1.5567,-1.5902,-1.6288,-1.6487,-1.6406,-1.6551,-1.6888,-1.751,-1.8138,-1.8834,-1.9507,-1.9639,-1.9474,-1.977,-2.0204,-2.0226,-2.0828,-2.1201,-2.1201,-2.1201,-2.1201,-2.1201,-2.1201,-2.1201,-2.1201,-2.1201,-2.1201,-2.1201,-2.1167,-2.1155,-2.1109,-2.0722,-2.0492,-2.0458,-2.0235,-1.9881,-1.9587,-1.9865,-2.0113,-1.9829,-1.9809,-1.9865,-1.9901,-2.0273,-2.0418,-2.0406,-2.043,-2.0466,-1.9913,-1.9844,-1.9576,-1.9263,-1.9098,-1.9134,-1.9206,-1.9266,-1.9176,-1.9075,-1.8937,-1.8983,-0.63,-0.63,-0.63,-0.6173,-0.6115,-0.6689,-0.7394,-0.8155,-0.875,-0.9486,-1.0281,-1.0527,-1.0557,-1.0454,-1.0454,-1.031,-1.0069,-1.0063,-0.9925,-0.969,-0.9646,-0.9618,-0.9522,-0.9478,-0.9478,-0.9478,-0.9478,-0.9478,-0.9486,-0.9354,-0.9209,-0.9077,-0.8836,-0.8836,-0.9065,-0.8945,-0.9077,-0.9466,-0.9354,-0.9348,-0.946,-0.9478,-0.9548,-0.9644,-0.983,-0.9958,-1.0079,-1.0863,-1.1608,-1.2212,-1.3192,-1.3928,-1.4206,-1.475,-1.5042,-1.5092,-1.576,-1.621,-1.6278,-1.6513,-1.6743,-1.6899,-1.7604,-1.8307,-1.8944,-1.9671,-2.0139,-2.0334,-2.0603,-2.0732,-2.0764,-2.1031,-2.1201,-2.1201,-2.1201,-2.1201,-2.1201,-2.1201,-2.1201,-2.1201,-2.1201,-2.1201,-2.1155,-2.0937,-2.0733,-2.0664,-2.0285,-1.9998,-1.9975,-1.9815,-1.9523,-1.9108,-1.9149,-1.9207,-1.9127,-1.9243,-1.9324,-1.9348,-1.9492,-1.9648,-1.9712,-1.9676,-1.954,-1.9348,-1.9351,-1.9263,-1.9071,-1.9025,-1.9013,-1.8977,-1.9001,-1.9013,-1.9013,-1.8746,-1.8698,-0.63,-0.63,-0.63,-0.6146,-0.5969,-0.6154,-0.6861,-0.7889,-0.8112,-0.8938,-1.0048,-1.0081,-1.0081,-1.0094,-1.0148,-1.0045,-0.9817,-0.9799,-0.9703,-0.9522,-0.9478,-0.9478,-0.9478,-0.9478,-0.9478,-0.9478,-0.9478,-0.9478,-0.9474,-0.9149,-0.8987,-0.8951,-0.8728,-0.8734,-0.8945,-0.8794,-0.8969,-0.9406,-0.9239,-0.9233,-0.9474,-0.9478,-0.9478,-0.951,-0.983,-1.0021,-1.0047,-1.1178,-1.1988,-1.2367,-1.3445,-1.4066,-1.4174,-1.4523,-1.4827,-1.5083,-1.5743,-1.6208,-1.6299,-1.6674,-1.6908,-1.6978,-1.774,-1.8465,-1.9034,-1.9868,-2.0603,-2.1063,-2.1201,-2.1169,-2.1201,-2.1201,-2.1201,-2.1201,-2.1201,-2.1201,-2.1201,-2.1201,-2.1201,-2.119,-2.1052,-2.0925,-2.0776,-2.0465,-2.0217,-2.0171,-1.9792,-1.947,-1.9447,-1.9333,-1.908,-1.8736,-1.8472,-1.8478,-1.8697,-1.8749,-1.8804,-1.9001,-1.9098,-1.9122,-1.9013,-1.9025,-1.8999,-1.917,-1.8965,-1.8746,-1.8626,-1.8674,-1.8578,-1.8566,-1.8566,-1.8566,-1.841,-1.8181,-1.8049,-0.63,-0.63,-0.63,-0.6129,-0.5853,-0.6503,-0.7038,-0.7456,-0.8088,-0.8868,-0.9421,-0.9479,-0.9532,-0.953,-0.9757,-0.9781,-0.9532,-0.9552,-0.954,-0.9478,-0.9478,-0.9478,-0.9478,-0.9478,-0.9478,-0.9478,-0.9478,-0.9478,-0.948,-0.9005,-0.8722,-0.8699,-0.8465,-0.8447,-0.8698,-0.8686,-0.8963,-0.9358,-0.9203,-0.9233,-0.9474,-0.9478,-0.9478,-0.951,-0.983,-0.9989,-1.0085,-1.046,-1.1264,-1.2451,-1.2705,-1.3255,-1.4354,-1.486,-1.5391,-1.6041,-1.6224,-1.6434,-1.6745,-1.6879,-1.6959,-1.7107,-1.8206,-1.8967,-1.9166,-2.0302,-2.1063,-2.1201,-2.1201,-2.1201,-2.1201,-2.1201,-2.1201,-2.1201,-2.1201,-2.1201,-2.1201,-2.1144,-2.1201,-2.1098,-2.0722,-2.0343,-1.9884,-1.9746,-1.9711,-1.962,-1.9264,-1.8942,-1.8885,-1.8536,-1.8306,-1.8189,-1.8027,-1.7984,-1.8437,-1.8494,-1.8552,-1.8724,-1.8845,-1.8953,-1.9001,-1.9013,-1.8965,-1.8857,-1.8496,-1.8241,-1.8145,-1.7952,-1.7724,-1.7663,-1.7712,-1.7688,-1.7881,-1.7592,-1.7448,-0.63,-0.63,-0.63,-0.6119,-0.5846,-0.609,-0.6429,-0.6773,-0.7018,-0.7544,-0.8074,-0.8139,-0.8431,-0.8856,-0.8945,-0.9205,-0.9484,-0.9478,-0.9478,-0.9478,-0.9478,-0.9478,-0.9478,-0.9478,-0.9478,-0.9478,-0.9478,-0.9478,-0.9442,-0.9137,-0.8957,-0.8878,-0.8495,-0.8417,-0.8608,-0.8373,-0.8519,-0.9149,-0.8981,-0.9065,-0.9442,-0.9478,-0.9478,-0.951,-0.9734,-0.9926,-1.0021,-1.1069,-1.1965,-1.2481,-1.329,-1.401,-1.4453,-1.4882,-1.5212,-1.5515,-1.5771,-1.6092,-1.6484,-1.6943,-1.7326,-1.7677,-1.8911,-1.9671,-1.9868,-2.0592,-2.1201,-2.1201,-2.1201,-2.1201,-2.1201,-2.1201,-2.1201,-2.1201,-2.1201,-2.1201,-2.1132,-2.0925,-2.0687,-2.0618,-2.0251,-1.9872,-1.9643,-1.9401,-1.9183,-1.9137,-1.8747,-1.8455,-1.8375,-1.8203,-1.8088,-1.8001,-1.7604,-1.7338,-1.7865,-1.813,-1.8289,-1.8374,-1.847,-1.8458,-1.8482,-1.8205,-1.8085,-1.8109,-1.7845,-1.7676,-1.7543,-1.7459,-1.7195,-1.7231,-1.7243,-1.7159,-1.7399,-1.7075,-1.6919,-0.63,-0.6289,-0.6245,-0.6037,-0.581,-0.5752,-0.6,-0.6379,-0.6396,-0.6793,-0.7288,-0.7386,-0.7679,-0.8134,-0.8393,-0.8721,-0.9183,-0.9382,-0.9478,-0.9478,-0.9478,-0.9478,-0.9478,-0.9478,-0.9478,-0.9478,-0.9478,-0.9478,-0.948,-0.9233,-0.9053,-0.8933,-0.8674,-0.856,-0.8507,-0.8301,-0.8477,-0.8951,-0.8842,-0.8969,-0.9432,-0.9394,-0.9426,-0.955,-0.9838,-1.0109,-1.0345,-1.1648,-1.2543,-1.2909,-1.3692,-1.4258,-1.4513,-1.4772,-1.4974,-1.5111,-1.5349,-1.5873,-1.6576,-1.7156,-1.7652,-1.8325,-1.9365,-2.0096,-2.0161,-2.0764,-2.1138,-2.1201,-2.1201,-2.1201,-2.1201,-2.1201,-2.1201,-2.1201,-2.1201,-2.1201,-2.119,-2.0902,-2.0538,-2.0182,-1.9734,-1.9413,-1.9195,-1.8862,-1.869,-1.8644,-1.8306,-1.8123,-1.8084,-1.7951,-1.7898,-1.7806,-1.7116,-1.6797,-1.7025,-1.7237,-1.7589,-1.7746,-1.7941,-1.7953,-1.7881,-1.7519,-1.7327,-1.7327,-1.7255,-1.7111,-1.7003,-1.6943,-1.6907,-1.6931,-1.6751,-1.6571,-1.6619,-1.6536,-1.6463,-0.63,-0.6279,-0.6101,-0.5922,-0.58,-0.5677,-0.592,-0.6288,-0.6334,-0.6629,-0.7092,-0.7256,-0.7223,-0.7512,-0.7999,-0.842,-0.8683,-0.9151,-0.9446,-0.9478,-0.9478,-0.9478,-0.9478,-0.9478,-0.9478,-0.9478,-0.9478,-0.9478,-0.946,-0.9263,-0.9029,-0.8848,-0.8975,-0.8812,-0.8339,-0.8572,-0.8794,-0.8993,-0.889,-0.8999,-0.9382,-0.9319,-0.9319,-0.9589,-1.0146,-1.068,-1.101,-1.2012,-1.2826,-1.3359,-1.3571,-1.3842,-1.4426,-1.4522,-1.4689,-1.4992,-1.5093,-1.5817,-1.7051,-1.7311,-1.7841,-1.8802,-1.9661,-2.0171,-2.0355,-2.0828,-2.1201,-2.1201,-2.1201,-2.1178,-2.1144,-2.1178,-2.1201,-2.1201,-2.1201,-2.1201,-2.1144,-2.1121,-2.0764,-1.9792,-1.9183,-1.8685,-1.8306,-1.8215,-1.8226,-1.8203,-1.8146,-1.8084,-1.8066,-1.7756,-1.7476,-1.7281,-1.6779,-1.6344,-1.629,-1.6303,-1.6681,-1.7027,-1.7267,-1.7387,-1.7339,-1.7099,-1.6931,-1.6883,-1.6703,-1.6559,-1.6367,-1.6307,-1.6223,-1.6199,-1.6042,-1.6078,-1.6102,-1.6104,-1.603,-0.63,-0.6293,-0.6248,-0.6037,-0.5813,-0.5752,-0.5766,-0.5697,-0.5719,-0.5851,-0.6017,-0.6017,-0.6276,-0.6695,-0.6985,-0.7572,-0.8484,-0.8753,-0.9055,-0.9414,-0.9478,-0.9478,-0.9478,-0.9478,-0.9478,-0.9478,-0.9478,-0.9478,-0.9466,-0.9426,-0.9304,-0.9238,-0.9143,-0.9023,-0.8824,-0.8776,-0.883,-0.9083,-0.9169,-0.934,-0.9703,-0.9711,-0.9743,-0.9964,-1.1026,-1.1767,-1.1912,-1.2642,-1.3199,-1.3519,-1.395,-1.4288,-1.4455,-1.4485,-1.457,-1.4671,-1.4698,-1.5156,-1.6266,-1.6959,-1.7781,-1.8998,-1.9879,-2.0448,-2.0814,-2.1031,-2.1201,-2.1201,-2.119,-2.1075,-2.0779,-2.1006,-2.119,-2.1201,-2.1201,-2.1017,-2.0661,-2.0097,-1.9356,-1.8742,-1.8444,-1.8272,-1.8169,-1.8084,-1.8084,-1.8084,-1.8084,-1.8084,-1.8031,-1.7656,-1.743,-1.7315,-1.6594,-1.5915,-1.5904,-1.5881,-1.6032,-1.6385,-1.6645,-1.6847,-1.6799,-1.6703,-1.6547,-1.6427,-1.6247,-1.609,-1.5898,-1.5814,-1.5814,-1.5814,-1.5898,-1.5898,-1.5838,-1.5814,-1.5814,-0.63,-0.6293,-0.6235,-0.6034,-0.5803,-0.5749,-0.5589,-0.5412,-0.5395,-0.5395,-0.5428,-0.5395,-0.5624,-0.6013,-0.6268,-0.6887,-0.7707,-0.7967,-0.8458,-0.9119,-0.9452,-0.9478,-0.9478,-0.9478,-0.9478,-0.9478,-0.9478,-0.9478,-0.9478,-0.9478,-0.9436,-0.9342,-0.9281,-0.9131,-0.8987,-0.8903,-0.8951,-0.9108,-0.9279,-0.9544,-0.9749,-0.9857,-1.0033,-1.0476,-1.1537,-1.2271,-1.2657,-1.3359,-1.3799,-1.392,-1.4297,-1.4485,-1.4485,-1.4485,-1.4485,-1.4485,-1.4572,-1.504,-1.6257,-1.6898,-1.7873,-1.9384,-2.0154,-2.0641,-2.1075,-2.1201,-2.1201,-2.1201,-2.1201,-2.1075,-2.0856,-2.0983,-2.119,-2.1221,-2.0994,-2.0707,-2.0148,-1.9413,-1.8873,-1.8513,-1.8244,-1.8146,-1.8084,-1.8084,-1.8084,-1.8084,-1.8084,-1.7974,-1.7813,-1.7404,-1.7163,-1.6821,-1.6085,-1.5659,-1.5579,-1.5521,-1.5448,-1.5702,-1.6016,-1.619,-1.6283,-1.6187,-1.6054,-1.6078,-1.5958,-1.597,-1.5814,-1.5814,-1.5814,-1.5814,-1.5814,-1.5814,-1.5814,-1.5814,-1.5814,-0.6293,-0.6269,-0.6091,-0.5942,-0.5772,-0.5654,-0.5549,-0.5409,-0.5395,-0.5395,-0.5395,-0.5395,-0.5428,-0.5557,-0.6013,-0.6367,-0.656,-0.7088,-0.7739,-0.8425,-0.8952,-0.9247,-0.9484,-0.9478,-0.9478,-0.9478,-0.9478,-0.9478,-0.9478,-0.9478,-0.9384,-0.9227,-0.9372,-0.9251,-0.8927,-0.8981,-0.9083,-0.9096,-0.9297,-0.9525,-0.9787,-0.9799,-1.0089,-1.0902,-1.1624,-1.2362,-1.3067,-1.389,-1.4426,-1.4485,-1.4485,-1.4485,-1.4485,-1.4485,-1.4485,-1.4485,-1.4485,-1.5349,-1.6575,-1.7024,-1.798,-1.9905,-2.0327,-2.063,-2.1086,-2.1201,-2.1201,-2.1201,-2.1201,-2.1155,-2.1086,-2.1167,-2.1155,-2.1029,-2.0607,-2.0171,-1.97,-1.9166,-1.8843,-1.8695,-1.8387,-1.8111,-1.8139,-1.8084,-1.8084,-1.8088,-1.8081,-1.7897,-1.7499,-1.7088,-1.6487,-1.6015,-1.5647,-1.5452,-1.5372,-1.5406,-1.539,-1.5605,-1.5779,-1.5836,-1.5938,-1.583,-1.5792,-1.5792,-1.5814,-1.5814,-1.5814,-1.5814,-1.5814,-1.5814,-1.5814,-1.5814,-1.5814,-1.5814,-1.5814,-0.6231,-0.6088,-0.601,-0.5881,-0.5657,-0.5603,-0.5535,-0.5405,-0.5395,-0.5395,-0.5395,-0.5395,-0.5395,-0.5428,-0.5591,-0.5914,-0.6334,-0.656,-0.7022,-0.7614,-0.7847,-0.8598,-0.9318,-0.9478,-0.9478,-0.9478,-0.9478,-0.9478,-0.9478,-0.9478,-0.9468,-0.9414,-0.9438,-0.9304,-0.9059,-0.9053,-0.9071,-0.9045,-0.9168,-0.9449,-0.9813,-0.9953,-1.0206,-1.0728,-1.1759,-1.2415,-1.2818,-1.3851,-1.4485,-1.4485,-1.4485,-1.4485,-1.4485,-1.4485,-1.4515,-1.4545,-1.4575,-1.5078,-1.6268,-1.6927,-1.7994,-1.9624,-2.024,-2.063,-2.1144,-2.1201,-2.1201,-2.1201,-2.119,-2.104,-2.0779,-2.0994,-2.0879,-2.0205,-2.0017,-1.9711,-1.9218,-1.8946,-1.869,-1.8393,-1.8491,-1.8433,-1.822,-1.8111,-1.8111,-1.8081,-1.7974,-1.7792,-1.7378,-1.686,-1.6325,-1.5937,-1.559,-1.5349,-1.5233,-1.5278,-1.5368,-1.5604,-1.5706,-1.5684,-1.5741,-1.5705,-1.5726,-1.577,-1.5792,-1.5814,-1.5814,-1.5814,-1.5814,-1.5814,-1.5814,-1.5814,-1.5814,-1.5814,-1.5814,-0.6074,-0.5899,-0.5935,-0.5764,-0.5603,-0.5589,-0.5539,-0.5416,-0.5395,-0.5395,-0.5395,-0.5395,-0.5395,-0.5395,-0.5428,-0.5591,-0.5947,-0.598,-0.6371,-0.7022,-0.7647,-0.8333,-0.9017,-0.928,-0.9478,-0.9478,-0.9478,-0.9478,-0.9478,-0.9478,-0.9478,-0.9474,-0.9396,-0.9257,-0.9095,-0.8969,-0.8956,-0.8999,-0.9143,-0.9378,-0.9658,-0.9851,-1.0352,-1.088,-1.1756,-1.2231,-1.2873,-1.3903,-1.4485,-1.4485,-1.4485,-1.4485,-1.4485,-1.4485,-1.4625,-1.4823,-1.4882,-1.541,-1.648,-1.7154,-1.8155,-1.9447,-2.0136,-2.063,-2.1075,-2.1201,-2.1201,-2.1201,-2.1201,-2.1052,-2.0859,-2.104,-2.0673,-1.9889,-1.9656,-1.9396,-1.8667,-1.8701,-1.8661,-1.8556,-1.861,-1.8718,-1.841,-1.8236,-1.81,-1.8047,-1.7835,-1.7603,-1.7307,-1.6752,-1.6231,-1.5835,-1.5637,-1.5496,-1.5345,-1.5345,-1.539,-1.5592,-1.5671,-1.5614,-1.5659,-1.5659,-1.5726,-1.5792,-1.5792,-1.5814,-1.5814,-1.5814,-1.5814,-1.5814,-1.5814,-1.5814,-1.5814,-1.5814,-1.5814,-0.5882,-0.5779,-0.5779,-0.5698,-0.5607,-0.5562,-0.5511,-0.5412,-0.5395,-0.5395,-0.5395,-0.5395,-0.5395,-0.5395,-0.5395,-0.5428,-0.5462,-0.5491,-0.5785,-0.6531,-0.7381,-0.8166,-0.8425,-0.9183,-0.9446,-0.9478,-0.9478,-0.9478,-0.9478,-0.9478,-0.9478,-0.9448,-0.9287,-0.9113,-0.9005,-0.8824,-0.8786,-0.8866,-0.896,-0.9154,-0.9411,-0.9697,-1.0286,-1.1064,-1.1586,-1.2285,-1.3125,-1.3928,-1.4313,-1.4368,-1.4423,-1.4414,-1.4394,-1.4433,-1.4765,-1.5216,-1.5352,-1.5835,-1.703,-1.7679,-1.8493,-1.9559,-2.0205,-2.0641,-2.1086,-2.1201,-2.1201,-2.1201,-2.1201,-2.1167,-2.1132,-2.1144,-2.0599,-1.979,-1.964,-1.9166,-1.8536,-1.8556,-1.8798,-1.8798,-1.8825,-1.8851,-1.8732,-1.8444,-1.8116,-1.8184,-1.781,-1.7257,-1.7074,-1.6726,-1.62,-1.57,-1.5629,-1.5683,-1.5558,-1.5458,-1.5468,-1.5558,-1.5614,-1.5637,-1.5726,-1.5748,-1.5758,-1.578,-1.5792,-1.5814,-1.5814,-1.5814,-1.5814,-1.5814,-1.5814,-1.5814,-1.5814,-1.5814,-1.5814,-0.5766,-0.5672,-0.5633,-0.5583,-0.5457,-0.5446,-0.5426,-0.5395,-0.5395,-0.5395,-0.5395,-0.5395,-0.5395,-0.5395,-0.5395,-0.5395,-0.5395,-0.5395,-0.5491,-0.569,-0.6433,-0.7149,-0.7804,-0.8861,-0.9452,-0.9478,-0.9478,-0.9478,-0.9478,-0.9478,-0.9478,-0.948,-0.9346,-0.9197,-0.8818,-0.8745,-0.8567,-0.8462,-0.8544,-0.8815,-0.9222,-0.9695,-1.0225,-1.0851,-1.1663,-1.2474,-1.3095,-1.3461,-1.3552,-1.3626,-1.3846,-1.4029,-1.4057,-1.4104,-1.459,-1.5264,-1.5497,-1.5968,-1.7062,-1.8071,-1.8863,-1.9623,-2.0446,-2.1075,-2.1155,-2.1201,-2.1201,-2.1201,-2.1201,-2.119,-2.1052,-2.0787,-2.0284,-1.9744,-1.9532,-1.9328,-1.8829,-1.8783,-1.8878,-1.8905,-1.909,-1.9263,-1.9225,-1.8534,-1.8263,-1.8265,-1.7748,-1.6991,-1.6782,-1.6696,-1.6268,-1.58,-1.5923,-1.601,-1.5869,-1.5824,-1.5913,-1.5891,-1.5869,-1.5802,-1.5881,-1.577,-1.577,-1.5792,-1.5814,-1.5814,-1.5814,-1.5814,-1.5814,-1.5814,-1.5814,-1.5814,-1.5814,-1.5814,-1.5814,-0.5603,-0.5386,-0.5548,-0.5526,-0.5415,-0.5394,-0.5425,-0.5491,-0.5428,-0.5395,-0.5395,-0.5395,-0.5395,-0.5395,-0.5395,-0.5395,-0.5395,-0.5395,-0.5395,-0.5557,-0.6108,-0.6761,-0.7479,-0.8431,-0.9151,-0.9408,-0.9478,-0.9478,-0.9478,-0.9486,-0.9438,-0.9324,-0.9324,-0.8999,-0.8631,-0.8628,-0.8503,-0.8402,-0.8448,-0.8745,-0.9294,-0.9637,-1.0268,-1.0922,-1.1879,-1.2627,-1.2701,-1.3121,-1.3039,-1.2975,-1.3314,-1.3736,-1.3986,-1.4344,-1.4984,-1.5659,-1.613,-1.6613,-1.7611,-1.854,-1.9346,-1.967,-2.0638,-2.1052,-2.1201,-2.1201,-2.1201,-2.1201,-2.1155,-2.1052,-2.058,-2.0549,-2.0081,-1.947,-1.9411,-1.9364,-1.9158,-1.9225,-1.937,-1.9344,-1.9382,-1.9512,-1.9312,-1.8798,-1.844,-1.8444,-1.8007,-1.7325,-1.7041,-1.69,-1.6482,-1.6185,-1.6315,-1.6358,-1.6207,-1.6228,-1.6436,-1.6414,-1.6349,-1.6262,-1.6219,-1.6013,-1.577,-1.5792,-1.5814,-1.5814,-1.5814,-1.5814,-1.5814,-1.5814,-1.5814,-1.5814,-1.5814,-1.5814,-1.5814,-0.5549,-0.5205,-0.5459,-0.5539,-0.5424,-0.5401,-0.5467,-0.5521,-0.5458,-0.5395,-0.5395,-0.5395,-0.5395,-0.5395,-0.5395,-0.5395,-0.5425,-0.5458,-0.5458,-0.5624,-0.6174,-0.6859,-0.7535,-0.8211,-0.8856,-0.938,-0.9388,-0.9382,-0.9322,-0.9378,-0.9203,-0.9071,-0.9101,-0.8884,-0.8537,-0.8564,-0.8675,-0.8612,-0.8738,-0.9073,-0.9643,-0.9903,-1.0528,-1.1379,-1.2039,-1.2375,-1.2369,-1.2661,-1.2825,-1.2277,-1.2908,-1.3506,-1.4138,-1.4764,-1.5651,-1.6224,-1.6726,-1.7296,-1.7962,-1.8868,-1.9521,-1.9688,-2.0511,-2.1063,-2.1155,-2.1201,-2.1201,-2.1155,-2.1063,-2.0715,-1.995,-1.9986,-1.9837,-1.9353,-1.9371,-1.9383,-1.9434,-1.9673,-1.9686,-1.9901,-1.9721,-1.9759,-1.9697,-1.9394,-1.8981,-1.851,-1.8068,-1.7632,-1.7335,-1.709,-1.669,-1.6423,-1.6531,-1.6306,-1.6132,-1.6637,-1.6829,-1.6595,-1.6616,-1.6543,-1.6414,-1.6078,-1.5814,-1.5792,-1.5814,-1.5814,-1.5814,-1.5814,-1.5814,-1.5814,-1.5814,-1.5814,-1.5814,-1.5814,-1.5814,-0.5748,-0.5512,-0.5569,-0.5537,-0.5428,-0.5389,-0.5405,-0.5415,-0.5415,-0.5395,-0.5395,-0.5392,-0.5415,-0.5425,-0.5392,-0.5458,-0.5547,-0.5587,-0.5686,-0.5918,-0.6433,-0.7018,-0.7775,-0.8212,-0.8725,-0.9044,-0.9174,-0.9071,-0.8927,-0.8807,-0.8908,-0.8842,-0.9005,-0.8889,-0.8738,-0.8824,-0.9036,-0.9123,-0.923,-0.9581,-1.0123,-1.0694,-1.1183,-1.1819,-1.2145,-1.2168,-1.2122,-1.2211,-1.2395,-1.2675,-1.3083,-1.3798,-1.4535,-1.4899,-1.554,-1.6275,-1.6961,-1.7556,-1.8105,-1.8662,-1.9241,-1.9677,-2.0262,-2.0779,-2.1075,-2.119,-2.1167,-2.104,-2.0776,-2.0449,-2.024,-1.9912,-1.9841,-1.9694,-1.9488,-1.9246,-1.9195,-1.9212,-1.9394,-1.9735,-1.9838,-1.9851,-1.9699,-1.9496,-1.9056,-1.8553,-1.8071,-1.7564,-1.7108,-1.7042,-1.6969,-1.6765,-1.6646,-1.6328,-1.5969,-1.6723,-1.7165,-1.668,-1.6573,-1.6573,-1.6392,-1.6057,-1.5881,-1.5947,-1.5881,-1.5814,-1.5814,-1.5814,-1.5814,-1.5814,-1.5814,-1.5814,-1.5814,-1.5814,-1.5814,-0.5921,-0.5639,-0.5666,-0.5621,-0.5492,-0.5244,-0.5297,-0.5456,-0.5341,-0.5353,-0.545,-0.5451,-0.5491,-0.5585,-0.5528,-0.5571,-0.5705,-0.5752,-0.598,-0.6404,-0.6724,-0.7405,-0.8184,-0.8482,-0.8768,-0.9004,-0.903,-0.8928,-0.8857,-0.8869,-0.8794,-0.8815,-0.9,-0.9067,-0.9033,-0.9259,-0.9501,-0.9668,-0.9865,-1.02,-1.077,-1.1393,-1.1843,-1.2002,-1.2076,-1.2076,-1.2076,-1.2076,-1.22,-1.2563,-1.3299,-1.398,-1.47,-1.5539,-1.6221,-1.6757,-1.7296,-1.776,-1.8137,-1.8593,-1.9126,-1.9654,-2.0136,-2.063,-2.104,-2.119,-2.1086,-2.0779,-2.0638,-2.0259,-1.9897,-1.9626,-1.9473,-1.9342,-1.9196,-1.9041,-1.8858,-1.8846,-1.9053,-1.9346,-1.9429,-1.9428,-1.9453,-1.9223,-1.8982,-1.8567,-1.8074,-1.757,-1.7012,-1.701,-1.7094,-1.6871,-1.6744,-1.6637,-1.6328,-1.6808,-1.7338,-1.693,-1.6646,-1.6637,-1.6488,-1.6219,-1.6166,-1.621,-1.61,-1.5903,-1.5814,-1.5836,-1.5814,-1.5814,-1.5814,-1.5814,-1.5814,-1.5814,-1.5859,-0.6047,-0.5797,-0.5762,-0.5701,-0.5586,-0.5216,-0.5169,-0.5415,-0.5311,-0.5389,-0.5578,-0.5564,-0.565,-0.5796,-0.5816,-0.5798,-0.5954,-0.6053,-0.6535,-0.699,-0.7409,-0.8081,-0.8598,-0.8915,-0.8926,-0.8978,-0.883,-0.8764,-0.8786,-0.8795,-0.8792,-0.8783,-0.8956,-0.9093,-0.9112,-0.9452,-0.9886,-1.0216,-1.0499,-1.0871,-1.1444,-1.1852,-1.2076,-1.2076,-1.2076,-1.2076,-1.2076,-1.2076,-1.2398,-1.2874,-1.361,-1.4417,-1.5028,-1.6351,-1.7235,-1.7435,-1.7843,-1.8018,-1.8215,-1.8421,-1.8942,-1.962,-2.0033,-2.0527,-2.104,-2.1144,-2.096,-2.0435,-2.0217,-2.0047,-1.9622,-1.9371,-1.9194,-1.9057,-1.8966,-1.8816,-1.85,-1.8364,-1.8317,-1.8558,-1.8821,-1.8997,-1.9053,-1.9102,-1.8866,-1.8526,-1.803,-1.7713,-1.7237,-1.7141,-1.7115,-1.6884,-1.6786,-1.6879,-1.685,-1.6913,-1.7256,-1.7167,-1.6972,-1.6934,-1.671,-1.6466,-1.6402,-1.6306,-1.6241,-1.6088,-1.5969,-1.5947,-1.6057,-1.6078,-1.5903,-1.5881,-1.6035,-1.6066,-1.6088,-0.6282,-0.6136,-0.5951,-0.5722,-0.5472,-0.5369,-0.5247,-0.5216,-0.5439,-0.5544,-0.5631,-0.5759,-0.5844,-0.5924,-0.6056,-0.6121,-0.6305,-0.6601,-0.706,-0.7549,-0.8291,-0.8738,-0.8958,-0.9273,-0.9092,-0.8996,-0.8639,-0.8471,-0.8546,-0.858,-0.8529,-0.8568,-0.8756,-0.8844,-0.8971,-0.9556,-0.9987,-1.0409,-1.0922,-1.1444,-1.1868,-1.206,-1.2076,-1.2076,-1.2076,-1.2076,-1.2119,-1.2221,-1.27,-1.3816,-1.4098,-1.5184,-1.6627,-1.7032,-1.7528,-1.7826,-1.8057,-1.8084,-1.8134,-1.8237,-1.869,-1.9401,-1.9769,-2.0285,-2.0891,-2.1149,-2.0815,-1.9849,-1.9828,-1.9748,-1.9429,-1.897,-1.9058,-1.8986,-1.8758,-1.8436,-1.8091,-1.7869,-1.7817,-1.7831,-1.8118,-1.8465,-1.8679,-1.8757,-1.8748,-1.8379,-1.8022,-1.7682,-1.7421,-1.7277,-1.7178,-1.6968,-1.6892,-1.6997,-1.7026,-1.7152,-1.7214,-1.7291,-1.7201,-1.7131,-1.7026,-1.6774,-1.638,-1.6284,-1.6306,-1.6392,-1.6402,-1.6414,-1.6414,-1.6219,-1.5935,-1.6088,-1.6371,-1.6371,-1.6328,-0.6371,-0.6278,-0.5936,-0.5763,-0.5641,-0.5301,-0.5163,-0.527,-0.5399,-0.5591,-0.5765,-0.5841,-0.5912,-0.6036,-0.6225,-0.6317,-0.6383,-0.6671,-0.7288,-0.7934,-0.8629,-0.9089,-0.9468,-0.9554,-0.9383,-0.9012,-0.8776,-0.8679,-0.8613,-0.8553,-0.8553,-0.8639,-0.8751,-0.8998,-0.9106,-0.9798,-1.0402,-1.0922,-1.1435,-1.1852,-1.2026,-1.2076,-1.2076,-1.2076,-1.2076,-1.211,-1.223,-1.2761,-1.3171,-1.414,-1.4748,-1.5898,-1.6851,-1.7364,-1.787,-1.8018,-1.8084,-1.8084,-1.8111,-1.8111,-1.857,-1.9103,-1.9562,-2.0189,-2.0899,-2.1066,-2.0684,-1.9798,-1.9893,-1.982,-1.9491,-1.9107,-1.9077,-1.8999,-1.8636,-1.8127,-1.7761,-1.7473,-1.7342,-1.7356,-1.7421,-1.7826,-1.8179,-1.8283,-1.8209,-1.7891,-1.7656,-1.7473,-1.7316,-1.7251,-1.7157,-1.7073,-1.7094,-1.7144,-1.7165,-1.7193,-1.7214,-1.7263,-1.718,-1.7173,-1.7352,-1.7152,-1.6765,-1.6659,-1.6808,-1.6871,-1.685,-1.668,-1.6522,-1.6241,-1.5935,-1.6241,-1.6522,-1.6509,-1.6573,-0.6351,-0.6323,-0.5961,-0.5833,-0.58,-0.5311,-0.5153,-0.531,-0.5505,-0.5659,-0.5868,-0.599,-0.6101,-0.6173,-0.6322,-0.6387,-0.6416,-0.6581,-0.7391,-0.8194,-0.8691,-0.919,-0.9571,-0.9693,-0.9371,-0.9104,-0.8864,-0.8765,-0.8752,-0.8718,-0.8692,-0.8778,-0.8778,-0.9075,-0.9588,-1.0113,-1.0676,-1.1477,-1.1843,-1.2051,-1.2076,-1.2076,-1.2076,-1.2076,-1.211,-1.2221,-1.256,-1.3096,-1.3578,-1.4795,-1.5663,-1.6583,-1.718,-1.7716,-1.8007,-1.8084,-1.8084,-1.8084,-1.8153,-1.8272,-1.8501,-1.8908,-1.9401,-2.0074,-2.0726,-2.086,-2.0671,-1.9942,-2.0017,-1.9939,-1.964,-1.9346,-1.9276,-1.8999,-1.8571,-1.7996,-1.7525,-1.7434,-1.729,-1.7251,-1.729,-1.7264,-1.7565,-1.7721,-1.763,-1.7329,-1.7212,-1.7212,-1.7212,-1.7212,-1.7178,-1.7136,-1.7157,-1.7199,-1.7206,-1.7214,-1.7235,-1.7325,-1.7276,-1.7318,-1.7544,-1.7537,-1.7235,-1.7248,-1.7269,-1.7039,-1.685,-1.6701,-1.6607,-1.6565,-1.6509,-1.65,-1.6607,-1.6659,-1.6964,-0.6227,-0.6192,-0.6167,-0.5991,-0.5717,-0.559,-0.5393,-0.525,-0.5661,-0.5848,-0.5991,-0.6193,-0.6343,-0.6359,-0.6359,-0.6387,-0.642,-0.7134,-0.7752,-0.8356,-0.889,-0.9229,-0.9509,-0.9404,-0.9138,-0.8891,-0.8791,-0.8785,-0.8778,-0.8778,-0.8778,-0.8804,-0.8936,-0.9211,-0.964,-1.0244,-1.1015,-1.1719,-1.2051,-1.2076,-1.2119,-1.2138,-1.2156,-1.2131,-1.219,-1.2516,-1.3393,-1.3728,-1.4465,-1.5923,-1.6523,-1.7093,-1.7666,-1.795,-1.8084,-1.8084,-1.8084,-1.8084,-1.8141,-1.8409,-1.877,-1.9023,-1.9344,-1.9826,-2.0385,-2.0411,-2.028,-2.0172,-2.0202,-2.0151,-1.9849,-1.9584,-1.9447,-1.9279,-1.8872,-1.8388,-1.7957,-1.7669,-1.7512,-1.729,-1.7264,-1.7342,-1.7212,-1.7447,-1.7499,-1.7238,-1.7212,-1.7212,-1.7212,-1.7212,-1.7212,-1.7178,-1.7191,-1.722,-1.7227,-1.7289,-1.7421,-1.7659,-1.774,-1.774,-1.7841,-1.774,-1.77,-1.7496,-1.7413,-1.711,-1.6955,-1.7018,-1.7081,-1.7123,-1.706,-1.6786,-1.6997,-1.7269,-1.7639,-0.6016,-0.6029,-0.6162,-0.6046,-0.5812,-0.566,-0.5514,-0.5474,-0.5749,-0.6026,-0.6213,-0.6355,-0.642,-0.6387,-0.6317,-0.6317,-0.6433,-0.6756,-0.7499,-0.81,-0.8605,-0.9009,-0.9184,-0.9251,-0.9078,-0.8838,-0.8778,-0.8778,-0.8778,-0.8778,-0.9061,-0.9192,-0.9263,-0.9387,-0.9788,-1.0533,-1.1351,-1.1843,-1.211,-1.2101,-1.2156,-1.2367,-1.2459,-1.2459,-1.2755,-1.3197,-1.3923,-1.4592,-1.551,-1.6417,-1.7138,-1.7666,-1.7972,-1.8073,-1.8084,-1.8084,-1.8084,-1.8084,-1.8084,-1.8341,-1.8513,-1.8885,-1.9114,-1.9424,-1.9902,-2.0108,-2.0029,-2.0051,-2.0261,-2.0283,-2.0003,-1.9771,-1.9627,-1.953,-1.9264,-1.878,-1.8466,-1.8192,-1.7944,-1.7813,-1.7695,-1.7656,-1.7434,-1.7225,-1.7238,-1.7212,-1.7212,-1.7212,-1.7212,-1.7212,-1.7212,-1.7212,-1.7212,-1.7261,-1.7289,-1.7455,-1.7618,-1.7875,-1.8109,-1.8115,-1.8095,-1.8228,-1.8149,-1.7882,-1.7646,-1.7503,-1.7441,-1.7503,-1.7421,-1.7227,-1.7018,-1.6808,-1.7206,-1.7774,-1.8129,-0.5807,-0.5827,-0.6024,-0.6,-0.5803,-0.5722,-0.5661,-0.5649,-0.5807,-0.6087,-0.6383,-0.6354,-0.6387,-0.6354,-0.6284,-0.6392,-0.6565,-0.6836,-0.7422,-0.7968,-0.844,-0.8779,-0.9021,-0.9098,-0.8978,-0.8805,-0.8778,-0.8778,-0.8778,-0.8778,-0.9087,-0.9465,-0.9795,-0.9917,-1.0387,-1.1006,-1.1753,-1.2011,-1.2239,-1.2266,-1.234,-1.2661,-1.2873,-1.2891,-1.3094,-1.3811,-1.4512,-1.5256,-1.6073,-1.6938,-1.7628,-1.8,-1.8084,-1.8084,-1.8084,-1.8084,-1.8084,-1.8084,-1.8111,-1.8146,-1.8341,-1.8804,-1.869,-1.8988,-1.9373,-1.9706,-1.9597,-1.9918,-2.0226,-2.0397,-2.0105,-2.0136,-2.0103,-2.0085,-1.9616,-1.9172,-1.9068,-1.8845,-1.8584,-1.8375,-1.8179,-1.7891,-1.7669,-1.7408,-1.7212,-1.7212,-1.7212,-1.7212,-1.7212,-1.7212,-1.7212,-1.7212,-1.7212,-1.7282,-1.7372,-1.7475,-1.7591,-1.7868,-1.8103,-1.8268,-1.8327,-1.8459,-1.8478,-1.8214,-1.8036,-1.7962,-1.7902,-1.7861,-1.7523,-1.7131,-1.7089,-1.7173,-1.7618,-1.8169,-1.8268,-0.5616,-0.564,-0.5819,-0.5787,-0.5644,-0.5803,-0.5774,-0.5681,-0.5852,-0.6116,-0.6371,-0.6284,-0.6284,-0.635,-0.6313,-0.6554,-0.6827,-0.7041,-0.7568,-0.824,-0.8417,-0.8683,-0.8878,-0.8958,-0.8878,-0.8798,-0.8804,-0.8804,-0.8857,-0.8936,-0.9211,-0.9795,-1.0354,-1.0736,-1.1242,-1.1769,-1.2076,-1.2165,-1.2496,-1.2614,-1.2772,-1.3093,-1.3277,-1.3296,-1.3433,-1.4155,-1.5279,-1.5646,-1.647,-1.7591,-1.7911,-1.8084,-1.8084,-1.8084,-1.8084,-1.8084,-1.8084,-1.8111,-1.8139,-1.8111,-1.8435,-1.8751,-1.8555,-1.8517,-1.8825,-1.905,-1.9305,-1.9748,-2.0139,-2.036,-2.0459,-2.0635,-2.0569,-2.0425,-1.9967,-1.976,-1.9643,-1.9564,-1.9339,-1.9002,-1.8506,-1.8087,-1.7865,-1.7617,-1.7316,-1.7212,-1.7212,-1.7212,-1.7212,-1.7212,-1.7212,-1.7212,-1.7212,-1.724,-1.7323,-1.7406,-1.757,-1.7848,-1.8063,-1.8202,-1.8361,-1.8459,-1.8459,-1.8406,-1.8347,-1.8214,-1.8175,-1.8155,-1.7861,-1.7646,-1.7686,-1.7841,-1.8214,-1.8406,-1.8478,-0.5386,-0.543,-0.5603,-0.5575,-0.545,-0.5603,-0.573,-0.5843,-0.6099,-0.631,-0.6367,-0.6354,-0.6284,-0.6379,-0.6674,-0.6806,-0.6916,-0.7763,-0.8293,-0.8165,-0.8428,-0.8621,-0.8771,-0.8825,-0.8804,-0.8811,-0.8831,-0.9054,-0.9328,-0.9335,-0.9932,-1.0625,-1.1074,-1.161,-1.1794,-1.2079,-1.2193,-1.245,-1.2652,-1.2817,-1.313,-1.3488,-1.3718,-1.369,-1.391,-1.4744,-1.5938,-1.605,-1.6817,-1.7886,-1.8084,-1.8084,-1.8084,-1.8084,-1.8084,-1.8084,-1.8111,-1.8275,-1.8437,-1.8583,-1.8642,-1.8655,-1.8518,-1.8422,-1.8756,-1.9078,-1.9383,-1.9721,-2.0155,-2.041,-2.0661,-2.0661,-2.066,-2.066,-2.0399,-2.0399,-2.0334,-2.0293,-2.0122,-1.9695,-1.9251,-1.8571,-1.8166,-1.7774,-1.7447,-1.7225,-1.7212,-1.7212,-1.7212,-1.7212,-1.7212,-1.7212,-1.7212,-1.7212,-1.724,-1.7323,-1.7447,-1.7652,-1.7868,-1.8063,-1.8222,-1.84,-1.8459,-1.8459,-1.8445,-1.8445,-1.8386,-1.8327,-1.8347,-1.8288,-1.8175,-1.8036,-1.8115,-1.8327,-1.8478,-0.5301,-0.5313,-0.5446,-0.543,-0.5333,-0.5539,-0.5713,-0.5921,-0.6197,-0.6355,-0.6375,-0.6288,-0.6449,-0.6625,-0.678,-0.7283,-0.7293,-0.7817,-0.8296,-0.8169,-0.8523,-0.8646,-0.8679,-0.8771,-0.8956,-0.8989,-0.914,-0.9361,-0.984,-0.9865,-1.0362,-1.1116,-1.1846,-1.2061,-1.2241,-1.2376,-1.2523,-1.2845,-1.3093,-1.3304,-1.3589,-1.3846,-1.4102,-1.4225,-1.4587,-1.5303,-1.6073,-1.6613,-1.7034,-1.7788,-1.8084,-1.8084,-1.8084,-1.8084,-1.8084,-1.8084,-1.8139,-1.8247,-1.841,-1.8744,-1.8795,-1.9008,-1.8679,-1.8732,-1.8946,-1.9223,-1.9447,-1.9771,-2.0207,-2.046,-2.0674,-2.0674,-2.0699,-2.0699,-2.0686,-2.0673,-2.066,-2.0568,-2.0529,-2.0164,-1.9734,-1.9068,-1.8427,-1.797,-1.7552,-1.7369,-1.7212,-1.7225,-1.7238,-1.7212,-1.7212,-1.7212,-1.7212,-1.7212,-1.7212,-1.7233,-1.7344,-1.7475,-1.7672,-1.7868,-1.8123,-1.8301,-1.84,-1.8498,-1.8478,-1.8478,-1.8478,-1.8478,-1.8459,-1.8459,-1.842,-1.8268,-1.8075,-1.8228,-1.8478,-0.5301,-0.5329,-0.5301,-0.5305,-0.5357,-0.549,-0.5693,-0.5914,-0.609,-0.6261,-0.6379,-0.6127,-0.6489,-0.7164,-0.6777,-0.7175,-0.8027,-0.8035,-0.8205,-0.8369,-0.8599,-0.8606,-0.8679,-0.8817,-0.9133,-0.9439,-0.9666,-0.9891,-1.0372,-1.0601,-1.0939,-1.1403,-1.2029,-1.2417,-1.2706,-1.2873,-1.3029,-1.3323,-1.3534,-1.3736,-1.3956,-1.4231,-1.4457,-1.466,-1.504,-1.5661,-1.633,-1.6894,-1.7407,-1.787,-1.8084,-1.8084,-1.8084,-1.8084,-1.8084,-1.8084,-1.8084,-1.8166,-1.8329,-1.8691,-1.8984,-1.921,-1.933,-1.9394,-1.942,-1.9474,-1.9656,-1.985,-2.0182,-2.041,-2.0599,-2.0649,-2.0699,-2.0699,-2.0699,-2.0699,-2.0699,-2.0673,-2.0673,-2.0399,-1.9995,-1.942,-1.8741,-1.8231,-1.7983,-1.78,-1.7656,-1.7486,-1.7447,-1.7225,-1.7225,-1.7212,-1.7212,-1.7212,-1.7212,-1.7212,-1.7261,-1.7372,-1.7496,-1.7693,-1.7969,-1.8222,-1.8341,-1.8439,-1.8478,-1.8498,-1.8498,-1.8498,-1.8478,-1.8498,-1.8512,-1.8459,-1.8268,-1.8327,-1.8498,-0.554,-0.5887,-0.5489,-0.5301,-0.5309,-0.5381,-0.5527,-0.5705,-0.5914,-0.6182,-0.6612,-0.652,-0.6865,-0.7324,-0.7753,-0.7942,-0.8224,-0.8481,-0.8582,-0.8678,-0.8633,-0.8633,-0.8811,-0.9073,-0.9406,-0.9718,-1.002,-1.0474,-1.1023,-1.1326,-1.1761,-1.2307,-1.2383,-1.2863,-1.3268,-1.3543,-1.3598,-1.3699,-1.3873,-1.4047,-1.4222,-1.4403,-1.4714,-1.504,-1.5294,-1.594,-1.6726,-1.709,-1.7573,-1.7975,-1.8084,-1.8084,-1.8084,-1.8084,-1.8084,-1.8084,-1.8139,-1.822,-1.8556,-1.8718,-1.8958,-1.9342,-1.9604,-1.9798,-1.9824,-1.9824,-1.9901,-2.008,-2.0283,-2.0536,-2.0649,-2.0674,-2.0699,-2.0699,-2.0699,-2.0699,-2.0699,-2.0699,-2.0699,-2.0594,-2.019,-1.9812,-1.9133,-1.8819,-1.8584,-1.8362,-1.8114,-1.7878,-1.7617,-1.7382,-1.7225,-1.7212,-1.7212,-1.7212,-1.7212,-1.7212,-1.722,-1.7269,-1.7406,-1.755,-1.7828,-1.8049,-1.8248,-1.8366,-1.842,-1.8459,-1.8498,-1.8498,-1.8512,-1.8512,-1.8512,-1.8512,-1.8498,-1.8498,-1.8498,-0.6218,-0.648,-0.6191,-0.6005,-0.6005,-0.6032,-0.6078,-0.6182,-0.6169,-0.6367,-0.6674,-0.6867,-0.7265,-0.7798,-0.8067,-0.8223,-0.8409,-0.8566,-0.8663,-0.8585,-0.8685,-0.8844,-0.9047,-0.9406,-0.9865,-1.0174,-1.0617,-1.1049,-1.1544,-1.1879,-1.2259,-1.2608,-1.2689,-1.3203,-1.3607,-1.3809,-1.3975,-1.4057,-1.4185,-1.4304,-1.4414,-1.4515,-1.4882,-1.5352,-1.5575,-1.633,-1.7101,-1.7341,-1.776,-1.8057,-1.8084,-1.8084,-1.8084,-1.8084,-1.8084,-1.8084,-1.8111,-1.822,-1.841,-1.8691,-1.8919,-1.9225,-1.9643,-1.9914,-2.008,-2.0131,-2.0245,-2.0372,-2.0536,-2.0699,-2.0699,-2.0699,-2.0699,-2.0699,-2.0699,-2.0699,-2.0699,-2.0699,-2.0673,-2.0646,-2.0399,-2.0124,-1.9747,-1.9447,-1.9094,-1.8702,-1.8349,-1.8061,-1.7761,-1.746,-1.729,-1.7212,-1.7212,-1.7212,-1.7212,-1.7212,-1.722,-1.724,-1.7282,-1.7447,-1.7706,-1.7909,-1.8091,-1.8244,-1.8341,-1.8526,-1.8843,-1.8576,-1.8526,-1.8624,-1.8722,-1.861,-1.8582,-1.8498,-1.8498,-0.7112,-0.7166,-0.7106,-0.6999,-0.7079,-0.6977,-0.6967,-0.7025,-0.669,-0.6697,-0.6895,-0.7194,-0.7777,-0.8275,-0.8265,-0.8416,-0.8559,-0.8682,-0.8631,-0.8501,-0.8784,-0.9021,-0.9335,-0.9699,-1.0362,-1.1015,-1.1402,-1.1535,-1.1893,-1.2138,-1.2294,-1.267,-1.279,-1.3213,-1.3801,-1.3992,-1.4157,-1.435,-1.4405,-1.444,-1.4508,-1.4625,-1.4852,-1.5497,-1.6054,-1.6687,-1.7268,-1.7733,-1.8084,-1.8084,-1.8084,-1.8084,-1.8084,-1.822,-1.8193,-1.8275,-1.8356,-1.8356,-1.8518,-1.8744,-1.8744,-1.9052,-1.9462,-1.9747,-1.9939,-2.0321,-2.0485,-2.0536,-2.0674,-2.0699,-2.0699,-2.0699,-2.0699,-2.0699,-2.0699,-2.0699,-2.0699,-2.0699,-2.0686,-2.0673,-2.0607,-2.0321,-2.0165,-1.9852,-1.9799,-1.9224,-1.8819,-1.8519,-1.8074,-1.7735,-1.746,-1.7316,-1.7212,-1.7212,-1.7212,-1.7212,-1.7212,-1.722,-1.7293,-1.7529,-1.7891,-1.7954,-1.7943,-1.8501,-1.9098,-1.9112,-1.9237,-1.9137,-1.9143,-1.9298,-1.9276,-1.8863,-1.8736,-1.8807,-1.8779,-0.7348,-0.7664,-0.7273,-0.7106,-0.7085,-0.6833,-0.6743,-0.6764,-0.7119,-0.7384,-0.7592,-0.7768,-0.8087,-0.8582,-0.8565,-0.8676,-0.8791,-0.8871,-0.8712,-0.8929,-0.9152,-0.9458,-0.9777,-1.0395,-1.0964,-1.1318,-1.1644,-1.1918,-1.2051,-1.2147,-1.2328,-1.2689,-1.2928,-1.3387,-1.3892,-1.4102,-1.4396,-1.4595,-1.4595,-1.4654,-1.4714,-1.5098,-1.5468,-1.6054,-1.6669,-1.7213,-1.7678,-1.7963,-1.8084,-1.8084,-1.8084,-1.8084,-1.8111,-1.8422,-1.8583,-1.8679,-1.8801,-1.8759,-1.8786,-1.8893,-1.8931,-1.8786,-1.904,-1.9368,-1.9784,-2.0347,-2.0674,-2.0674,-2.0699,-2.0699,-2.0699,-2.0699,-2.0699,-2.0699,-2.0699,-2.0699,-2.0699,-2.0699,-2.0699,-2.0699,-2.0699,-2.0582,-2.0465,-2.0412,-2.0386,-2.0124,-1.9721,-1.9316,-1.8728,-1.8283,-1.7813,-1.7591,-1.7264,-1.7212,-1.7251,-1.7369,-1.746,-1.7481,-1.7542,-1.7813,-1.8126,-1.8486,-1.8868,-1.9515,-2.002,-1.9915,-1.9866,-2.0042,-2.0077,-2.0091,-1.9908,-1.9536,-1.9621,-1.9733,-1.9536,-0.8023,-0.8229,-0.7996,-0.7863,-0.7788,-0.753,-0.7398,-0.7449,-0.7747,-0.7987,-0.8138,-0.8272,-0.8501,-0.8804,-0.8778,-0.8982,-0.9087,-0.9159,-0.9387,-0.9588,-0.9769,-1.0131,-1.0566,-1.0989,-1.1343,-1.1669,-1.1877,-1.2076,-1.2076,-1.2128,-1.2294,-1.268,-1.3066,-1.347,-1.3873,-1.4288,-1.4666,-1.4902,-1.4882,-1.5049,-1.5128,-1.5497,-1.594,-1.6528,-1.7062,-1.7584,-1.7881,-1.8084,-1.8084,-1.8084,-1.8084,-1.8084,-1.8139,-1.8286,-1.8556,-1.8771,-1.8919,-1.9105,-1.9158,-1.921,-1.921,-1.9013,-1.9186,-1.9734,-1.9862,-2.0372,-2.0674,-2.0699,-2.0699,-2.0699,-2.0699,-2.0699,-2.0699,-2.0699,-2.0699,-2.0699,-2.0699,-2.0699,-2.0699,-2.0699,-2.0699,-2.0673,-2.0569,-2.0556,-2.053,-2.0438,-2.0137,-1.9812,-1.929,-1.8832,-1.8349,-1.7931,-1.7643,-1.7552,-1.7695,-1.7787,-1.7865,-1.7882,-1.7891,-1.8445,-1.8983,-1.941,-1.9883,-2.0239,-2.044,-2.0412,-2.044,-2.0631,-2.0723,-2.0717,-2.0512,-2.0252,-2.0421,-2.0569,-2.0386,-0.8752,-0.8778,-0.8778,-0.8778,-0.8725,-0.8418,-0.8278,-0.8278,-0.831,-0.8303,-0.8345,-0.8716,-0.887,-0.8811,-0.891,-0.9237,-0.9491,-0.9633,-0.9961,-1.0218,-1.0423,-1.0668,-1.0981,-1.1393,-1.1703,-1.1902,-1.2051,-1.2076,-1.2076,-1.2128,-1.2285,-1.2661,-1.3038,-1.3396,-1.3847,-1.4341,-1.476,-1.5187,-1.5439,-1.5853,-1.5911,-1.594,-1.6415,-1.6884,-1.7313,-1.7584,-1.7936,-1.8084,-1.8084,-1.8084,-1.8111,-1.8193,-1.8329,-1.8491,-1.8774,-1.904,-1.9342,-1.9434,-1.9486,-1.9617,-1.9512,-1.9486,-1.9824,-2.0016,-2.0093,-2.0258,-2.0536,-2.0699,-2.0699,-2.0699,-2.0699,-2.0699,-2.0699,-2.0699,-2.0699,-2.0699,-2.0699,-2.0699,-2.0699,-2.0699,-2.0699,-2.0699,-2.0699,-2.0699,-2.0646,-2.0568,-2.0373,-2.0048,-1.9708,-1.9329,-1.8911,-1.8493,-1.8153,-1.8127,-1.8192,-1.8244,-1.8323,-1.8455,-1.8587,-1.9231,-1.9822,-2.0288,-2.0547,-2.0534,-2.0701,-2.0935,-2.1022,-2.1173,-2.1251,-2.1293,-2.1229,-2.1088,-2.1032,-2.1131,-2.1117,-0.8778,-0.8778,-0.8778,-0.8778,-0.8691,-0.8243,-0.7992,-0.7992,-0.8023,-0.7985,-0.8285,-0.8985,-0.9263,-0.8864,-0.9283,-0.964,-0.9873,-1.009,-1.0218,-1.0397,-1.0939,-1.1167,-1.1377,-1.1703,-1.1952,-1.2051,-1.2076,-1.2076,-1.2076,-1.2101,-1.2153,-1.2326,-1.2695,-1.3101,-1.3589,-1.4223,-1.5031,-1.5522,-1.6026,-1.6415,-1.6838,-1.6894,-1.694,-1.7313,-1.7667,-1.7909,-1.8084,-1.8084,-1.8084,-1.8084,-1.8139,-1.8329,-1.8572,-1.8866,-1.9198,-1.95,-1.9798,-1.9926,-1.9991,-2.0131,-2.0054,-1.9668,-1.9914,-2.0067,-2.0131,-2.0131,-2.041,-2.0674,-2.0699,-2.0699,-2.0699,-2.0699,-2.0699,-2.0699,-2.0699,-2.0699,-2.0699,-2.0699,-2.0699,-2.0699,-2.0699,-2.0699,-2.0699,-2.0699,-2.0699,-2.0633,-2.0633,-2.0321,-1.9995,-1.9708,-1.9447,-1.9133,-1.8767,-1.8689,-1.8754,-1.8767,-1.8855,-1.8992,-1.932,-1.998,-2.0607,-2.1162,-2.1356,-2.1258,-2.1452,-2.1768,-2.1828,-2.1631,-2.1772,-2.1828,-2.1969,-2.194,-2.18,-2.1687,-2.1631]}]]